<?xml version="1.0" encoding="UTF-8" standalone="no" ?>
<gpx xmlns="http://www.topografix.com/GPX/1/1" xmlns:xsi="http://www.w3.org/2001/XMLSchema-instance" xsi:schemaLocation="http://www.topografix.com/GPX/1/1 http://www.topografix.com/GPX/1/1/gpx.xsd" version="1.1" creator="VisuGPX - https://www.visugpx.com">
  <metadata>
    <name>Norvège - gridset wingsuit</name>
  </metadata>
  <trk>
    <name><![CDATA[Norvège - gridset wingsuit]]></name>
    <trkseg>
      <trkpt lat="62.5024" lon="7.57929">
        <ele>121.40000152588</ele>
        <time>2022-07-02T19:27:30.000Z</time>
      </trkpt>
      <trkpt lat="62.50247" lon="7.57935">
        <ele>122.40000152588</ele>
        <time>2022-07-02T19:27:30.012Z</time>
      </trkpt>
      <trkpt lat="62.50247" lon="7.57936">
        <ele>122.59999847412</ele>
        <time>2022-07-02T19:27:30.025Z</time>
      </trkpt>
      <trkpt lat="62.50251" lon="7.5794">
        <ele>123.40000152588</ele>
        <time>2022-07-02T19:27:30.045Z</time>
      </trkpt>
      <trkpt lat="62.50254" lon="7.57943">
        <ele>124.19999694824</ele>
        <time>2022-07-02T19:27:30.072Z</time>
      </trkpt>
      <trkpt lat="62.50255" lon="7.57944">
        <ele>124.40000152588</ele>
        <time>2022-07-02T19:27:30.100Z</time>
      </trkpt>
      <trkpt lat="62.5026" lon="7.5795">
        <ele>125.19999694824</ele>
        <time>2022-07-02T19:27:30.138Z</time>
      </trkpt>
      <trkpt lat="62.5026" lon="7.57954">
        <ele>125.40000152588</ele>
        <time>2022-07-02T19:27:30.179Z</time>
      </trkpt>
      <trkpt lat="62.5026" lon="7.57962">
        <ele>126</ele>
        <time>2022-07-02T19:27:30.226Z</time>
      </trkpt>
      <trkpt lat="62.5026" lon="7.57968">
        <ele>126.59999847412</ele>
        <time>2022-07-02T19:27:30.278Z</time>
      </trkpt>
      <trkpt lat="62.50259" lon="7.57975">
        <ele>127.59999847412</ele>
        <time>2022-07-02T19:27:30.335Z</time>
      </trkpt>
      <trkpt lat="62.50259" lon="7.57976">
        <ele>127.80000305176</ele>
        <time>2022-07-02T19:27:30.393Z</time>
      </trkpt>
      <trkpt lat="62.50258" lon="7.57981">
        <ele>128.39999389648</ele>
        <time>2022-07-02T19:27:30.455Z</time>
      </trkpt>
      <trkpt lat="62.50257" lon="7.57983">
        <ele>128.60000610352</ele>
        <time>2022-07-02T19:27:30.519Z</time>
      </trkpt>
      <trkpt lat="62.50257" lon="7.57985">
        <ele>128.80000305176</ele>
        <time>2022-07-02T19:27:30.585Z</time>
      </trkpt>
      <trkpt lat="62.50257" lon="7.5799">
        <ele>129.19999694824</ele>
        <time>2022-07-02T19:27:30.656Z</time>
      </trkpt>
      <trkpt lat="62.50257" lon="7.57994">
        <ele>130</ele>
        <time>2022-07-02T19:27:30.730Z</time>
      </trkpt>
      <trkpt lat="62.50258" lon="7.58002">
        <ele>131</ele>
        <time>2022-07-02T19:27:30.810Z</time>
      </trkpt>
      <trkpt lat="62.50258" lon="7.58003">
        <ele>131</ele>
        <time>2022-07-02T19:27:30.891Z</time>
      </trkpt>
      <trkpt lat="62.50259" lon="7.58011">
        <ele>132</ele>
        <time>2022-07-02T19:27:30.978Z</time>
      </trkpt>
      <trkpt lat="62.50259" lon="7.58013">
        <ele>132.19999694824</ele>
        <time>2022-07-02T19:27:31.067Z</time>
      </trkpt>
      <trkpt lat="62.50262" lon="7.58021">
        <ele>133</ele>
        <time>2022-07-02T19:27:31.164Z</time>
      </trkpt>
      <trkpt lat="62.50262" lon="7.58023">
        <ele>133.19999694824</ele>
        <time>2022-07-02T19:27:31.263Z</time>
      </trkpt>
      <trkpt lat="62.50262" lon="7.58024">
        <ele>133.39999389648</ele>
        <time>2022-07-02T19:27:31.363Z</time>
      </trkpt>
      <trkpt lat="62.50264" lon="7.58034">
        <ele>134.39999389648</ele>
        <time>2022-07-02T19:27:31.471Z</time>
      </trkpt>
      <trkpt lat="62.50264" lon="7.58035">
        <ele>134.60000610352</ele>
        <time>2022-07-02T19:27:31.580Z</time>
      </trkpt>
      <trkpt lat="62.50265" lon="7.58039">
        <ele>135.39999389648</ele>
        <time>2022-07-02T19:27:31.692Z</time>
      </trkpt>
      <trkpt lat="62.50266" lon="7.58042">
        <ele>136</ele>
        <time>2022-07-02T19:27:31.808Z</time>
      </trkpt>
      <trkpt lat="62.50267" lon="7.58045">
        <ele>136.39999389648</ele>
        <time>2022-07-02T19:27:31.926Z</time>
      </trkpt>
      <trkpt lat="62.50269" lon="7.58056">
        <ele>137.39999389648</ele>
        <time>2022-07-02T19:27:32.053Z</time>
      </trkpt>
      <trkpt lat="62.50269" lon="7.58056">
        <ele>137.60000610352</ele>
        <time>2022-07-02T19:27:32.181Z</time>
      </trkpt>
      <trkpt lat="62.5027" lon="7.5806">
        <ele>138.60000610352</ele>
        <time>2022-07-02T19:27:32.312Z</time>
      </trkpt>
      <trkpt lat="62.50272" lon="7.58066">
        <ele>139.80000305176</ele>
        <time>2022-07-02T19:27:32.449Z</time>
      </trkpt>
      <trkpt lat="62.50275" lon="7.5807">
        <ele>140.39999389648</ele>
        <time>2022-07-02T19:27:32.593Z</time>
      </trkpt>
      <trkpt lat="62.50276" lon="7.58073">
        <ele>140.80000305176</ele>
        <time>2022-07-02T19:27:32.739Z</time>
      </trkpt>
      <trkpt lat="62.50277" lon="7.58079">
        <ele>141.39999389648</ele>
        <time>2022-07-02T19:27:32.890Z</time>
      </trkpt>
      <trkpt lat="62.50277" lon="7.58082">
        <ele>141.80000305176</ele>
        <time>2022-07-02T19:27:33.044Z</time>
      </trkpt>
      <trkpt lat="62.50279" lon="7.58092">
        <ele>142.80000305176</ele>
        <time>2022-07-02T19:27:33.206Z</time>
      </trkpt>
      <trkpt lat="62.50279" lon="7.58094">
        <ele>143.19999694824</ele>
        <time>2022-07-02T19:27:33.370Z</time>
      </trkpt>
      <trkpt lat="62.5028" lon="7.581">
        <ele>143.80000305176</ele>
        <time>2022-07-02T19:27:33.539Z</time>
      </trkpt>
      <trkpt lat="62.5028" lon="7.58106">
        <ele>144.60000610352</ele>
        <time>2022-07-02T19:27:33.712Z</time>
      </trkpt>
      <trkpt lat="62.5028" lon="7.58109">
        <ele>145</ele>
        <time>2022-07-02T19:27:33.888Z</time>
      </trkpt>
      <trkpt lat="62.5028" lon="7.58113">
        <ele>145.60000610352</ele>
        <time>2022-07-02T19:27:34.067Z</time>
      </trkpt>
      <trkpt lat="62.5028" lon="7.58115">
        <ele>146</ele>
        <time>2022-07-02T19:27:34.248Z</time>
      </trkpt>
      <trkpt lat="62.50281" lon="7.58121">
        <ele>147.19999694824</ele>
        <time>2022-07-02T19:27:34.434Z</time>
      </trkpt>
      <trkpt lat="62.50282" lon="7.58125">
        <ele>147.80000305176</ele>
        <time>2022-07-02T19:27:34.624Z</time>
      </trkpt>
      <trkpt lat="62.50282" lon="7.58127">
        <ele>148.19999694824</ele>
        <time>2022-07-02T19:27:34.815Z</time>
      </trkpt>
      <trkpt lat="62.50285" lon="7.58134">
        <ele>149</ele>
        <time>2022-07-02T19:27:35.013Z</time>
      </trkpt>
      <trkpt lat="62.50286" lon="7.58136">
        <ele>149.39999389648</ele>
        <time>2022-07-02T19:27:35.214Z</time>
      </trkpt>
      <trkpt lat="62.50287" lon="7.58143">
        <ele>150.60000610352</ele>
        <time>2022-07-02T19:27:35.421Z</time>
      </trkpt>
      <trkpt lat="62.5029" lon="7.58148">
        <ele>151.80000305176</ele>
        <time>2022-07-02T19:27:35.633Z</time>
      </trkpt>
      <trkpt lat="62.5029" lon="7.58153">
        <ele>152.60000610352</ele>
        <time>2022-07-02T19:27:35.849Z</time>
      </trkpt>
      <trkpt lat="62.5029" lon="7.58156">
        <ele>152.80000305176</ele>
        <time>2022-07-02T19:27:36.068Z</time>
      </trkpt>
      <trkpt lat="62.5029" lon="7.58165">
        <ele>153.80000305176</ele>
        <time>2022-07-02T19:27:36.294Z</time>
      </trkpt>
      <trkpt lat="62.5029" lon="7.58166">
        <ele>154</ele>
        <time>2022-07-02T19:27:36.520Z</time>
      </trkpt>
      <trkpt lat="62.50292" lon="7.58171">
        <ele>155</ele>
        <time>2022-07-02T19:27:36.751Z</time>
      </trkpt>
      <trkpt lat="62.50292" lon="7.58174">
        <ele>155.60000610352</ele>
        <time>2022-07-02T19:27:36.984Z</time>
      </trkpt>
      <trkpt lat="62.50293" lon="7.58177">
        <ele>156</ele>
        <time>2022-07-02T19:27:37.221Z</time>
      </trkpt>
      <trkpt lat="62.50294" lon="7.58182">
        <ele>157</ele>
        <time>2022-07-02T19:27:37.461Z</time>
      </trkpt>
      <trkpt lat="62.50294" lon="7.58183">
        <ele>157.19999694824</ele>
        <time>2022-07-02T19:27:37.702Z</time>
      </trkpt>
      <trkpt lat="62.50295" lon="7.58189">
        <ele>158.39999389648</ele>
        <time>2022-07-02T19:27:37.949Z</time>
      </trkpt>
      <trkpt lat="62.50296" lon="7.58191">
        <ele>158.80000305176</ele>
        <time>2022-07-02T19:27:38.198Z</time>
      </trkpt>
      <trkpt lat="62.50296" lon="7.58194">
        <ele>159.39999389648</ele>
        <time>2022-07-02T19:27:38.449Z</time>
      </trkpt>
      <trkpt lat="62.50297" lon="7.58198">
        <ele>160.19999694824</ele>
        <time>2022-07-02T19:27:38.704Z</time>
      </trkpt>
      <trkpt lat="62.50297" lon="7.582">
        <ele>160.39999389648</ele>
        <time>2022-07-02T19:27:38.960Z</time>
      </trkpt>
      <trkpt lat="62.50299" lon="7.58206">
        <ele>161.60000610352</ele>
        <time>2022-07-02T19:27:39.222Z</time>
      </trkpt>
      <trkpt lat="62.50299" lon="7.58209">
        <ele>162</ele>
        <time>2022-07-02T19:27:39.486Z</time>
      </trkpt>
      <trkpt lat="62.50299" lon="7.58211">
        <ele>162.80000305176</ele>
        <time>2022-07-02T19:27:39.752Z</time>
      </trkpt>
      <trkpt lat="62.50299" lon="7.58214">
        <ele>163.19999694824</ele>
        <time>2022-07-02T19:27:40.020Z</time>
      </trkpt>
      <trkpt lat="62.503" lon="7.58217">
        <ele>164</ele>
        <time>2022-07-02T19:27:40.291Z</time>
      </trkpt>
      <trkpt lat="62.50301" lon="7.58221">
        <ele>165</ele>
        <time>2022-07-02T19:27:40.566Z</time>
      </trkpt>
      <trkpt lat="62.50302" lon="7.58236">
        <ele>166</ele>
        <time>2022-07-02T19:27:40.853Z</time>
      </trkpt>
      <trkpt lat="62.50304" lon="7.58243">
        <ele>167.19999694824</ele>
        <time>2022-07-02T19:27:41.146Z</time>
      </trkpt>
      <trkpt lat="62.50303" lon="7.58243">
        <ele>167.39999389648</ele>
        <time>2022-07-02T19:27:41.439Z</time>
      </trkpt>
      <trkpt lat="62.50304" lon="7.58247">
        <ele>168.19999694824</ele>
        <time>2022-07-02T19:27:41.735Z</time>
      </trkpt>
      <trkpt lat="62.50305" lon="7.58251">
        <ele>168.80000305176</ele>
        <time>2022-07-02T19:27:42.036Z</time>
      </trkpt>
      <trkpt lat="62.50306" lon="7.58254">
        <ele>169.39999389648</ele>
        <time>2022-07-02T19:27:42.339Z</time>
      </trkpt>
      <trkpt lat="62.50306" lon="7.58259">
        <ele>169.80000305176</ele>
        <time>2022-07-02T19:27:42.646Z</time>
      </trkpt>
      <trkpt lat="62.50307" lon="7.58263">
        <ele>170.39999389648</ele>
        <time>2022-07-02T19:27:42.957Z</time>
      </trkpt>
      <trkpt lat="62.50306" lon="7.58271">
        <ele>171.39999389648</ele>
        <time>2022-07-02T19:27:43.274Z</time>
      </trkpt>
      <trkpt lat="62.50306" lon="7.58273">
        <ele>171.60000610352</ele>
        <time>2022-07-02T19:27:43.592Z</time>
      </trkpt>
      <trkpt lat="62.50308" lon="7.58276">
        <ele>172.39999389648</ele>
        <time>2022-07-02T19:27:43.913Z</time>
      </trkpt>
      <trkpt lat="62.50309" lon="7.58286">
        <ele>173.60000610352</ele>
        <time>2022-07-02T19:27:44.243Z</time>
      </trkpt>
      <trkpt lat="62.50311" lon="7.58292">
        <ele>174.39999389648</ele>
        <time>2022-07-02T19:27:44.578Z</time>
      </trkpt>
      <trkpt lat="62.5031" lon="7.58291">
        <ele>174.60000610352</ele>
        <time>2022-07-02T19:27:44.914Z</time>
      </trkpt>
      <trkpt lat="62.50313" lon="7.58296">
        <ele>175.19999694824</ele>
        <time>2022-07-02T19:27:45.256Z</time>
      </trkpt>
      <trkpt lat="62.50313" lon="7.58297">
        <ele>175.60000610352</ele>
        <time>2022-07-02T19:27:45.599Z</time>
      </trkpt>
      <trkpt lat="62.50312" lon="7.58299">
        <ele>176</ele>
        <time>2022-07-02T19:27:45.944Z</time>
      </trkpt>
      <trkpt lat="62.50315" lon="7.58303">
        <ele>176.80000305176</ele>
        <time>2022-07-02T19:27:46.294Z</time>
      </trkpt>
      <trkpt lat="62.50315" lon="7.58306">
        <ele>177</ele>
        <time>2022-07-02T19:27:46.647Z</time>
      </trkpt>
      <trkpt lat="62.50316" lon="7.58309">
        <ele>178.19999694824</ele>
        <time>2022-07-02T19:27:47.003Z</time>
      </trkpt>
      <trkpt lat="62.50319" lon="7.58318">
        <ele>179.19999694824</ele>
        <time>2022-07-02T19:27:47.367Z</time>
      </trkpt>
      <trkpt lat="62.50319" lon="7.5832">
        <ele>179.39999389648</ele>
        <time>2022-07-02T19:27:47.732Z</time>
      </trkpt>
      <trkpt lat="62.50319" lon="7.58327">
        <ele>180.39999389648</ele>
        <time>2022-07-02T19:27:48.103Z</time>
      </trkpt>
      <trkpt lat="62.50319" lon="7.58328">
        <ele>180.39999389648</ele>
        <time>2022-07-02T19:27:48.475Z</time>
      </trkpt>
      <trkpt lat="62.50319" lon="7.58339">
        <ele>181.39999389648</ele>
        <time>2022-07-02T19:27:48.855Z</time>
      </trkpt>
      <trkpt lat="62.50317" lon="7.58342">
        <ele>182.19999694824</ele>
        <time>2022-07-02T19:27:49.239Z</time>
      </trkpt>
      <trkpt lat="62.50318" lon="7.58347">
        <ele>182.60000610352</ele>
        <time>2022-07-02T19:27:49.627Z</time>
      </trkpt>
      <trkpt lat="62.50319" lon="7.58353">
        <ele>183.19999694824</ele>
        <time>2022-07-02T19:27:50.020Z</time>
      </trkpt>
      <trkpt lat="62.50318" lon="7.58354">
        <ele>183.80000305176</ele>
        <time>2022-07-02T19:27:50.414Z</time>
      </trkpt>
      <trkpt lat="62.50318" lon="7.58355">
        <ele>184</ele>
        <time>2022-07-02T19:27:50.809Z</time>
      </trkpt>
      <trkpt lat="62.50319" lon="7.58361">
        <ele>185</ele>
        <time>2022-07-02T19:27:51.209Z</time>
      </trkpt>
      <trkpt lat="62.50319" lon="7.58365">
        <ele>185.39999389648</ele>
        <time>2022-07-02T19:27:51.612Z</time>
      </trkpt>
      <trkpt lat="62.50318" lon="7.58369">
        <ele>186</ele>
        <time>2022-07-02T19:27:52.019Z</time>
      </trkpt>
      <trkpt lat="62.5032" lon="7.58378">
        <ele>187.19999694824</ele>
        <time>2022-07-02T19:27:52.434Z</time>
      </trkpt>
      <trkpt lat="62.50322" lon="7.58383">
        <ele>188</ele>
        <time>2022-07-02T19:27:52.854Z</time>
      </trkpt>
      <trkpt lat="62.50323" lon="7.58384">
        <ele>188.39999389648</ele>
        <time>2022-07-02T19:27:53.275Z</time>
      </trkpt>
      <trkpt lat="62.50324" lon="7.5839">
        <ele>189</ele>
        <time>2022-07-02T19:27:53.701Z</time>
      </trkpt>
      <trkpt lat="62.50324" lon="7.58392">
        <ele>189.39999389648</ele>
        <time>2022-07-02T19:27:54.129Z</time>
      </trkpt>
      <trkpt lat="62.50324" lon="7.58396">
        <ele>190</ele>
        <time>2022-07-02T19:27:54.561Z</time>
      </trkpt>
      <trkpt lat="62.50325" lon="7.58399">
        <ele>190.39999389648</ele>
        <time>2022-07-02T19:27:54.995Z</time>
      </trkpt>
      <trkpt lat="62.50326" lon="7.58405">
        <ele>191.19999694824</ele>
        <time>2022-07-02T19:27:55.434Z</time>
      </trkpt>
      <trkpt lat="62.50327" lon="7.58407">
        <ele>191.39999389648</ele>
        <time>2022-07-02T19:27:55.875Z</time>
      </trkpt>
      <trkpt lat="62.5033" lon="7.58419">
        <ele>192.39999389648</ele>
        <time>2022-07-02T19:27:56.327Z</time>
      </trkpt>
      <trkpt lat="62.5033" lon="7.5842">
        <ele>192.60000610352</ele>
        <time>2022-07-02T19:27:56.780Z</time>
      </trkpt>
      <trkpt lat="62.50331" lon="7.58429">
        <ele>193.60000610352</ele>
        <time>2022-07-02T19:27:57.241Z</time>
      </trkpt>
      <trkpt lat="62.50331" lon="7.5843">
        <ele>193.60000610352</ele>
        <time>2022-07-02T19:27:57.702Z</time>
      </trkpt>
      <trkpt lat="62.50331" lon="7.58438">
        <ele>194.39999389648</ele>
        <time>2022-07-02T19:27:58.170Z</time>
      </trkpt>
      <trkpt lat="62.50332" lon="7.58444">
        <ele>194.60000610352</ele>
        <time>2022-07-02T19:27:58.643Z</time>
      </trkpt>
      <trkpt lat="62.50332" lon="7.58447">
        <ele>193.39999389648</ele>
        <time>2022-07-02T19:27:59.118Z</time>
      </trkpt>
      <trkpt lat="62.50332" lon="7.58451">
        <ele>193.60000610352</ele>
        <time>2022-07-02T19:27:59.596Z</time>
      </trkpt>
      <trkpt lat="62.50334" lon="7.58457">
        <ele>193.60000610352</ele>
        <time>2022-07-02T19:28:00.080Z</time>
      </trkpt>
      <trkpt lat="62.50334" lon="7.58466">
        <ele>194.19999694824</ele>
        <time>2022-07-02T19:28:00.571Z</time>
      </trkpt>
      <trkpt lat="62.50335" lon="7.5847">
        <ele>194.60000610352</ele>
        <time>2022-07-02T19:28:01.066Z</time>
      </trkpt>
      <trkpt lat="62.50335" lon="7.58471">
        <ele>195</ele>
        <time>2022-07-02T19:28:01.562Z</time>
      </trkpt>
      <trkpt lat="62.50335" lon="7.58473">
        <ele>195.19999694824</ele>
        <time>2022-07-02T19:28:02.059Z</time>
      </trkpt>
      <trkpt lat="62.50336" lon="7.58476">
        <ele>195.60000610352</ele>
        <time>2022-07-02T19:28:02.559Z</time>
      </trkpt>
      <trkpt lat="62.50337" lon="7.5848">
        <ele>196.39999389648</ele>
        <time>2022-07-02T19:28:03.063Z</time>
      </trkpt>
      <trkpt lat="62.50338" lon="7.58484">
        <ele>196.80000305176</ele>
        <time>2022-07-02T19:28:03.571Z</time>
      </trkpt>
      <trkpt lat="62.50338" lon="7.58488">
        <ele>197.39999389648</ele>
        <time>2022-07-02T19:28:04.082Z</time>
      </trkpt>
      <trkpt lat="62.50339" lon="7.5849">
        <ele>197.80000305176</ele>
        <time>2022-07-02T19:28:04.594Z</time>
      </trkpt>
      <trkpt lat="62.50336" lon="7.58497">
        <ele>199</ele>
        <time>2022-07-02T19:28:05.114Z</time>
      </trkpt>
      <trkpt lat="62.50337" lon="7.58501">
        <ele>200.19999694824</ele>
        <time>2022-07-02T19:28:05.638Z</time>
      </trkpt>
      <trkpt lat="62.50338" lon="7.58502">
        <ele>201.19999694824</ele>
        <time>2022-07-02T19:28:06.162Z</time>
      </trkpt>
      <trkpt lat="62.50339" lon="7.58502">
        <ele>201.80000305176</ele>
        <time>2022-07-02T19:28:06.688Z</time>
      </trkpt>
      <trkpt lat="62.50339" lon="7.58504">
        <ele>202.39999389648</ele>
        <time>2022-07-02T19:28:07.216Z</time>
      </trkpt>
      <trkpt lat="62.5034" lon="7.58509">
        <ele>203.39999389648</ele>
        <time>2022-07-02T19:28:07.748Z</time>
      </trkpt>
      <trkpt lat="62.5034" lon="7.5851">
        <ele>203.60000610352</ele>
        <time>2022-07-02T19:28:08.281Z</time>
      </trkpt>
      <trkpt lat="62.50338" lon="7.58519">
        <ele>204.80000305176</ele>
        <time>2022-07-02T19:28:08.822Z</time>
      </trkpt>
      <trkpt lat="62.50339" lon="7.5852">
        <ele>205.60000610352</ele>
        <time>2022-07-02T19:28:09.364Z</time>
      </trkpt>
      <trkpt lat="62.50339" lon="7.5852">
        <ele>205.80000305176</ele>
        <time>2022-07-02T19:28:09.906Z</time>
      </trkpt>
      <trkpt lat="62.50339" lon="7.58522">
        <ele>206</ele>
        <time>2022-07-02T19:28:10.450Z</time>
      </trkpt>
      <trkpt lat="62.50341" lon="7.58527">
        <ele>207</ele>
        <time>2022-07-02T19:28:10.998Z</time>
      </trkpt>
      <trkpt lat="62.50342" lon="7.58527">
        <ele>207.19999694824</ele>
        <time>2022-07-02T19:28:11.549Z</time>
      </trkpt>
      <trkpt lat="62.50344" lon="7.58529">
        <ele>208</ele>
        <time>2022-07-02T19:28:12.104Z</time>
      </trkpt>
      <trkpt lat="62.50346" lon="7.58532">
        <ele>209</ele>
        <time>2022-07-02T19:28:12.663Z</time>
      </trkpt>
      <trkpt lat="62.50346" lon="7.58532">
        <ele>209.19999694824</ele>
        <time>2022-07-02T19:28:13.222Z</time>
      </trkpt>
      <trkpt lat="62.50346" lon="7.58537">
        <ele>209.80000305176</ele>
        <time>2022-07-02T19:28:13.785Z</time>
      </trkpt>
      <trkpt lat="62.50347" lon="7.58541">
        <ele>210.19999694824</ele>
        <time>2022-07-02T19:28:14.352Z</time>
      </trkpt>
      <trkpt lat="62.50349" lon="7.58547">
        <ele>211</ele>
        <time>2022-07-02T19:28:14.924Z</time>
      </trkpt>
      <trkpt lat="62.50351" lon="7.58549">
        <ele>211.39999389648</ele>
        <time>2022-07-02T19:28:15.499Z</time>
      </trkpt>
      <trkpt lat="62.50353" lon="7.5855">
        <ele>212.39999389648</ele>
        <time>2022-07-02T19:28:16.079Z</time>
      </trkpt>
      <trkpt lat="62.50354" lon="7.58551">
        <ele>212.80000305176</ele>
        <time>2022-07-02T19:28:16.660Z</time>
      </trkpt>
      <trkpt lat="62.50356" lon="7.58553">
        <ele>213.60000610352</ele>
        <time>2022-07-02T19:28:17.245Z</time>
      </trkpt>
      <trkpt lat="62.50357" lon="7.58554">
        <ele>214.60000610352</ele>
        <time>2022-07-02T19:28:17.833Z</time>
      </trkpt>
      <trkpt lat="62.5036" lon="7.58559">
        <ele>215.80000305176</ele>
        <time>2022-07-02T19:28:18.426Z</time>
      </trkpt>
      <trkpt lat="62.50362" lon="7.58564">
        <ele>217.19999694824</ele>
        <time>2022-07-02T19:28:19.024Z</time>
      </trkpt>
      <trkpt lat="62.50364" lon="7.58567">
        <ele>218.19999694824</ele>
        <time>2022-07-02T19:28:19.627Z</time>
      </trkpt>
      <trkpt lat="62.50364" lon="7.58569">
        <ele>218.39999389648</ele>
        <time>2022-07-02T19:28:20.232Z</time>
      </trkpt>
      <trkpt lat="62.50365" lon="7.58569">
        <ele>219.19999694824</ele>
        <time>2022-07-02T19:28:20.838Z</time>
      </trkpt>
      <trkpt lat="62.50365" lon="7.58572">
        <ele>222.39999389648</ele>
        <time>2022-07-02T19:28:21.446Z</time>
      </trkpt>
      <trkpt lat="62.50366" lon="7.58576">
        <ele>223.60000610352</ele>
        <time>2022-07-02T19:28:22.058Z</time>
      </trkpt>
      <trkpt lat="62.50368" lon="7.58584">
        <ele>224.80000305176</ele>
        <time>2022-07-02T19:28:22.677Z</time>
      </trkpt>
      <trkpt lat="62.5037" lon="7.58589">
        <ele>225.80000305176</ele>
        <time>2022-07-02T19:28:23.300Z</time>
      </trkpt>
      <trkpt lat="62.5037" lon="7.58592">
        <ele>226.80000305176</ele>
        <time>2022-07-02T19:28:23.926Z</time>
      </trkpt>
      <trkpt lat="62.50372" lon="7.58599">
        <ele>227.80000305176</ele>
        <time>2022-07-02T19:28:24.558Z</time>
      </trkpt>
      <trkpt lat="62.50372" lon="7.58601">
        <ele>227.80000305176</ele>
        <time>2022-07-02T19:28:25.192Z</time>
      </trkpt>
      <trkpt lat="62.50372" lon="7.58603">
        <ele>228.19999694824</ele>
        <time>2022-07-02T19:28:25.827Z</time>
      </trkpt>
      <trkpt lat="62.50373" lon="7.58609">
        <ele>229</ele>
        <time>2022-07-02T19:28:26.467Z</time>
      </trkpt>
      <trkpt lat="62.50373" lon="7.58612">
        <ele>230.19999694824</ele>
        <time>2022-07-02T19:28:27.110Z</time>
      </trkpt>
      <trkpt lat="62.50373" lon="7.58614">
        <ele>230.60000610352</ele>
        <time>2022-07-02T19:28:27.755Z</time>
      </trkpt>
      <trkpt lat="62.50374" lon="7.58618">
        <ele>231.19999694824</ele>
        <time>2022-07-02T19:28:28.403Z</time>
      </trkpt>
      <trkpt lat="62.50374" lon="7.58621">
        <ele>231.39999389648</ele>
        <time>2022-07-02T19:28:29.054Z</time>
      </trkpt>
      <trkpt lat="62.50374" lon="7.58626">
        <ele>232.19999694824</ele>
        <time>2022-07-02T19:28:29.709Z</time>
      </trkpt>
      <trkpt lat="62.50374" lon="7.58627">
        <ele>232.39999389648</ele>
        <time>2022-07-02T19:28:30.364Z</time>
      </trkpt>
      <trkpt lat="62.50373" lon="7.5863">
        <ele>233.39999389648</ele>
        <time>2022-07-02T19:28:31.022Z</time>
      </trkpt>
      <trkpt lat="62.50373" lon="7.58635">
        <ele>234</ele>
        <time>2022-07-02T19:28:31.684Z</time>
      </trkpt>
      <trkpt lat="62.50373" lon="7.58638">
        <ele>234.39999389648</ele>
        <time>2022-07-02T19:28:32.349Z</time>
      </trkpt>
      <trkpt lat="62.50373" lon="7.5864">
        <ele>234.80000305176</ele>
        <time>2022-07-02T19:28:33.015Z</time>
      </trkpt>
      <trkpt lat="62.50374" lon="7.58645">
        <ele>235.60000610352</ele>
        <time>2022-07-02T19:28:33.685Z</time>
      </trkpt>
      <trkpt lat="62.50375" lon="7.58651">
        <ele>236.19999694824</ele>
        <time>2022-07-02T19:28:34.360Z</time>
      </trkpt>
      <trkpt lat="62.50375" lon="7.58653">
        <ele>236.80000305176</ele>
        <time>2022-07-02T19:28:35.037Z</time>
      </trkpt>
      <trkpt lat="62.50376" lon="7.58656">
        <ele>237.39999389648</ele>
        <time>2022-07-02T19:28:35.717Z</time>
      </trkpt>
      <trkpt lat="62.50376" lon="7.58656">
        <ele>237.80000305176</ele>
        <time>2022-07-02T19:28:36.397Z</time>
      </trkpt>
      <trkpt lat="62.50375" lon="7.58659">
        <ele>238.19999694824</ele>
        <time>2022-07-02T19:28:37.079Z</time>
      </trkpt>
      <trkpt lat="62.5038" lon="7.58671">
        <ele>238.80000305176</ele>
        <time>2022-07-02T19:28:37.774Z</time>
      </trkpt>
      <trkpt lat="62.50381" lon="7.58683">
        <ele>240</ele>
        <time>2022-07-02T19:28:38.479Z</time>
      </trkpt>
      <trkpt lat="62.50382" lon="7.58685">
        <ele>240.19999694824</ele>
        <time>2022-07-02T19:28:39.186Z</time>
      </trkpt>
      <trkpt lat="62.50381" lon="7.58693">
        <ele>241.19999694824</ele>
        <time>2022-07-02T19:28:39.899Z</time>
      </trkpt>
      <trkpt lat="62.50381" lon="7.58695">
        <ele>241.60000610352</ele>
        <time>2022-07-02T19:28:40.614Z</time>
      </trkpt>
      <trkpt lat="62.50381" lon="7.58705">
        <ele>242.39999389648</ele>
        <time>2022-07-02T19:28:41.337Z</time>
      </trkpt>
      <trkpt lat="62.50382" lon="7.5871">
        <ele>242.80000305176</ele>
        <time>2022-07-02T19:28:42.064Z</time>
      </trkpt>
      <trkpt lat="62.50382" lon="7.58715">
        <ele>243.39999389648</ele>
        <time>2022-07-02T19:28:42.795Z</time>
      </trkpt>
      <trkpt lat="62.50382" lon="7.58715">
        <ele>244</ele>
        <time>2022-07-02T19:28:43.526Z</time>
      </trkpt>
      <trkpt lat="62.50382" lon="7.58716">
        <ele>244.60000610352</ele>
        <time>2022-07-02T19:28:44.258Z</time>
      </trkpt>
      <trkpt lat="62.50381" lon="7.58712">
        <ele>245.19999694824</ele>
        <time>2022-07-02T19:28:44.993Z</time>
      </trkpt>
      <trkpt lat="62.50384" lon="7.58726">
        <ele>245.80000305176</ele>
        <time>2022-07-02T19:28:45.740Z</time>
      </trkpt>
      <trkpt lat="62.50385" lon="7.58727">
        <ele>246.39999389648</ele>
        <time>2022-07-02T19:28:46.489Z</time>
      </trkpt>
      <trkpt lat="62.50385" lon="7.58729">
        <ele>246.80000305176</ele>
        <time>2022-07-02T19:28:47.239Z</time>
      </trkpt>
      <trkpt lat="62.50385" lon="7.58733">
        <ele>247.39999389648</ele>
        <time>2022-07-02T19:28:47.992Z</time>
      </trkpt>
      <trkpt lat="62.50385" lon="7.58735">
        <ele>248</ele>
        <time>2022-07-02T19:28:48.747Z</time>
      </trkpt>
      <trkpt lat="62.50384" lon="7.58734">
        <ele>249</ele>
        <time>2022-07-02T19:28:49.503Z</time>
      </trkpt>
      <trkpt lat="62.50386" lon="7.58739">
        <ele>250.19999694824</ele>
        <time>2022-07-02T19:28:50.264Z</time>
      </trkpt>
      <trkpt lat="62.50388" lon="7.58742">
        <ele>250.80000305176</ele>
        <time>2022-07-02T19:28:51.028Z</time>
      </trkpt>
      <trkpt lat="62.50389" lon="7.58745">
        <ele>251.19999694824</ele>
        <time>2022-07-02T19:28:51.796Z</time>
      </trkpt>
      <trkpt lat="62.5039" lon="7.5875">
        <ele>252.19999694824</ele>
        <time>2022-07-02T19:28:52.568Z</time>
      </trkpt>
      <trkpt lat="62.5039" lon="7.5875">
        <ele>252.39999389648</ele>
        <time>2022-07-02T19:28:53.341Z</time>
      </trkpt>
      <trkpt lat="62.50389" lon="7.58746">
        <ele>253.60000610352</ele>
        <time>2022-07-02T19:28:54.116Z</time>
      </trkpt>
      <trkpt lat="62.50391" lon="7.58747">
        <ele>253.80000305176</ele>
        <time>2022-07-02T19:28:54.894Z</time>
      </trkpt>
      <trkpt lat="62.50394" lon="7.58745">
        <ele>254.60000610352</ele>
        <time>2022-07-02T19:28:55.679Z</time>
      </trkpt>
      <trkpt lat="62.50395" lon="7.58744">
        <ele>254.80000305176</ele>
        <time>2022-07-02T19:28:56.465Z</time>
      </trkpt>
      <trkpt lat="62.504" lon="7.58742">
        <ele>255.60000610352</ele>
        <time>2022-07-02T19:28:57.260Z</time>
      </trkpt>
      <trkpt lat="62.50401" lon="7.58738">
        <ele>256.20001220703</ele>
        <time>2022-07-02T19:28:58.059Z</time>
      </trkpt>
      <trkpt lat="62.50403" lon="7.58738">
        <ele>256.79998779297</ele>
        <time>2022-07-02T19:28:58.860Z</time>
      </trkpt>
      <trkpt lat="62.50404" lon="7.58742">
        <ele>257.20001220703</ele>
        <time>2022-07-02T19:28:59.664Z</time>
      </trkpt>
      <trkpt lat="62.50404" lon="7.58747">
        <ele>257.79998779297</ele>
        <time>2022-07-02T19:29:00.472Z</time>
      </trkpt>
      <trkpt lat="62.50406" lon="7.5875">
        <ele>258.39999389648</ele>
        <time>2022-07-02T19:29:01.284Z</time>
      </trkpt>
      <trkpt lat="62.50409" lon="7.58754">
        <ele>259</ele>
        <time>2022-07-02T19:29:02.102Z</time>
      </trkpt>
      <trkpt lat="62.50408" lon="7.58758">
        <ele>259.60000610352</ele>
        <time>2022-07-02T19:29:02.923Z</time>
      </trkpt>
      <trkpt lat="62.50409" lon="7.58761">
        <ele>260</ele>
        <time>2022-07-02T19:29:03.747Z</time>
      </trkpt>
      <trkpt lat="62.5041" lon="7.58764">
        <ele>260.60000610352</ele>
        <time>2022-07-02T19:29:04.574Z</time>
      </trkpt>
      <trkpt lat="62.50409" lon="7.58764">
        <ele>261</ele>
        <time>2022-07-02T19:29:05.401Z</time>
      </trkpt>
      <trkpt lat="62.50411" lon="7.58767">
        <ele>262.20001220703</ele>
        <time>2022-07-02T19:29:06.233Z</time>
      </trkpt>
      <trkpt lat="62.50416" lon="7.58772">
        <ele>263</ele>
        <time>2022-07-02T19:29:07.073Z</time>
      </trkpt>
      <trkpt lat="62.50418" lon="7.58773">
        <ele>263.39999389648</ele>
        <time>2022-07-02T19:29:07.916Z</time>
      </trkpt>
      <trkpt lat="62.50418" lon="7.58774">
        <ele>264.39999389648</ele>
        <time>2022-07-02T19:29:08.760Z</time>
      </trkpt>
      <trkpt lat="62.50418" lon="7.58776">
        <ele>264.79998779297</ele>
        <time>2022-07-02T19:29:09.606Z</time>
      </trkpt>
      <trkpt lat="62.50419" lon="7.5878">
        <ele>265.60000610352</ele>
        <time>2022-07-02T19:29:10.455Z</time>
      </trkpt>
      <trkpt lat="62.5042" lon="7.5878">
        <ele>266.20001220703</ele>
        <time>2022-07-02T19:29:11.306Z</time>
      </trkpt>
      <trkpt lat="62.5042" lon="7.58781">
        <ele>266.79998779297</ele>
        <time>2022-07-02T19:29:12.158Z</time>
      </trkpt>
      <trkpt lat="62.50421" lon="7.58778">
        <ele>267.60000610352</ele>
        <time>2022-07-02T19:29:13.013Z</time>
      </trkpt>
      <trkpt lat="62.50421" lon="7.58777">
        <ele>268</ele>
        <time>2022-07-02T19:29:13.869Z</time>
      </trkpt>
      <trkpt lat="62.50424" lon="7.58781">
        <ele>269.20001220703</ele>
        <time>2022-07-02T19:29:14.730Z</time>
      </trkpt>
      <trkpt lat="62.50425" lon="7.58782">
        <ele>269.39999389648</ele>
        <time>2022-07-02T19:29:15.593Z</time>
      </trkpt>
      <trkpt lat="62.50427" lon="7.58784">
        <ele>270.20001220703</ele>
        <time>2022-07-02T19:29:16.459Z</time>
      </trkpt>
      <trkpt lat="62.50429" lon="7.58781">
        <ele>271.39999389648</ele>
        <time>2022-07-02T19:29:17.329Z</time>
      </trkpt>
      <trkpt lat="62.50429" lon="7.5878">
        <ele>271.60000610352</ele>
        <time>2022-07-02T19:29:18.200Z</time>
      </trkpt>
      <trkpt lat="62.50432" lon="7.58784">
        <ele>272.60000610352</ele>
        <time>2022-07-02T19:29:19.076Z</time>
      </trkpt>
      <trkpt lat="62.50433" lon="7.58785">
        <ele>272.79998779297</ele>
        <time>2022-07-02T19:29:19.954Z</time>
      </trkpt>
      <trkpt lat="62.50434" lon="7.58787">
        <ele>273.60000610352</ele>
        <time>2022-07-02T19:29:20.836Z</time>
      </trkpt>
      <trkpt lat="62.50437" lon="7.58793">
        <ele>274.39999389648</ele>
        <time>2022-07-02T19:29:21.725Z</time>
      </trkpt>
      <trkpt lat="62.50438" lon="7.58797">
        <ele>274.60000610352</ele>
        <time>2022-07-02T19:29:22.617Z</time>
      </trkpt>
      <trkpt lat="62.50443" lon="7.58805">
        <ele>275.60000610352</ele>
        <time>2022-07-02T19:29:23.519Z</time>
      </trkpt>
      <trkpt lat="62.50443" lon="7.58805">
        <ele>275.79998779297</ele>
        <time>2022-07-02T19:29:24.421Z</time>
      </trkpt>
      <trkpt lat="62.50442" lon="7.58806">
        <ele>276.60000610352</ele>
        <time>2022-07-02T19:29:25.325Z</time>
      </trkpt>
      <trkpt lat="62.50442" lon="7.58803">
        <ele>277</ele>
        <time>2022-07-02T19:29:26.232Z</time>
      </trkpt>
      <trkpt lat="62.50443" lon="7.58802">
        <ele>277.20001220703</ele>
        <time>2022-07-02T19:29:27.141Z</time>
      </trkpt>
      <trkpt lat="62.50448" lon="7.58802">
        <ele>278</ele>
        <time>2022-07-02T19:29:28.057Z</time>
      </trkpt>
      <trkpt lat="62.5045" lon="7.58801">
        <ele>278.60000610352</ele>
        <time>2022-07-02T19:29:28.977Z</time>
      </trkpt>
      <trkpt lat="62.5045" lon="7.58799">
        <ele>279.39999389648</ele>
        <time>2022-07-02T19:29:29.899Z</time>
      </trkpt>
      <trkpt lat="62.50449" lon="7.58792">
        <ele>280</ele>
        <time>2022-07-02T19:29:30.827Z</time>
      </trkpt>
      <trkpt lat="62.50449" lon="7.58792">
        <ele>280.60000610352</ele>
        <time>2022-07-02T19:29:31.755Z</time>
      </trkpt>
      <trkpt lat="62.5045" lon="7.58789">
        <ele>281.20001220703</ele>
        <time>2022-07-02T19:29:32.686Z</time>
      </trkpt>
      <trkpt lat="62.50449" lon="7.58787">
        <ele>281.79998779297</ele>
        <time>2022-07-02T19:29:33.618Z</time>
      </trkpt>
      <trkpt lat="62.5045" lon="7.58784">
        <ele>282.39999389648</ele>
        <time>2022-07-02T19:29:34.553Z</time>
      </trkpt>
      <trkpt lat="62.50453" lon="7.58787">
        <ele>282.79998779297</ele>
        <time>2022-07-02T19:29:35.494Z</time>
      </trkpt>
      <trkpt lat="62.50458" lon="7.58788">
        <ele>283.79998779297</ele>
        <time>2022-07-02T19:29:36.443Z</time>
      </trkpt>
      <trkpt lat="62.50459" lon="7.58787">
        <ele>284</ele>
        <time>2022-07-02T19:29:37.394Z</time>
      </trkpt>
      <trkpt lat="62.5046" lon="7.58786">
        <ele>285</ele>
        <time>2022-07-02T19:29:38.348Z</time>
      </trkpt>
      <trkpt lat="62.50461" lon="7.58786">
        <ele>285.39999389648</ele>
        <time>2022-07-02T19:29:39.304Z</time>
      </trkpt>
      <trkpt lat="62.50464" lon="7.58785">
        <ele>286</ele>
        <time>2022-07-02T19:29:40.264Z</time>
      </trkpt>
      <trkpt lat="62.50466" lon="7.58783">
        <ele>286.39999389648</ele>
        <time>2022-07-02T19:29:41.229Z</time>
      </trkpt>
      <trkpt lat="62.50466" lon="7.58781">
        <ele>287.20001220703</ele>
        <time>2022-07-02T19:29:42.195Z</time>
      </trkpt>
      <trkpt lat="62.50466" lon="7.58781">
        <ele>287.39999389648</ele>
        <time>2022-07-02T19:29:43.161Z</time>
      </trkpt>
      <trkpt lat="62.50473" lon="7.58783">
        <ele>288.39999389648</ele>
        <time>2022-07-02T19:29:44.138Z</time>
      </trkpt>
      <trkpt lat="62.50474" lon="7.58784">
        <ele>288.60000610352</ele>
        <time>2022-07-02T19:29:45.118Z</time>
      </trkpt>
      <trkpt lat="62.50476" lon="7.5879">
        <ele>289.39999389648</ele>
        <time>2022-07-02T19:29:46.104Z</time>
      </trkpt>
      <trkpt lat="62.50477" lon="7.5879">
        <ele>289.60000610352</ele>
        <time>2022-07-02T19:29:47.091Z</time>
      </trkpt>
      <trkpt lat="62.50477" lon="7.58796">
        <ele>290</ele>
        <time>2022-07-02T19:29:48.083Z</time>
      </trkpt>
      <trkpt lat="62.50478" lon="7.58802">
        <ele>290.39999389648</ele>
        <time>2022-07-02T19:29:49.079Z</time>
      </trkpt>
      <trkpt lat="62.50478" lon="7.58804">
        <ele>290.79998779297</ele>
        <time>2022-07-02T19:29:50.077Z</time>
      </trkpt>
      <trkpt lat="62.50482" lon="7.58807">
        <ele>291.79998779297</ele>
        <time>2022-07-02T19:29:51.082Z</time>
      </trkpt>
      <trkpt lat="62.50482" lon="7.58809">
        <ele>292.20001220703</ele>
        <time>2022-07-02T19:29:52.089Z</time>
      </trkpt>
      <trkpt lat="62.50481" lon="7.58815">
        <ele>292.79998779297</ele>
        <time>2022-07-02T19:29:53.101Z</time>
      </trkpt>
      <trkpt lat="62.5048" lon="7.5882">
        <ele>293.39999389648</ele>
        <time>2022-07-02T19:29:54.116Z</time>
      </trkpt>
      <trkpt lat="62.50481" lon="7.58821">
        <ele>293.79998779297</ele>
        <time>2022-07-02T19:29:55.133Z</time>
      </trkpt>
      <trkpt lat="62.50482" lon="7.58822">
        <ele>294.39999389648</ele>
        <time>2022-07-02T19:29:56.151Z</time>
      </trkpt>
      <trkpt lat="62.50483" lon="7.58823">
        <ele>294.79998779297</ele>
        <time>2022-07-02T19:29:57.171Z</time>
      </trkpt>
      <trkpt lat="62.50482" lon="7.58824">
        <ele>295</ele>
        <time>2022-07-02T19:29:58.192Z</time>
      </trkpt>
      <trkpt lat="62.50483" lon="7.58824">
        <ele>295.79998779297</ele>
        <time>2022-07-02T19:29:59.213Z</time>
      </trkpt>
      <trkpt lat="62.50482" lon="7.58825">
        <ele>295.79998779297</ele>
        <time>2022-07-02T19:30:00.235Z</time>
      </trkpt>
      <trkpt lat="62.50485" lon="7.58826">
        <ele>296.60000610352</ele>
        <time>2022-07-02T19:30:01.262Z</time>
      </trkpt>
      <trkpt lat="62.50486" lon="7.58825">
        <ele>297</ele>
        <time>2022-07-02T19:30:02.290Z</time>
      </trkpt>
      <trkpt lat="62.50488" lon="7.58822">
        <ele>297.79998779297</ele>
        <time>2022-07-02T19:30:03.323Z</time>
      </trkpt>
      <trkpt lat="62.50489" lon="7.5882">
        <ele>298</ele>
        <time>2022-07-02T19:30:04.357Z</time>
      </trkpt>
      <trkpt lat="62.5049" lon="7.58822">
        <ele>298.39999389648</ele>
        <time>2022-07-02T19:30:05.393Z</time>
      </trkpt>
      <trkpt lat="62.50491" lon="7.58824">
        <ele>299.20001220703</ele>
        <time>2022-07-02T19:30:06.432Z</time>
      </trkpt>
      <trkpt lat="62.50491" lon="7.58823">
        <ele>300</ele>
        <time>2022-07-02T19:30:07.472Z</time>
      </trkpt>
      <trkpt lat="62.50491" lon="7.58822">
        <ele>300.20001220703</ele>
        <time>2022-07-02T19:30:08.513Z</time>
      </trkpt>
      <trkpt lat="62.50491" lon="7.5882">
        <ele>301.60000610352</ele>
        <time>2022-07-02T19:30:09.556Z</time>
      </trkpt>
      <trkpt lat="62.50491" lon="7.58819">
        <ele>301.79998779297</ele>
        <time>2022-07-02T19:30:10.600Z</time>
      </trkpt>
      <trkpt lat="62.50495" lon="7.58809">
        <ele>302.60000610352</ele>
        <time>2022-07-02T19:30:11.653Z</time>
      </trkpt>
      <trkpt lat="62.50499" lon="7.58808">
        <ele>303.79998779297</ele>
        <time>2022-07-02T19:30:12.714Z</time>
      </trkpt>
      <trkpt lat="62.505" lon="7.58809">
        <ele>304</ele>
        <time>2022-07-02T19:30:13.777Z</time>
      </trkpt>
      <trkpt lat="62.50501" lon="7.5881">
        <ele>304.79998779297</ele>
        <time>2022-07-02T19:30:14.841Z</time>
      </trkpt>
      <trkpt lat="62.50502" lon="7.58815">
        <ele>305.39999389648</ele>
        <time>2022-07-02T19:30:15.909Z</time>
      </trkpt>
      <trkpt lat="62.50503" lon="7.58823">
        <ele>306</ele>
        <time>2022-07-02T19:30:16.984Z</time>
      </trkpt>
      <trkpt lat="62.50504" lon="7.58824">
        <ele>306.20001220703</ele>
        <time>2022-07-02T19:30:18.060Z</time>
      </trkpt>
      <trkpt lat="62.50507" lon="7.58824">
        <ele>307</ele>
        <time>2022-07-02T19:30:19.142Z</time>
      </trkpt>
      <trkpt lat="62.50508" lon="7.58828">
        <ele>307.39999389648</ele>
        <time>2022-07-02T19:30:20.227Z</time>
      </trkpt>
      <trkpt lat="62.50509" lon="7.58834">
        <ele>308.20001220703</ele>
        <time>2022-07-02T19:30:21.318Z</time>
      </trkpt>
      <trkpt lat="62.5051" lon="7.58836">
        <ele>308.39999389648</ele>
        <time>2022-07-02T19:30:22.410Z</time>
      </trkpt>
      <trkpt lat="62.5051" lon="7.58838">
        <ele>309</ele>
        <time>2022-07-02T19:30:23.505Z</time>
      </trkpt>
      <trkpt lat="62.5051" lon="7.58837">
        <ele>309.20001220703</ele>
        <time>2022-07-02T19:30:24.601Z</time>
      </trkpt>
      <trkpt lat="62.50512" lon="7.58837">
        <ele>309.79998779297</ele>
        <time>2022-07-02T19:30:25.700Z</time>
      </trkpt>
      <trkpt lat="62.50514" lon="7.58838">
        <ele>310.39999389648</ele>
        <time>2022-07-02T19:30:26.802Z</time>
      </trkpt>
      <trkpt lat="62.50515" lon="7.58842">
        <ele>311.39999389648</ele>
        <time>2022-07-02T19:30:27.908Z</time>
      </trkpt>
      <trkpt lat="62.50515" lon="7.58842">
        <ele>311.60000610352</ele>
        <time>2022-07-02T19:30:29.014Z</time>
      </trkpt>
      <trkpt lat="62.50516" lon="7.58841">
        <ele>312.60000610352</ele>
        <time>2022-07-02T19:30:30.122Z</time>
      </trkpt>
      <trkpt lat="62.50517" lon="7.5884">
        <ele>313.39999389648</ele>
        <time>2022-07-02T19:30:31.232Z</time>
      </trkpt>
      <trkpt lat="62.50518" lon="7.58839">
        <ele>313.79998779297</ele>
        <time>2022-07-02T19:30:32.344Z</time>
      </trkpt>
      <trkpt lat="62.50518" lon="7.58834">
        <ele>314.60000610352</ele>
        <time>2022-07-02T19:30:33.460Z</time>
      </trkpt>
      <trkpt lat="62.50518" lon="7.58834">
        <ele>314.79998779297</ele>
        <time>2022-07-02T19:30:34.576Z</time>
      </trkpt>
      <trkpt lat="62.50521" lon="7.5883">
        <ele>316</ele>
        <time>2022-07-02T19:30:35.699Z</time>
      </trkpt>
      <trkpt lat="62.50523" lon="7.58828">
        <ele>317.20001220703</ele>
        <time>2022-07-02T19:30:36.825Z</time>
      </trkpt>
      <trkpt lat="62.50524" lon="7.58825">
        <ele>317.60000610352</ele>
        <time>2022-07-02T19:30:37.954Z</time>
      </trkpt>
      <trkpt lat="62.50525" lon="7.58822">
        <ele>318.39999389648</ele>
        <time>2022-07-02T19:30:39.086Z</time>
      </trkpt>
      <trkpt lat="62.50528" lon="7.58821">
        <ele>318.79998779297</ele>
        <time>2022-07-02T19:30:40.223Z</time>
      </trkpt>
      <trkpt lat="62.50534" lon="7.58824">
        <ele>319.79998779297</ele>
        <time>2022-07-02T19:30:41.371Z</time>
      </trkpt>
      <trkpt lat="62.50534" lon="7.58822">
        <ele>320.20001220703</ele>
        <time>2022-07-02T19:30:42.521Z</time>
      </trkpt>
      <trkpt lat="62.50535" lon="7.58818">
        <ele>320.79998779297</ele>
        <time>2022-07-02T19:30:43.674Z</time>
      </trkpt>
      <trkpt lat="62.50535" lon="7.58816">
        <ele>321.60000610352</ele>
        <time>2022-07-02T19:30:44.829Z</time>
      </trkpt>
      <trkpt lat="62.50536" lon="7.58816">
        <ele>321.79998779297</ele>
        <time>2022-07-02T19:30:45.986Z</time>
      </trkpt>
      <trkpt lat="62.50538" lon="7.58823">
        <ele>323</ele>
        <time>2022-07-02T19:30:47.149Z</time>
      </trkpt>
      <trkpt lat="62.5054" lon="7.58826">
        <ele>323.39999389648</ele>
        <time>2022-07-02T19:30:48.315Z</time>
      </trkpt>
      <trkpt lat="62.50542" lon="7.58834">
        <ele>324.20001220703</ele>
        <time>2022-07-02T19:30:49.488Z</time>
      </trkpt>
      <trkpt lat="62.50542" lon="7.58838">
        <ele>324.60000610352</ele>
        <time>2022-07-02T19:30:50.665Z</time>
      </trkpt>
      <trkpt lat="62.50542" lon="7.58841">
        <ele>325.39999389648</ele>
        <time>2022-07-02T19:30:51.844Z</time>
      </trkpt>
      <trkpt lat="62.50545" lon="7.58848">
        <ele>326.39999389648</ele>
        <time>2022-07-02T19:30:53.030Z</time>
      </trkpt>
      <trkpt lat="62.50545" lon="7.58848">
        <ele>326.39999389648</ele>
        <time>2022-07-02T19:30:54.216Z</time>
      </trkpt>
      <trkpt lat="62.50546" lon="7.58849">
        <ele>327.39999389648</ele>
        <time>2022-07-02T19:30:55.404Z</time>
      </trkpt>
      <trkpt lat="62.50547" lon="7.58849">
        <ele>327.60000610352</ele>
        <time>2022-07-02T19:30:56.593Z</time>
      </trkpt>
      <trkpt lat="62.50548" lon="7.5885">
        <ele>328.60000610352</ele>
        <time>2022-07-02T19:30:57.784Z</time>
      </trkpt>
      <trkpt lat="62.50548" lon="7.58853">
        <ele>329.79998779297</ele>
        <time>2022-07-02T19:30:58.978Z</time>
      </trkpt>
      <trkpt lat="62.50548" lon="7.58853">
        <ele>330.79998779297</ele>
        <time>2022-07-02T19:31:00.172Z</time>
      </trkpt>
      <trkpt lat="62.50548" lon="7.58853">
        <ele>331.60000610352</ele>
        <time>2022-07-02T19:31:01.367Z</time>
      </trkpt>
      <trkpt lat="62.50548" lon="7.58852">
        <ele>331.79998779297</ele>
        <time>2022-07-02T19:31:02.563Z</time>
      </trkpt>
      <trkpt lat="62.50548" lon="7.5885">
        <ele>332.39999389648</ele>
        <time>2022-07-02T19:31:03.760Z</time>
      </trkpt>
      <trkpt lat="62.50548" lon="7.58849">
        <ele>333</ele>
        <time>2022-07-02T19:31:04.957Z</time>
      </trkpt>
      <trkpt lat="62.50554" lon="7.58839">
        <ele>333.79998779297</ele>
        <time>2022-07-02T19:31:06.168Z</time>
      </trkpt>
      <trkpt lat="62.50556" lon="7.58835">
        <ele>334</ele>
        <time>2022-07-02T19:31:07.384Z</time>
      </trkpt>
      <trkpt lat="62.50561" lon="7.58825">
        <ele>335</ele>
        <time>2022-07-02T19:31:08.611Z</time>
      </trkpt>
      <trkpt lat="62.50562" lon="7.58824">
        <ele>335.20001220703</ele>
        <time>2022-07-02T19:31:09.839Z</time>
      </trkpt>
      <trkpt lat="62.50564" lon="7.58824">
        <ele>336</ele>
        <time>2022-07-02T19:31:11.071Z</time>
      </trkpt>
      <trkpt lat="62.50565" lon="7.58827">
        <ele>336.39999389648</ele>
        <time>2022-07-02T19:31:12.306Z</time>
      </trkpt>
      <trkpt lat="62.50567" lon="7.5883">
        <ele>337.20001220703</ele>
        <time>2022-07-02T19:31:13.545Z</time>
      </trkpt>
      <trkpt lat="62.50568" lon="7.58826">
        <ele>337.60000610352</ele>
        <time>2022-07-02T19:31:14.787Z</time>
      </trkpt>
      <trkpt lat="62.50569" lon="7.58824">
        <ele>338.39999389648</ele>
        <time>2022-07-02T19:31:16.032Z</time>
      </trkpt>
      <trkpt lat="62.5057" lon="7.58825">
        <ele>338.60000610352</ele>
        <time>2022-07-02T19:31:17.279Z</time>
      </trkpt>
      <trkpt lat="62.50572" lon="7.58827">
        <ele>339.60000610352</ele>
        <time>2022-07-02T19:31:18.530Z</time>
      </trkpt>
      <trkpt lat="62.50572" lon="7.58832">
        <ele>339.79998779297</ele>
        <time>2022-07-02T19:31:19.784Z</time>
      </trkpt>
      <trkpt lat="62.50573" lon="7.58836">
        <ele>340.60000610352</ele>
        <time>2022-07-02T19:31:21.042Z</time>
      </trkpt>
      <trkpt lat="62.50573" lon="7.58837">
        <ele>340.79998779297</ele>
        <time>2022-07-02T19:31:22.301Z</time>
      </trkpt>
      <trkpt lat="62.50576" lon="7.58834">
        <ele>342</ele>
        <time>2022-07-02T19:31:23.565Z</time>
      </trkpt>
      <trkpt lat="62.50577" lon="7.58832">
        <ele>342.20001220703</ele>
        <time>2022-07-02T19:31:24.832Z</time>
      </trkpt>
      <trkpt lat="62.50578" lon="7.58828">
        <ele>343</ele>
        <time>2022-07-02T19:31:26.103Z</time>
      </trkpt>
      <trkpt lat="62.50578" lon="7.58825">
        <ele>343.39999389648</ele>
        <time>2022-07-02T19:31:27.376Z</time>
      </trkpt>
      <trkpt lat="62.50579" lon="7.58824">
        <ele>344</ele>
        <time>2022-07-02T19:31:28.651Z</time>
      </trkpt>
      <trkpt lat="62.50581" lon="7.58825">
        <ele>345.20001220703</ele>
        <time>2022-07-02T19:31:29.930Z</time>
      </trkpt>
      <trkpt lat="62.50583" lon="7.58827">
        <ele>346</ele>
        <time>2022-07-02T19:31:31.213Z</time>
      </trkpt>
      <trkpt lat="62.50585" lon="7.58828">
        <ele>346.39999389648</ele>
        <time>2022-07-02T19:31:32.499Z</time>
      </trkpt>
      <trkpt lat="62.50587" lon="7.58824">
        <ele>347.39999389648</ele>
        <time>2022-07-02T19:31:33.790Z</time>
      </trkpt>
      <trkpt lat="62.50589" lon="7.58823">
        <ele>347.79998779297</ele>
        <time>2022-07-02T19:31:35.085Z</time>
      </trkpt>
      <trkpt lat="62.50594" lon="7.58825">
        <ele>348.60000610352</ele>
        <time>2022-07-02T19:31:36.387Z</time>
      </trkpt>
      <trkpt lat="62.50594" lon="7.58826">
        <ele>348.79998779297</ele>
        <time>2022-07-02T19:31:37.691Z</time>
      </trkpt>
      <trkpt lat="62.50596" lon="7.58824">
        <ele>349.79998779297</ele>
        <time>2022-07-02T19:31:38.997Z</time>
      </trkpt>
      <trkpt lat="62.50597" lon="7.58822">
        <ele>350</ele>
        <time>2022-07-02T19:31:40.306Z</time>
      </trkpt>
      <trkpt lat="62.50597" lon="7.5882">
        <ele>350.79998779297</ele>
        <time>2022-07-02T19:31:41.617Z</time>
      </trkpt>
      <trkpt lat="62.506" lon="7.58817">
        <ele>351.39999389648</ele>
        <time>2022-07-02T19:31:42.933Z</time>
      </trkpt>
      <trkpt lat="62.50602" lon="7.58816">
        <ele>352</ele>
        <time>2022-07-02T19:31:44.252Z</time>
      </trkpt>
      <trkpt lat="62.50604" lon="7.5882">
        <ele>353</ele>
        <time>2022-07-02T19:31:45.576Z</time>
      </trkpt>
      <trkpt lat="62.50605" lon="7.58821">
        <ele>353.20001220703</ele>
        <time>2022-07-02T19:31:46.901Z</time>
      </trkpt>
      <trkpt lat="62.50606" lon="7.58824">
        <ele>354.20001220703</ele>
        <time>2022-07-02T19:31:48.230Z</time>
      </trkpt>
      <trkpt lat="62.50606" lon="7.58828">
        <ele>354.60000610352</ele>
        <time>2022-07-02T19:31:49.562Z</time>
      </trkpt>
      <trkpt lat="62.50607" lon="7.58832">
        <ele>355.39999389648</ele>
        <time>2022-07-02T19:31:50.897Z</time>
      </trkpt>
      <trkpt lat="62.50608" lon="7.58835">
        <ele>356.20001220703</ele>
        <time>2022-07-02T19:31:52.235Z</time>
      </trkpt>
      <trkpt lat="62.50609" lon="7.58835">
        <ele>356.39999389648</ele>
        <time>2022-07-02T19:31:53.574Z</time>
      </trkpt>
      <trkpt lat="62.50611" lon="7.58832">
        <ele>357.60000610352</ele>
        <time>2022-07-02T19:31:54.918Z</time>
      </trkpt>
      <trkpt lat="62.50612" lon="7.58832">
        <ele>357.79998779297</ele>
        <time>2022-07-02T19:31:56.263Z</time>
      </trkpt>
      <trkpt lat="62.50614" lon="7.58835">
        <ele>359</ele>
        <time>2022-07-02T19:31:57.612Z</time>
      </trkpt>
      <trkpt lat="62.50615" lon="7.58834">
        <ele>359.60000610352</ele>
        <time>2022-07-02T19:31:58.963Z</time>
      </trkpt>
      <trkpt lat="62.50616" lon="7.58836">
        <ele>360</ele>
        <time>2022-07-02T19:32:00.316Z</time>
      </trkpt>
      <trkpt lat="62.50618" lon="7.58836">
        <ele>361</ele>
        <time>2022-07-02T19:32:01.674Z</time>
      </trkpt>
      <trkpt lat="62.50618" lon="7.58835">
        <ele>361.20001220703</ele>
        <time>2022-07-02T19:32:03.033Z</time>
      </trkpt>
      <trkpt lat="62.50623" lon="7.58829">
        <ele>362</ele>
        <time>2022-07-02T19:32:04.401Z</time>
      </trkpt>
      <trkpt lat="62.50625" lon="7.58827">
        <ele>362.39999389648</ele>
        <time>2022-07-02T19:32:05.772Z</time>
      </trkpt>
      <trkpt lat="62.50628" lon="7.58826">
        <ele>362.60000610352</ele>
        <time>2022-07-02T19:32:07.149Z</time>
      </trkpt>
      <trkpt lat="62.5063" lon="7.58827">
        <ele>362.79998779297</ele>
        <time>2022-07-02T19:32:08.529Z</time>
      </trkpt>
      <trkpt lat="62.50631" lon="7.58829">
        <ele>362.60000610352</ele>
        <time>2022-07-02T19:32:09.911Z</time>
      </trkpt>
      <trkpt lat="62.50632" lon="7.58832">
        <ele>362.60000610352</ele>
        <time>2022-07-02T19:32:11.297Z</time>
      </trkpt>
      <trkpt lat="62.50634" lon="7.58832">
        <ele>362.60000610352</ele>
        <time>2022-07-02T19:32:12.686Z</time>
      </trkpt>
      <trkpt lat="62.50637" lon="7.58834">
        <ele>362.79998779297</ele>
        <time>2022-07-02T19:32:14.080Z</time>
      </trkpt>
      <trkpt lat="62.50638" lon="7.58834">
        <ele>362.79998779297</ele>
        <time>2022-07-02T19:32:15.475Z</time>
      </trkpt>
      <trkpt lat="62.50636" lon="7.58831">
        <ele>362.79998779297</ele>
        <time>2022-07-02T19:32:16.873Z</time>
      </trkpt>
      <trkpt lat="62.50636" lon="7.58833">
        <ele>362.79998779297</ele>
        <time>2022-07-02T19:32:18.273Z</time>
      </trkpt>
      <trkpt lat="62.50636" lon="7.58833">
        <ele>363.39999389648</ele>
        <time>2022-07-02T19:32:19.673Z</time>
      </trkpt>
      <trkpt lat="62.50636" lon="7.58835">
        <ele>363.79998779297</ele>
        <time>2022-07-02T19:32:21.074Z</time>
      </trkpt>
      <trkpt lat="62.50636" lon="7.58836">
        <ele>364.20001220703</ele>
        <time>2022-07-02T19:32:22.477Z</time>
      </trkpt>
      <trkpt lat="62.50636" lon="7.58837">
        <ele>364.39999389648</ele>
        <time>2022-07-02T19:32:23.880Z</time>
      </trkpt>
      <trkpt lat="62.50636" lon="7.58841">
        <ele>365.20001220703</ele>
        <time>2022-07-02T19:32:25.286Z</time>
      </trkpt>
      <trkpt lat="62.50637" lon="7.58844">
        <ele>365.60000610352</ele>
        <time>2022-07-02T19:32:26.694Z</time>
      </trkpt>
      <trkpt lat="62.50641" lon="7.58846">
        <ele>366.60000610352</ele>
        <time>2022-07-02T19:32:28.110Z</time>
      </trkpt>
      <trkpt lat="62.50641" lon="7.58846">
        <ele>366.79998779297</ele>
        <time>2022-07-02T19:32:29.527Z</time>
      </trkpt>
      <trkpt lat="62.50644" lon="7.58847">
        <ele>367.20001220703</ele>
        <time>2022-07-02T19:32:30.948Z</time>
      </trkpt>
      <trkpt lat="62.50647" lon="7.58853">
        <ele>367.60000610352</ele>
        <time>2022-07-02T19:32:32.376Z</time>
      </trkpt>
      <trkpt lat="62.50648" lon="7.58855">
        <ele>368.60000610352</ele>
        <time>2022-07-02T19:32:33.807Z</time>
      </trkpt>
      <trkpt lat="62.50648" lon="7.58856">
        <ele>368.79998779297</ele>
        <time>2022-07-02T19:32:35.238Z</time>
      </trkpt>
      <trkpt lat="62.50647" lon="7.5886">
        <ele>369.39999389648</ele>
        <time>2022-07-02T19:32:36.673Z</time>
      </trkpt>
      <trkpt lat="62.50647" lon="7.58862">
        <ele>369.79998779297</ele>
        <time>2022-07-02T19:32:38.110Z</time>
      </trkpt>
      <trkpt lat="62.50647" lon="7.58862">
        <ele>370.60000610352</ele>
        <time>2022-07-02T19:32:39.547Z</time>
      </trkpt>
      <trkpt lat="62.50648" lon="7.58863">
        <ele>371</ele>
        <time>2022-07-02T19:32:40.985Z</time>
      </trkpt>
      <trkpt lat="62.50649" lon="7.58866">
        <ele>371.60000610352</ele>
        <time>2022-07-02T19:32:42.426Z</time>
      </trkpt>
      <trkpt lat="62.50648" lon="7.58867">
        <ele>372</ele>
        <time>2022-07-02T19:32:43.869Z</time>
      </trkpt>
      <trkpt lat="62.50648" lon="7.5887">
        <ele>373</ele>
        <time>2022-07-02T19:32:45.314Z</time>
      </trkpt>
      <trkpt lat="62.50649" lon="7.58871">
        <ele>373.20001220703</ele>
        <time>2022-07-02T19:32:46.760Z</time>
      </trkpt>
      <trkpt lat="62.50652" lon="7.5887">
        <ele>374.39999389648</ele>
        <time>2022-07-02T19:32:48.212Z</time>
      </trkpt>
      <trkpt lat="62.50652" lon="7.58865">
        <ele>375.39999389648</ele>
        <time>2022-07-02T19:32:49.667Z</time>
      </trkpt>
      <trkpt lat="62.50652" lon="7.58864">
        <ele>375.39999389648</ele>
        <time>2022-07-02T19:32:51.123Z</time>
      </trkpt>
      <trkpt lat="62.50654" lon="7.58866">
        <ele>376.20001220703</ele>
        <time>2022-07-02T19:32:52.582Z</time>
      </trkpt>
      <trkpt lat="62.50654" lon="7.58868">
        <ele>376.60000610352</ele>
        <time>2022-07-02T19:32:54.043Z</time>
      </trkpt>
      <trkpt lat="62.50654" lon="7.58878">
        <ele>377.79998779297</ele>
        <time>2022-07-02T19:32:55.511Z</time>
      </trkpt>
      <trkpt lat="62.50655" lon="7.58882">
        <ele>379</ele>
        <time>2022-07-02T19:32:56.983Z</time>
      </trkpt>
      <trkpt lat="62.50656" lon="7.58882">
        <ele>379.39999389648</ele>
        <time>2022-07-02T19:32:58.457Z</time>
      </trkpt>
      <trkpt lat="62.50659" lon="7.58882">
        <ele>380.20001220703</ele>
        <time>2022-07-02T19:32:59.936Z</time>
      </trkpt>
      <trkpt lat="62.50662" lon="7.58885">
        <ele>380.79998779297</ele>
        <time>2022-07-02T19:33:01.420Z</time>
      </trkpt>
      <trkpt lat="62.50664" lon="7.58889">
        <ele>381.60000610352</ele>
        <time>2022-07-02T19:33:02.909Z</time>
      </trkpt>
      <trkpt lat="62.50664" lon="7.58888">
        <ele>382</ele>
        <time>2022-07-02T19:33:04.400Z</time>
      </trkpt>
      <trkpt lat="62.50665" lon="7.58889">
        <ele>382.20001220703</ele>
        <time>2022-07-02T19:33:05.892Z</time>
      </trkpt>
      <trkpt lat="62.50665" lon="7.58894">
        <ele>382.60000610352</ele>
        <time>2022-07-02T19:33:07.388Z</time>
      </trkpt>
      <trkpt lat="62.50665" lon="7.58899">
        <ele>383.39999389648</ele>
        <time>2022-07-02T19:33:08.888Z</time>
      </trkpt>
      <trkpt lat="62.50664" lon="7.589">
        <ele>383.60000610352</ele>
        <time>2022-07-02T19:33:10.388Z</time>
      </trkpt>
      <trkpt lat="62.50665" lon="7.58907">
        <ele>385</ele>
        <time>2022-07-02T19:33:11.894Z</time>
      </trkpt>
      <trkpt lat="62.50663" lon="7.58915">
        <ele>386</ele>
        <time>2022-07-02T19:33:13.407Z</time>
      </trkpt>
      <trkpt lat="62.50664" lon="7.58918">
        <ele>387.20001220703</ele>
        <time>2022-07-02T19:33:14.923Z</time>
      </trkpt>
      <trkpt lat="62.50666" lon="7.58917">
        <ele>388</ele>
        <time>2022-07-02T19:33:16.443Z</time>
      </trkpt>
      <trkpt lat="62.50668" lon="7.58915">
        <ele>388.20001220703</ele>
        <time>2022-07-02T19:33:17.967Z</time>
      </trkpt>
      <trkpt lat="62.5067" lon="7.58916">
        <ele>389</ele>
        <time>2022-07-02T19:33:19.495Z</time>
      </trkpt>
      <trkpt lat="62.50671" lon="7.58918">
        <ele>389.39999389648</ele>
        <time>2022-07-02T19:33:21.025Z</time>
      </trkpt>
      <trkpt lat="62.50671" lon="7.58921">
        <ele>389.79998779297</ele>
        <time>2022-07-02T19:33:22.557Z</time>
      </trkpt>
      <trkpt lat="62.50671" lon="7.58923">
        <ele>390.39999389648</ele>
        <time>2022-07-02T19:33:24.091Z</time>
      </trkpt>
      <trkpt lat="62.50673" lon="7.58924">
        <ele>391.60000610352</ele>
        <time>2022-07-02T19:33:25.627Z</time>
      </trkpt>
      <trkpt lat="62.50673" lon="7.58924">
        <ele>391.60000610352</ele>
        <time>2022-07-02T19:33:27.164Z</time>
      </trkpt>
      <trkpt lat="62.50675" lon="7.58924">
        <ele>392.60000610352</ele>
        <time>2022-07-02T19:33:28.704Z</time>
      </trkpt>
      <trkpt lat="62.50674" lon="7.58928">
        <ele>392.79998779297</ele>
        <time>2022-07-02T19:33:30.246Z</time>
      </trkpt>
      <trkpt lat="62.50674" lon="7.58932">
        <ele>393.60000610352</ele>
        <time>2022-07-02T19:33:31.792Z</time>
      </trkpt>
      <trkpt lat="62.50674" lon="7.58938">
        <ele>394.39999389648</ele>
        <time>2022-07-02T19:33:33.342Z</time>
      </trkpt>
      <trkpt lat="62.50675" lon="7.58941">
        <ele>394.60000610352</ele>
        <time>2022-07-02T19:33:34.895Z</time>
      </trkpt>
      <trkpt lat="62.50675" lon="7.58945">
        <ele>395.20001220703</ele>
        <time>2022-07-02T19:33:36.452Z</time>
      </trkpt>
      <trkpt lat="62.50675" lon="7.58948">
        <ele>395.79998779297</ele>
        <time>2022-07-02T19:33:38.011Z</time>
      </trkpt>
      <trkpt lat="62.50675" lon="7.5895">
        <ele>396.20001220703</ele>
        <time>2022-07-02T19:33:39.571Z</time>
      </trkpt>
      <trkpt lat="62.50675" lon="7.58951">
        <ele>397</ele>
        <time>2022-07-02T19:33:41.132Z</time>
      </trkpt>
      <trkpt lat="62.50678" lon="7.58949">
        <ele>398</ele>
        <time>2022-07-02T19:33:42.699Z</time>
      </trkpt>
      <trkpt lat="62.50678" lon="7.58948">
        <ele>398</ele>
        <time>2022-07-02T19:33:44.266Z</time>
      </trkpt>
      <trkpt lat="62.5068" lon="7.58947">
        <ele>399.20001220703</ele>
        <time>2022-07-02T19:33:45.838Z</time>
      </trkpt>
      <trkpt lat="62.50683" lon="7.58947">
        <ele>399.39999389648</ele>
        <time>2022-07-02T19:33:47.414Z</time>
      </trkpt>
      <trkpt lat="62.50684" lon="7.58948">
        <ele>400.20001220703</ele>
        <time>2022-07-02T19:33:48.993Z</time>
      </trkpt>
      <trkpt lat="62.50687" lon="7.58947">
        <ele>401.20001220703</ele>
        <time>2022-07-02T19:33:50.576Z</time>
      </trkpt>
      <trkpt lat="62.50687" lon="7.58947">
        <ele>401.39999389648</ele>
        <time>2022-07-02T19:33:52.160Z</time>
      </trkpt>
      <trkpt lat="62.5069" lon="7.58943">
        <ele>402.60000610352</ele>
        <time>2022-07-02T19:33:53.750Z</time>
      </trkpt>
      <trkpt lat="62.50692" lon="7.58955">
        <ele>403.60000610352</ele>
        <time>2022-07-02T19:33:55.349Z</time>
      </trkpt>
      <trkpt lat="62.50691" lon="7.58958">
        <ele>404.20001220703</ele>
        <time>2022-07-02T19:33:56.951Z</time>
      </trkpt>
      <trkpt lat="62.50692" lon="7.58963">
        <ele>404.79998779297</ele>
        <time>2022-07-02T19:33:58.558Z</time>
      </trkpt>
      <trkpt lat="62.50688" lon="7.58974">
        <ele>405.60000610352</ele>
        <time>2022-07-02T19:34:00.175Z</time>
      </trkpt>
      <trkpt lat="62.50687" lon="7.58976">
        <ele>405.79998779297</ele>
        <time>2022-07-02T19:34:01.794Z</time>
      </trkpt>
      <trkpt lat="62.50686" lon="7.58984">
        <ele>406.39999389648</ele>
        <time>2022-07-02T19:34:03.420Z</time>
      </trkpt>
      <trkpt lat="62.50687" lon="7.58987">
        <ele>406.79998779297</ele>
        <time>2022-07-02T19:34:05.048Z</time>
      </trkpt>
      <trkpt lat="62.50688" lon="7.58987">
        <ele>407.39999389648</ele>
        <time>2022-07-02T19:34:06.678Z</time>
      </trkpt>
      <trkpt lat="62.5069" lon="7.5899">
        <ele>408</ele>
        <time>2022-07-02T19:34:08.311Z</time>
      </trkpt>
      <trkpt lat="62.50691" lon="7.58991">
        <ele>408.39999389648</ele>
        <time>2022-07-02T19:34:09.946Z</time>
      </trkpt>
      <trkpt lat="62.50692" lon="7.5899">
        <ele>409</ele>
        <time>2022-07-02T19:34:11.584Z</time>
      </trkpt>
      <trkpt lat="62.50696" lon="7.58989">
        <ele>410.20001220703</ele>
        <time>2022-07-02T19:34:13.228Z</time>
      </trkpt>
      <trkpt lat="62.50696" lon="7.58989">
        <ele>410.60000610352</ele>
        <time>2022-07-02T19:34:14.872Z</time>
      </trkpt>
      <trkpt lat="62.50697" lon="7.58989">
        <ele>411.20001220703</ele>
        <time>2022-07-02T19:34:16.517Z</time>
      </trkpt>
      <trkpt lat="62.50699" lon="7.58988">
        <ele>412</ele>
        <time>2022-07-02T19:34:18.166Z</time>
      </trkpt>
      <trkpt lat="62.50699" lon="7.58987">
        <ele>412.39999389648</ele>
        <time>2022-07-02T19:34:19.816Z</time>
      </trkpt>
      <trkpt lat="62.50702" lon="7.58984">
        <ele>413.20001220703</ele>
        <time>2022-07-02T19:34:21.472Z</time>
      </trkpt>
      <trkpt lat="62.50702" lon="7.58983">
        <ele>413.39999389648</ele>
        <time>2022-07-02T19:34:23.129Z</time>
      </trkpt>
      <trkpt lat="62.50702" lon="7.58983">
        <ele>413.60000610352</ele>
        <time>2022-07-02T19:34:24.786Z</time>
      </trkpt>
      <trkpt lat="62.50703" lon="7.58991">
        <ele>414.39999389648</ele>
        <time>2022-07-02T19:34:26.449Z</time>
      </trkpt>
      <trkpt lat="62.50703" lon="7.58994">
        <ele>415</ele>
        <time>2022-07-02T19:34:28.115Z</time>
      </trkpt>
      <trkpt lat="62.50703" lon="7.58995">
        <ele>415.60000610352</ele>
        <time>2022-07-02T19:34:29.782Z</time>
      </trkpt>
      <trkpt lat="62.50703" lon="7.58998">
        <ele>416.60000610352</ele>
        <time>2022-07-02T19:34:31.451Z</time>
      </trkpt>
      <trkpt lat="62.50705" lon="7.58999">
        <ele>417.20001220703</ele>
        <time>2022-07-02T19:34:33.124Z</time>
      </trkpt>
      <trkpt lat="62.50707" lon="7.59">
        <ele>417.79998779297</ele>
        <time>2022-07-02T19:34:34.800Z</time>
      </trkpt>
      <trkpt lat="62.50711" lon="7.59002">
        <ele>418.79998779297</ele>
        <time>2022-07-02T19:34:36.483Z</time>
      </trkpt>
      <trkpt lat="62.50713" lon="7.59006">
        <ele>419.60000610352</ele>
        <time>2022-07-02T19:34:38.171Z</time>
      </trkpt>
      <trkpt lat="62.50714" lon="7.59007">
        <ele>420</ele>
        <time>2022-07-02T19:34:39.861Z</time>
      </trkpt>
      <trkpt lat="62.50717" lon="7.59007">
        <ele>420.60000610352</ele>
        <time>2022-07-02T19:34:41.556Z</time>
      </trkpt>
      <trkpt lat="62.50718" lon="7.59008">
        <ele>420.79998779297</ele>
        <time>2022-07-02T19:34:43.252Z</time>
      </trkpt>
      <trkpt lat="62.50718" lon="7.59009">
        <ele>421</ele>
        <time>2022-07-02T19:34:44.949Z</time>
      </trkpt>
      <trkpt lat="62.50723" lon="7.59016">
        <ele>422</ele>
        <time>2022-07-02T19:34:46.655Z</time>
      </trkpt>
      <trkpt lat="62.50723" lon="7.59018">
        <ele>422.39999389648</ele>
        <time>2022-07-02T19:34:48.363Z</time>
      </trkpt>
      <trkpt lat="62.50722" lon="7.59026">
        <ele>423.20001220703</ele>
        <time>2022-07-02T19:34:50.077Z</time>
      </trkpt>
      <trkpt lat="62.50719" lon="7.59031">
        <ele>424.20001220703</ele>
        <time>2022-07-02T19:34:51.797Z</time>
      </trkpt>
      <trkpt lat="62.50716" lon="7.59037">
        <ele>425.39999389648</ele>
        <time>2022-07-02T19:34:53.525Z</time>
      </trkpt>
      <trkpt lat="62.50714" lon="7.59041">
        <ele>426.20001220703</ele>
        <time>2022-07-02T19:34:55.257Z</time>
      </trkpt>
      <trkpt lat="62.50714" lon="7.59043">
        <ele>426.39999389648</ele>
        <time>2022-07-02T19:34:56.990Z</time>
      </trkpt>
      <trkpt lat="62.50714" lon="7.59044">
        <ele>426.60000610352</ele>
        <time>2022-07-02T19:34:58.724Z</time>
      </trkpt>
      <trkpt lat="62.5071" lon="7.59051">
        <ele>427.60000610352</ele>
        <time>2022-07-02T19:35:00.467Z</time>
      </trkpt>
      <trkpt lat="62.50708" lon="7.59057">
        <ele>428.39999389648</ele>
        <time>2022-07-02T19:35:02.216Z</time>
      </trkpt>
      <trkpt lat="62.50708" lon="7.59059">
        <ele>428.79998779297</ele>
        <time>2022-07-02T19:35:03.967Z</time>
      </trkpt>
      <trkpt lat="62.50708" lon="7.59062">
        <ele>429.39999389648</ele>
        <time>2022-07-02T19:35:05.720Z</time>
      </trkpt>
      <trkpt lat="62.50708" lon="7.59067">
        <ele>429.79998779297</ele>
        <time>2022-07-02T19:35:07.477Z</time>
      </trkpt>
      <trkpt lat="62.50706" lon="7.59071">
        <ele>430.60000610352</ele>
        <time>2022-07-02T19:35:09.238Z</time>
      </trkpt>
      <trkpt lat="62.50707" lon="7.59071">
        <ele>431</ele>
        <time>2022-07-02T19:35:11.001Z</time>
      </trkpt>
      <trkpt lat="62.50708" lon="7.59074">
        <ele>431.79998779297</ele>
        <time>2022-07-02T19:35:12.766Z</time>
      </trkpt>
      <trkpt lat="62.50709" lon="7.59074">
        <ele>432</ele>
        <time>2022-07-02T19:35:14.532Z</time>
      </trkpt>
      <trkpt lat="62.50711" lon="7.59071">
        <ele>433.20001220703</ele>
        <time>2022-07-02T19:35:16.302Z</time>
      </trkpt>
      <trkpt lat="62.50712" lon="7.5907">
        <ele>433.39999389648</ele>
        <time>2022-07-02T19:35:18.074Z</time>
      </trkpt>
      <trkpt lat="62.50715" lon="7.59069">
        <ele>434.20001220703</ele>
        <time>2022-07-02T19:35:19.852Z</time>
      </trkpt>
      <trkpt lat="62.5072" lon="7.59069">
        <ele>435.39999389648</ele>
        <time>2022-07-02T19:35:21.638Z</time>
      </trkpt>
      <trkpt lat="62.5072" lon="7.59069">
        <ele>435.60000610352</ele>
        <time>2022-07-02T19:35:23.425Z</time>
      </trkpt>
      <trkpt lat="62.50725" lon="7.59071">
        <ele>436.60000610352</ele>
        <time>2022-07-02T19:35:25.220Z</time>
      </trkpt>
      <trkpt lat="62.50728" lon="7.59069">
        <ele>437.39999389648</ele>
        <time>2022-07-02T19:35:27.021Z</time>
      </trkpt>
      <trkpt lat="62.5073" lon="7.5907">
        <ele>437.79998779297</ele>
        <time>2022-07-02T19:35:28.824Z</time>
      </trkpt>
      <trkpt lat="62.50732" lon="7.59073">
        <ele>438.79998779297</ele>
        <time>2022-07-02T19:35:30.632Z</time>
      </trkpt>
      <trkpt lat="62.50734" lon="7.59078">
        <ele>439.79998779297</ele>
        <time>2022-07-02T19:35:32.445Z</time>
      </trkpt>
      <trkpt lat="62.50735" lon="7.59079">
        <ele>440.39999389648</ele>
        <time>2022-07-02T19:35:34.259Z</time>
      </trkpt>
      <trkpt lat="62.50736" lon="7.5908">
        <ele>441</ele>
        <time>2022-07-02T19:35:36.076Z</time>
      </trkpt>
      <trkpt lat="62.50738" lon="7.59083">
        <ele>442</ele>
        <time>2022-07-02T19:35:37.897Z</time>
      </trkpt>
      <trkpt lat="62.5074" lon="7.59087">
        <ele>442.79998779297</ele>
        <time>2022-07-02T19:35:39.723Z</time>
      </trkpt>
      <trkpt lat="62.50741" lon="7.59087">
        <ele>443.20001220703</ele>
        <time>2022-07-02T19:35:41.550Z</time>
      </trkpt>
      <trkpt lat="62.50744" lon="7.59093">
        <ele>444.39999389648</ele>
        <time>2022-07-02T19:35:43.384Z</time>
      </trkpt>
      <trkpt lat="62.50744" lon="7.59093">
        <ele>444.60000610352</ele>
        <time>2022-07-02T19:35:45.219Z</time>
      </trkpt>
      <trkpt lat="62.50747" lon="7.59097">
        <ele>445.39999389648</ele>
        <time>2022-07-02T19:35:47.059Z</time>
      </trkpt>
      <trkpt lat="62.50747" lon="7.59098">
        <ele>445.60000610352</ele>
        <time>2022-07-02T19:35:48.900Z</time>
      </trkpt>
      <trkpt lat="62.50747" lon="7.59098">
        <ele>445.60000610352</ele>
        <time>2022-07-02T19:35:50.741Z</time>
      </trkpt>
      <trkpt lat="62.50748" lon="7.59109">
        <ele>446.60000610352</ele>
        <time>2022-07-02T19:35:52.591Z</time>
      </trkpt>
      <trkpt lat="62.50748" lon="7.5911">
        <ele>446.60000610352</ele>
        <time>2022-07-02T19:35:54.442Z</time>
      </trkpt>
      <trkpt lat="62.50748" lon="7.59114">
        <ele>447.60000610352</ele>
        <time>2022-07-02T19:35:56.296Z</time>
      </trkpt>
      <trkpt lat="62.50749" lon="7.59119">
        <ele>448.79998779297</ele>
        <time>2022-07-02T19:35:58.154Z</time>
      </trkpt>
      <trkpt lat="62.5075" lon="7.59119">
        <ele>449.20001220703</ele>
        <time>2022-07-02T19:36:00.014Z</time>
      </trkpt>
      <trkpt lat="62.50752" lon="7.5912">
        <ele>450</ele>
        <time>2022-07-02T19:36:01.877Z</time>
      </trkpt>
      <trkpt lat="62.50755" lon="7.59122">
        <ele>451.20001220703</ele>
        <time>2022-07-02T19:36:03.745Z</time>
      </trkpt>
      <trkpt lat="62.50757" lon="7.59126">
        <ele>451.60000610352</ele>
        <time>2022-07-02T19:36:05.618Z</time>
      </trkpt>
      <trkpt lat="62.50759" lon="7.59127">
        <ele>452.20001220703</ele>
        <time>2022-07-02T19:36:07.494Z</time>
      </trkpt>
      <trkpt lat="62.5076" lon="7.59129">
        <ele>453.39999389648</ele>
        <time>2022-07-02T19:36:09.374Z</time>
      </trkpt>
      <trkpt lat="62.50762" lon="7.59131">
        <ele>453.60000610352</ele>
        <time>2022-07-02T19:36:11.256Z</time>
      </trkpt>
      <trkpt lat="62.50763" lon="7.5914">
        <ele>454.39999389648</ele>
        <time>2022-07-02T19:36:13.146Z</time>
      </trkpt>
      <trkpt lat="62.50765" lon="7.59142">
        <ele>455.39999389648</ele>
        <time>2022-07-02T19:36:15.039Z</time>
      </trkpt>
      <trkpt lat="62.50766" lon="7.59142">
        <ele>455.60000610352</ele>
        <time>2022-07-02T19:36:16.933Z</time>
      </trkpt>
      <trkpt lat="62.50767" lon="7.59143">
        <ele>456.20001220703</ele>
        <time>2022-07-02T19:36:18.829Z</time>
      </trkpt>
      <trkpt lat="62.50767" lon="7.59143">
        <ele>456.39999389648</ele>
        <time>2022-07-02T19:36:20.726Z</time>
      </trkpt>
      <trkpt lat="62.50769" lon="7.59143">
        <ele>456.60000610352</ele>
        <time>2022-07-02T19:36:22.625Z</time>
      </trkpt>
      <trkpt lat="62.5077" lon="7.59141">
        <ele>458</ele>
        <time>2022-07-02T19:36:24.526Z</time>
      </trkpt>
      <trkpt lat="62.50769" lon="7.59143">
        <ele>458.20001220703</ele>
        <time>2022-07-02T19:36:26.429Z</time>
      </trkpt>
      <trkpt lat="62.50769" lon="7.59148">
        <ele>459</ele>
        <time>2022-07-02T19:36:28.336Z</time>
      </trkpt>
      <trkpt lat="62.50767" lon="7.59152">
        <ele>459.39999389648</ele>
        <time>2022-07-02T19:36:30.247Z</time>
      </trkpt>
      <trkpt lat="62.50767" lon="7.59152">
        <ele>460.20001220703</ele>
        <time>2022-07-02T19:36:32.159Z</time>
      </trkpt>
      <trkpt lat="62.50769" lon="7.59154">
        <ele>461.20001220703</ele>
        <time>2022-07-02T19:36:34.075Z</time>
      </trkpt>
      <trkpt lat="62.50772" lon="7.59155">
        <ele>461.79998779297</ele>
        <time>2022-07-02T19:36:35.995Z</time>
      </trkpt>
      <trkpt lat="62.50773" lon="7.59156">
        <ele>462</ele>
        <time>2022-07-02T19:36:37.918Z</time>
      </trkpt>
      <trkpt lat="62.50773" lon="7.59158">
        <ele>462.20001220703</ele>
        <time>2022-07-02T19:36:39.842Z</time>
      </trkpt>
      <trkpt lat="62.50774" lon="7.59162">
        <ele>463</ele>
        <time>2022-07-02T19:36:41.770Z</time>
      </trkpt>
      <trkpt lat="62.50774" lon="7.59165">
        <ele>463.60000610352</ele>
        <time>2022-07-02T19:36:43.700Z</time>
      </trkpt>
      <trkpt lat="62.50775" lon="7.59166">
        <ele>464.39999389648</ele>
        <time>2022-07-02T19:36:45.632Z</time>
      </trkpt>
      <trkpt lat="62.50776" lon="7.59166">
        <ele>464.60000610352</ele>
        <time>2022-07-02T19:36:47.565Z</time>
      </trkpt>
      <trkpt lat="62.50775" lon="7.59166">
        <ele>465.20001220703</ele>
        <time>2022-07-02T19:36:49.499Z</time>
      </trkpt>
      <trkpt lat="62.50775" lon="7.59166">
        <ele>465.39999389648</ele>
        <time>2022-07-02T19:36:51.433Z</time>
      </trkpt>
      <trkpt lat="62.50776" lon="7.59166">
        <ele>465.79998779297</ele>
        <time>2022-07-02T19:36:53.368Z</time>
      </trkpt>
      <trkpt lat="62.50777" lon="7.59173">
        <ele>466.79998779297</ele>
        <time>2022-07-02T19:36:55.309Z</time>
      </trkpt>
      <trkpt lat="62.50777" lon="7.59176">
        <ele>467</ele>
        <time>2022-07-02T19:36:57.252Z</time>
      </trkpt>
      <trkpt lat="62.50776" lon="7.59181">
        <ele>468</ele>
        <time>2022-07-02T19:36:59.200Z</time>
      </trkpt>
      <trkpt lat="62.50776" lon="7.59182">
        <ele>468.20001220703</ele>
        <time>2022-07-02T19:37:01.149Z</time>
      </trkpt>
      <trkpt lat="62.50774" lon="7.59184">
        <ele>469</ele>
        <time>2022-07-02T19:37:03.102Z</time>
      </trkpt>
      <trkpt lat="62.50773" lon="7.59186">
        <ele>469.39999389648</ele>
        <time>2022-07-02T19:37:05.057Z</time>
      </trkpt>
      <trkpt lat="62.50771" lon="7.5919">
        <ele>470.20001220703</ele>
        <time>2022-07-02T19:37:07.016Z</time>
      </trkpt>
      <trkpt lat="62.50771" lon="7.59191">
        <ele>470.60000610352</ele>
        <time>2022-07-02T19:37:08.976Z</time>
      </trkpt>
      <trkpt lat="62.50772" lon="7.59193">
        <ele>471.39999389648</ele>
        <time>2022-07-02T19:37:10.938Z</time>
      </trkpt>
      <trkpt lat="62.50773" lon="7.59193">
        <ele>471.60000610352</ele>
        <time>2022-07-02T19:37:12.901Z</time>
      </trkpt>
      <trkpt lat="62.50774" lon="7.59194">
        <ele>471.79998779297</ele>
        <time>2022-07-02T19:37:14.865Z</time>
      </trkpt>
      <trkpt lat="62.50774" lon="7.59195">
        <ele>472.20001220703</ele>
        <time>2022-07-02T19:37:16.830Z</time>
      </trkpt>
      <trkpt lat="62.50775" lon="7.59196">
        <ele>472.20001220703</ele>
        <time>2022-07-02T19:37:18.797Z</time>
      </trkpt>
      <trkpt lat="62.50775" lon="7.59196">
        <ele>472.20001220703</ele>
        <time>2022-07-02T19:37:20.764Z</time>
      </trkpt>
      <trkpt lat="62.50775" lon="7.59196">
        <ele>472.20001220703</ele>
        <time>2022-07-02T19:37:22.731Z</time>
      </trkpt>
      <trkpt lat="62.50774" lon="7.59196">
        <ele>472.20001220703</ele>
        <time>2022-07-02T19:37:24.699Z</time>
      </trkpt>
      <trkpt lat="62.50774" lon="7.59196">
        <ele>472.20001220703</ele>
        <time>2022-07-02T19:37:26.667Z</time>
      </trkpt>
      <trkpt lat="62.50774" lon="7.59196">
        <ele>472.20001220703</ele>
        <time>2022-07-02T19:37:28.635Z</time>
      </trkpt>
      <trkpt lat="62.50774" lon="7.59196">
        <ele>472.79998779297</ele>
        <time>2022-07-02T19:37:30.603Z</time>
      </trkpt>
      <trkpt lat="62.50774" lon="7.59196">
        <ele>473.79998779297</ele>
        <time>2022-07-02T19:37:32.571Z</time>
      </trkpt>
      <trkpt lat="62.50774" lon="7.59196">
        <ele>475.20001220703</ele>
        <time>2022-07-02T19:37:34.540Z</time>
      </trkpt>
      <trkpt lat="62.50775" lon="7.592">
        <ele>476.20001220703</ele>
        <time>2022-07-02T19:37:36.513Z</time>
      </trkpt>
      <trkpt lat="62.50776" lon="7.59204">
        <ele>476.60000610352</ele>
        <time>2022-07-02T19:37:38.490Z</time>
      </trkpt>
      <trkpt lat="62.50777" lon="7.59207">
        <ele>477.39999389648</ele>
        <time>2022-07-02T19:37:40.470Z</time>
      </trkpt>
      <trkpt lat="62.50778" lon="7.5921">
        <ele>477.60000610352</ele>
        <time>2022-07-02T19:37:42.452Z</time>
      </trkpt>
      <trkpt lat="62.50779" lon="7.59217">
        <ele>478.39999389648</ele>
        <time>2022-07-02T19:37:44.440Z</time>
      </trkpt>
      <trkpt lat="62.5078" lon="7.59219">
        <ele>478.79998779297</ele>
        <time>2022-07-02T19:37:46.430Z</time>
      </trkpt>
      <trkpt lat="62.50781" lon="7.59219">
        <ele>479.60000610352</ele>
        <time>2022-07-02T19:37:48.423Z</time>
      </trkpt>
      <trkpt lat="62.50783" lon="7.59223">
        <ele>480.39999389648</ele>
        <time>2022-07-02T19:37:50.420Z</time>
      </trkpt>
      <trkpt lat="62.50783" lon="7.59226">
        <ele>480.60000610352</ele>
        <time>2022-07-02T19:37:52.420Z</time>
      </trkpt>
      <trkpt lat="62.50782" lon="7.5923">
        <ele>481.20001220703</ele>
        <time>2022-07-02T19:37:54.423Z</time>
      </trkpt>
      <trkpt lat="62.50781" lon="7.59232">
        <ele>481.60000610352</ele>
        <time>2022-07-02T19:37:56.428Z</time>
      </trkpt>
      <trkpt lat="62.50781" lon="7.59232">
        <ele>481.79998779297</ele>
        <time>2022-07-02T19:37:58.434Z</time>
      </trkpt>
      <trkpt lat="62.50779" lon="7.59232">
        <ele>482.79998779297</ele>
        <time>2022-07-02T19:38:00.444Z</time>
      </trkpt>
      <trkpt lat="62.50777" lon="7.59232">
        <ele>483.20001220703</ele>
        <time>2022-07-02T19:38:02.456Z</time>
      </trkpt>
      <trkpt lat="62.50776" lon="7.59236">
        <ele>484</ele>
        <time>2022-07-02T19:38:04.472Z</time>
      </trkpt>
      <trkpt lat="62.50776" lon="7.5924">
        <ele>484.39999389648</ele>
        <time>2022-07-02T19:38:06.491Z</time>
      </trkpt>
      <trkpt lat="62.50775" lon="7.59243">
        <ele>485</ele>
        <time>2022-07-02T19:38:08.513Z</time>
      </trkpt>
      <trkpt lat="62.50774" lon="7.59249">
        <ele>486.20001220703</ele>
        <time>2022-07-02T19:38:10.540Z</time>
      </trkpt>
      <trkpt lat="62.50773" lon="7.5925">
        <ele>486.60000610352</ele>
        <time>2022-07-02T19:38:12.569Z</time>
      </trkpt>
      <trkpt lat="62.50771" lon="7.59253">
        <ele>487.20001220703</ele>
        <time>2022-07-02T19:38:14.602Z</time>
      </trkpt>
      <trkpt lat="62.50771" lon="7.59254">
        <ele>487.20001220703</ele>
        <time>2022-07-02T19:38:16.636Z</time>
      </trkpt>
      <trkpt lat="62.50769" lon="7.59252">
        <ele>487.60000610352</ele>
        <time>2022-07-02T19:38:18.673Z</time>
      </trkpt>
      <trkpt lat="62.50767" lon="7.5925">
        <ele>488.39999389648</ele>
        <time>2022-07-02T19:38:20.714Z</time>
      </trkpt>
      <trkpt lat="62.50765" lon="7.59247">
        <ele>488.39999389648</ele>
        <time>2022-07-02T19:38:22.760Z</time>
      </trkpt>
      <trkpt lat="62.50759" lon="7.59243">
        <ele>487.79998779297</ele>
        <time>2022-07-02T19:38:24.815Z</time>
      </trkpt>
      <trkpt lat="62.50759" lon="7.59243">
        <ele>487.79998779297</ele>
        <time>2022-07-02T19:38:26.871Z</time>
      </trkpt>
      <trkpt lat="62.50754" lon="7.5924">
        <ele>487.79998779297</ele>
        <time>2022-07-02T19:38:28.936Z</time>
      </trkpt>
      <trkpt lat="62.50752" lon="7.59239">
        <ele>487.60000610352</ele>
        <time>2022-07-02T19:38:31.004Z</time>
      </trkpt>
      <trkpt lat="62.5075" lon="7.59238">
        <ele>487.60000610352</ele>
        <time>2022-07-02T19:38:33.076Z</time>
      </trkpt>
      <trkpt lat="62.50747" lon="7.59239">
        <ele>487.79998779297</ele>
        <time>2022-07-02T19:38:35.152Z</time>
      </trkpt>
      <trkpt lat="62.50747" lon="7.59238">
        <ele>488</ele>
        <time>2022-07-02T19:38:37.230Z</time>
      </trkpt>
      <trkpt lat="62.50742" lon="7.59231">
        <ele>488.60000610352</ele>
        <time>2022-07-02T19:38:39.318Z</time>
      </trkpt>
      <trkpt lat="62.50738" lon="7.59229">
        <ele>488.60000610352</ele>
        <time>2022-07-02T19:38:41.412Z</time>
      </trkpt>
      <trkpt lat="62.50734" lon="7.59227">
        <ele>488.79998779297</ele>
        <time>2022-07-02T19:38:43.513Z</time>
      </trkpt>
      <trkpt lat="62.50731" lon="7.59227">
        <ele>489.20001220703</ele>
        <time>2022-07-02T19:38:45.620Z</time>
      </trkpt>
      <trkpt lat="62.50731" lon="7.59227">
        <ele>489.39999389648</ele>
        <time>2022-07-02T19:38:47.728Z</time>
      </trkpt>
      <trkpt lat="62.50726" lon="7.59228">
        <ele>490.39999389648</ele>
        <time>2022-07-02T19:38:49.844Z</time>
      </trkpt>
      <trkpt lat="62.50725" lon="7.59228">
        <ele>490.60000610352</ele>
        <time>2022-07-02T19:38:51.961Z</time>
      </trkpt>
      <trkpt lat="62.50722" lon="7.59233">
        <ele>491.60000610352</ele>
        <time>2022-07-02T19:38:54.084Z</time>
      </trkpt>
      <trkpt lat="62.50722" lon="7.59235">
        <ele>491.79998779297</ele>
        <time>2022-07-02T19:38:56.209Z</time>
      </trkpt>
      <trkpt lat="62.50721" lon="7.59245">
        <ele>492.60000610352</ele>
        <time>2022-07-02T19:38:58.342Z</time>
      </trkpt>
      <trkpt lat="62.50721" lon="7.59249">
        <ele>493</ele>
        <time>2022-07-02T19:39:00.478Z</time>
      </trkpt>
      <trkpt lat="62.50722" lon="7.59254">
        <ele>493.79998779297</ele>
        <time>2022-07-02T19:39:02.618Z</time>
      </trkpt>
      <trkpt lat="62.50722" lon="7.59258">
        <ele>494.20001220703</ele>
        <time>2022-07-02T19:39:04.761Z</time>
      </trkpt>
      <trkpt lat="62.50722" lon="7.5926">
        <ele>494.39999389648</ele>
        <time>2022-07-02T19:39:06.906Z</time>
      </trkpt>
      <trkpt lat="62.50721" lon="7.59264">
        <ele>495</ele>
        <time>2022-07-02T19:39:09.055Z</time>
      </trkpt>
      <trkpt lat="62.50721" lon="7.59266">
        <ele>495.20001220703</ele>
        <time>2022-07-02T19:39:11.206Z</time>
      </trkpt>
      <trkpt lat="62.50723" lon="7.5927">
        <ele>496.20001220703</ele>
        <time>2022-07-02T19:39:13.361Z</time>
      </trkpt>
      <trkpt lat="62.50724" lon="7.59271">
        <ele>496.79998779297</ele>
        <time>2022-07-02T19:39:15.519Z</time>
      </trkpt>
      <trkpt lat="62.50726" lon="7.59274">
        <ele>497.20001220703</ele>
        <time>2022-07-02T19:39:17.680Z</time>
      </trkpt>
      <trkpt lat="62.50729" lon="7.59277">
        <ele>498.20001220703</ele>
        <time>2022-07-02T19:39:19.847Z</time>
      </trkpt>
      <trkpt lat="62.50733" lon="7.5928">
        <ele>499.39999389648</ele>
        <time>2022-07-02T19:39:22.022Z</time>
      </trkpt>
      <trkpt lat="62.50735" lon="7.59283">
        <ele>499.60000610352</ele>
        <time>2022-07-02T19:39:24.200Z</time>
      </trkpt>
      <trkpt lat="62.50735" lon="7.59287">
        <ele>500.39999389648</ele>
        <time>2022-07-02T19:39:26.381Z</time>
      </trkpt>
      <trkpt lat="62.50736" lon="7.59287">
        <ele>501</ele>
        <time>2022-07-02T19:39:28.563Z</time>
      </trkpt>
      <trkpt lat="62.50737" lon="7.59289">
        <ele>501.60000610352</ele>
        <time>2022-07-02T19:39:30.748Z</time>
      </trkpt>
      <trkpt lat="62.5074" lon="7.59295">
        <ele>502.60000610352</ele>
        <time>2022-07-02T19:39:32.940Z</time>
      </trkpt>
      <trkpt lat="62.5074" lon="7.59296">
        <ele>502.60000610352</ele>
        <time>2022-07-02T19:39:35.133Z</time>
      </trkpt>
      <trkpt lat="62.50742" lon="7.59302">
        <ele>503.60000610352</ele>
        <time>2022-07-02T19:39:37.332Z</time>
      </trkpt>
      <trkpt lat="62.50743" lon="7.59303">
        <ele>503.79998779297</ele>
        <time>2022-07-02T19:39:39.532Z</time>
      </trkpt>
      <trkpt lat="62.50745" lon="7.59309">
        <ele>504.79998779297</ele>
        <time>2022-07-02T19:39:41.738Z</time>
      </trkpt>
      <trkpt lat="62.50748" lon="7.59314">
        <ele>506</ele>
        <time>2022-07-02T19:39:43.951Z</time>
      </trkpt>
      <trkpt lat="62.50749" lon="7.59316">
        <ele>506.39999389648</ele>
        <time>2022-07-02T19:39:46.166Z</time>
      </trkpt>
      <trkpt lat="62.50753" lon="7.59319">
        <ele>507</ele>
        <time>2022-07-02T19:39:48.388Z</time>
      </trkpt>
      <trkpt lat="62.50754" lon="7.59325">
        <ele>507.39999389648</ele>
        <time>2022-07-02T19:39:50.615Z</time>
      </trkpt>
      <trkpt lat="62.50755" lon="7.59332">
        <ele>508.20001220703</ele>
        <time>2022-07-02T19:39:52.848Z</time>
      </trkpt>
      <trkpt lat="62.50756" lon="7.5934">
        <ele>508.79998779297</ele>
        <time>2022-07-02T19:39:55.087Z</time>
      </trkpt>
      <trkpt lat="62.50756" lon="7.59347">
        <ele>509.20001220703</ele>
        <time>2022-07-02T19:39:57.332Z</time>
      </trkpt>
      <trkpt lat="62.50757" lon="7.5935">
        <ele>509.79998779297</ele>
        <time>2022-07-02T19:39:59.580Z</time>
      </trkpt>
      <trkpt lat="62.50757" lon="7.5935">
        <ele>510</ele>
        <time>2022-07-02T19:40:01.828Z</time>
      </trkpt>
      <trkpt lat="62.50758" lon="7.59351">
        <ele>510.20001220703</ele>
        <time>2022-07-02T19:40:04.077Z</time>
      </trkpt>
      <trkpt lat="62.5076" lon="7.59355">
        <ele>511.39999389648</ele>
        <time>2022-07-02T19:40:06.331Z</time>
      </trkpt>
      <trkpt lat="62.50762" lon="7.5936">
        <ele>512.40002441406</ele>
        <time>2022-07-02T19:40:08.590Z</time>
      </trkpt>
      <trkpt lat="62.50762" lon="7.59365">
        <ele>513</ele>
        <time>2022-07-02T19:40:10.853Z</time>
      </trkpt>
      <trkpt lat="62.50762" lon="7.5937">
        <ele>513.59997558594</ele>
        <time>2022-07-02T19:40:13.120Z</time>
      </trkpt>
      <trkpt lat="62.50763" lon="7.59373">
        <ele>514.40002441406</ele>
        <time>2022-07-02T19:40:15.390Z</time>
      </trkpt>
      <trkpt lat="62.50764" lon="7.59373">
        <ele>514.79998779297</ele>
        <time>2022-07-02T19:40:17.663Z</time>
      </trkpt>
      <trkpt lat="62.50765" lon="7.59373">
        <ele>515.59997558594</ele>
        <time>2022-07-02T19:40:19.938Z</time>
      </trkpt>
      <trkpt lat="62.50766" lon="7.59372">
        <ele>516</ele>
        <time>2022-07-02T19:40:22.214Z</time>
      </trkpt>
      <trkpt lat="62.5077" lon="7.59375">
        <ele>516.59997558594</ele>
        <time>2022-07-02T19:40:24.498Z</time>
      </trkpt>
      <trkpt lat="62.50771" lon="7.5938">
        <ele>517</ele>
        <time>2022-07-02T19:40:26.786Z</time>
      </trkpt>
      <trkpt lat="62.50772" lon="7.59386">
        <ele>517.59997558594</ele>
        <time>2022-07-02T19:40:29.080Z</time>
      </trkpt>
      <trkpt lat="62.50771" lon="7.59389">
        <ele>518</ele>
        <time>2022-07-02T19:40:31.376Z</time>
      </trkpt>
      <trkpt lat="62.5077" lon="7.59393">
        <ele>519.20001220703</ele>
        <time>2022-07-02T19:40:33.676Z</time>
      </trkpt>
      <trkpt lat="62.50772" lon="7.59394">
        <ele>520.20001220703</ele>
        <time>2022-07-02T19:40:35.980Z</time>
      </trkpt>
      <trkpt lat="62.50774" lon="7.59393">
        <ele>521.20001220703</ele>
        <time>2022-07-02T19:40:38.287Z</time>
      </trkpt>
      <trkpt lat="62.50776" lon="7.59393">
        <ele>521.59997558594</ele>
        <time>2022-07-02T19:40:40.599Z</time>
      </trkpt>
      <trkpt lat="62.50779" lon="7.59393">
        <ele>522.40002441406</ele>
        <time>2022-07-02T19:40:42.916Z</time>
      </trkpt>
      <trkpt lat="62.50781" lon="7.59396">
        <ele>522.79998779297</ele>
        <time>2022-07-02T19:40:45.237Z</time>
      </trkpt>
      <trkpt lat="62.50781" lon="7.59397">
        <ele>522.79998779297</ele>
        <time>2022-07-02T19:40:47.559Z</time>
      </trkpt>
      <trkpt lat="62.50783" lon="7.59401">
        <ele>523.59997558594</ele>
        <time>2022-07-02T19:40:49.885Z</time>
      </trkpt>
      <trkpt lat="62.50785" lon="7.59406">
        <ele>524.59997558594</ele>
        <time>2022-07-02T19:40:52.216Z</time>
      </trkpt>
      <trkpt lat="62.50785" lon="7.59407">
        <ele>525</ele>
        <time>2022-07-02T19:40:54.548Z</time>
      </trkpt>
      <trkpt lat="62.50787" lon="7.59407">
        <ele>525.79998779297</ele>
        <time>2022-07-02T19:40:56.883Z</time>
      </trkpt>
      <trkpt lat="62.50789" lon="7.59411">
        <ele>526.59997558594</ele>
        <time>2022-07-02T19:40:59.222Z</time>
      </trkpt>
      <trkpt lat="62.50789" lon="7.59412">
        <ele>526.79998779297</ele>
        <time>2022-07-02T19:41:01.562Z</time>
      </trkpt>
      <trkpt lat="62.50791" lon="7.59414">
        <ele>527.79998779297</ele>
        <time>2022-07-02T19:41:03.906Z</time>
      </trkpt>
      <trkpt lat="62.50792" lon="7.59417">
        <ele>528.20001220703</ele>
        <time>2022-07-02T19:41:06.253Z</time>
      </trkpt>
      <trkpt lat="62.50794" lon="7.59421">
        <ele>529</ele>
        <time>2022-07-02T19:41:08.605Z</time>
      </trkpt>
      <trkpt lat="62.50796" lon="7.59426">
        <ele>529.79998779297</ele>
        <time>2022-07-02T19:41:10.962Z</time>
      </trkpt>
      <trkpt lat="62.50796" lon="7.5943">
        <ele>530</ele>
        <time>2022-07-02T19:41:13.322Z</time>
      </trkpt>
      <trkpt lat="62.508" lon="7.59433">
        <ele>531.20001220703</ele>
        <time>2022-07-02T19:41:15.689Z</time>
      </trkpt>
      <trkpt lat="62.50801" lon="7.59434">
        <ele>531.59997558594</ele>
        <time>2022-07-02T19:41:18.059Z</time>
      </trkpt>
      <trkpt lat="62.50803" lon="7.59439">
        <ele>532.40002441406</ele>
        <time>2022-07-02T19:41:20.434Z</time>
      </trkpt>
      <trkpt lat="62.50804" lon="7.59443">
        <ele>532.59997558594</ele>
        <time>2022-07-02T19:41:22.812Z</time>
      </trkpt>
      <trkpt lat="62.50805" lon="7.59449">
        <ele>533.59997558594</ele>
        <time>2022-07-02T19:41:25.195Z</time>
      </trkpt>
      <trkpt lat="62.50806" lon="7.59454">
        <ele>534.40002441406</ele>
        <time>2022-07-02T19:41:27.583Z</time>
      </trkpt>
      <trkpt lat="62.50806" lon="7.59454">
        <ele>534.59997558594</ele>
        <time>2022-07-02T19:41:29.971Z</time>
      </trkpt>
      <trkpt lat="62.50809" lon="7.59461">
        <ele>535.59997558594</ele>
        <time>2022-07-02T19:41:32.366Z</time>
      </trkpt>
      <trkpt lat="62.50809" lon="7.59461">
        <ele>535.79998779297</ele>
        <time>2022-07-02T19:41:34.762Z</time>
      </trkpt>
      <trkpt lat="62.5081" lon="7.59462">
        <ele>536</ele>
        <time>2022-07-02T19:41:37.159Z</time>
      </trkpt>
      <trkpt lat="62.50811" lon="7.59467">
        <ele>536.79998779297</ele>
        <time>2022-07-02T19:41:39.560Z</time>
      </trkpt>
      <trkpt lat="62.50814" lon="7.59471">
        <ele>537.59997558594</ele>
        <time>2022-07-02T19:41:41.966Z</time>
      </trkpt>
      <trkpt lat="62.50814" lon="7.59472">
        <ele>538</ele>
        <time>2022-07-02T19:41:44.374Z</time>
      </trkpt>
      <trkpt lat="62.50816" lon="7.59477">
        <ele>538.59997558594</ele>
        <time>2022-07-02T19:41:46.787Z</time>
      </trkpt>
      <trkpt lat="62.50817" lon="7.5948">
        <ele>539</ele>
        <time>2022-07-02T19:41:49.203Z</time>
      </trkpt>
      <trkpt lat="62.50818" lon="7.59485">
        <ele>539.79998779297</ele>
        <time>2022-07-02T19:41:51.623Z</time>
      </trkpt>
      <trkpt lat="62.50819" lon="7.59489">
        <ele>540.40002441406</ele>
        <time>2022-07-02T19:41:54.046Z</time>
      </trkpt>
      <trkpt lat="62.50819" lon="7.59494">
        <ele>541.20001220703</ele>
        <time>2022-07-02T19:41:56.474Z</time>
      </trkpt>
      <trkpt lat="62.5082" lon="7.59496">
        <ele>541.40002441406</ele>
        <time>2022-07-02T19:41:58.904Z</time>
      </trkpt>
      <trkpt lat="62.50822" lon="7.59504">
        <ele>542.40002441406</ele>
        <time>2022-07-02T19:42:01.341Z</time>
      </trkpt>
      <trkpt lat="62.50822" lon="7.59505">
        <ele>542.59997558594</ele>
        <time>2022-07-02T19:42:03.779Z</time>
      </trkpt>
      <trkpt lat="62.50823" lon="7.59509">
        <ele>543.59997558594</ele>
        <time>2022-07-02T19:42:06.221Z</time>
      </trkpt>
      <trkpt lat="62.50826" lon="7.59518">
        <ele>544.79998779297</ele>
        <time>2022-07-02T19:42:08.671Z</time>
      </trkpt>
      <trkpt lat="62.50826" lon="7.59529">
        <ele>546</ele>
        <time>2022-07-02T19:42:11.130Z</time>
      </trkpt>
      <trkpt lat="62.50829" lon="7.59535">
        <ele>547</ele>
        <time>2022-07-02T19:42:13.595Z</time>
      </trkpt>
      <trkpt lat="62.50829" lon="7.59537">
        <ele>547.20001220703</ele>
        <time>2022-07-02T19:42:16.062Z</time>
      </trkpt>
      <trkpt lat="62.50829" lon="7.59541">
        <ele>548.20001220703</ele>
        <time>2022-07-02T19:42:18.532Z</time>
      </trkpt>
      <trkpt lat="62.50829" lon="7.59545">
        <ele>548.79998779297</ele>
        <time>2022-07-02T19:42:21.005Z</time>
      </trkpt>
      <trkpt lat="62.50829" lon="7.59547">
        <ele>549.20001220703</ele>
        <time>2022-07-02T19:42:23.480Z</time>
      </trkpt>
      <trkpt lat="62.50831" lon="7.5955">
        <ele>550.40002441406</ele>
        <time>2022-07-02T19:42:25.959Z</time>
      </trkpt>
      <trkpt lat="62.50831" lon="7.59556">
        <ele>551.40002441406</ele>
        <time>2022-07-02T19:42:28.443Z</time>
      </trkpt>
      <trkpt lat="62.50831" lon="7.59556">
        <ele>551.59997558594</ele>
        <time>2022-07-02T19:42:30.927Z</time>
      </trkpt>
      <trkpt lat="62.50832" lon="7.5956">
        <ele>552.40002441406</ele>
        <time>2022-07-02T19:42:33.414Z</time>
      </trkpt>
      <trkpt lat="62.50832" lon="7.5956">
        <ele>552.59997558594</ele>
        <time>2022-07-02T19:42:35.901Z</time>
      </trkpt>
      <trkpt lat="62.50834" lon="7.59562">
        <ele>553.79998779297</ele>
        <time>2022-07-02T19:42:38.393Z</time>
      </trkpt>
      <trkpt lat="62.50835" lon="7.59562">
        <ele>554.20001220703</ele>
        <time>2022-07-02T19:42:40.886Z</time>
      </trkpt>
      <trkpt lat="62.50837" lon="7.59562">
        <ele>555</ele>
        <time>2022-07-02T19:42:43.382Z</time>
      </trkpt>
      <trkpt lat="62.5084" lon="7.59564">
        <ele>556</ele>
        <time>2022-07-02T19:42:45.883Z</time>
      </trkpt>
      <trkpt lat="62.50842" lon="7.59567">
        <ele>557</ele>
        <time>2022-07-02T19:42:48.388Z</time>
      </trkpt>
      <trkpt lat="62.50842" lon="7.59567">
        <ele>557.79998779297</ele>
        <time>2022-07-02T19:42:50.893Z</time>
      </trkpt>
      <trkpt lat="62.50843" lon="7.59569">
        <ele>558.20001220703</ele>
        <time>2022-07-02T19:42:53.400Z</time>
      </trkpt>
      <trkpt lat="62.50843" lon="7.5957">
        <ele>558.59997558594</ele>
        <time>2022-07-02T19:42:55.908Z</time>
      </trkpt>
      <trkpt lat="62.50844" lon="7.59574">
        <ele>559.20001220703</ele>
        <time>2022-07-02T19:42:58.420Z</time>
      </trkpt>
      <trkpt lat="62.50844" lon="7.59583">
        <ele>560.20001220703</ele>
        <time>2022-07-02T19:43:00.939Z</time>
      </trkpt>
      <trkpt lat="62.50844" lon="7.59585">
        <ele>560.40002441406</ele>
        <time>2022-07-02T19:43:03.460Z</time>
      </trkpt>
      <trkpt lat="62.50845" lon="7.5959">
        <ele>561.20001220703</ele>
        <time>2022-07-02T19:43:05.985Z</time>
      </trkpt>
      <trkpt lat="62.50845" lon="7.59591">
        <ele>561.40002441406</ele>
        <time>2022-07-02T19:43:08.510Z</time>
      </trkpt>
      <trkpt lat="62.50845" lon="7.59592">
        <ele>561.59997558594</ele>
        <time>2022-07-02T19:43:11.037Z</time>
      </trkpt>
      <trkpt lat="62.50846" lon="7.59595">
        <ele>562.59997558594</ele>
        <time>2022-07-02T19:43:13.566Z</time>
      </trkpt>
      <trkpt lat="62.50846" lon="7.59598">
        <ele>563</ele>
        <time>2022-07-02T19:43:16.097Z</time>
      </trkpt>
      <trkpt lat="62.50847" lon="7.596">
        <ele>563.40002441406</ele>
        <time>2022-07-02T19:43:18.631Z</time>
      </trkpt>
      <trkpt lat="62.50847" lon="7.59602">
        <ele>563.79998779297</ele>
        <time>2022-07-02T19:43:21.167Z</time>
      </trkpt>
      <trkpt lat="62.50847" lon="7.59606">
        <ele>564.59997558594</ele>
        <time>2022-07-02T19:43:23.705Z</time>
      </trkpt>
      <trkpt lat="62.50847" lon="7.59608">
        <ele>564.79998779297</ele>
        <time>2022-07-02T19:43:26.245Z</time>
      </trkpt>
      <trkpt lat="62.50849" lon="7.59609">
        <ele>565.40002441406</ele>
        <time>2022-07-02T19:43:28.788Z</time>
      </trkpt>
      <trkpt lat="62.50849" lon="7.5961">
        <ele>565.79998779297</ele>
        <time>2022-07-02T19:43:31.332Z</time>
      </trkpt>
      <trkpt lat="62.5085" lon="7.59617">
        <ele>567</ele>
        <time>2022-07-02T19:43:33.882Z</time>
      </trkpt>
      <trkpt lat="62.5085" lon="7.5962">
        <ele>567.59997558594</ele>
        <time>2022-07-02T19:43:36.434Z</time>
      </trkpt>
      <trkpt lat="62.50851" lon="7.59624">
        <ele>568</ele>
        <time>2022-07-02T19:43:38.989Z</time>
      </trkpt>
      <trkpt lat="62.50852" lon="7.59627">
        <ele>569</ele>
        <time>2022-07-02T19:43:41.548Z</time>
      </trkpt>
      <trkpt lat="62.50853" lon="7.5963">
        <ele>569.79998779297</ele>
        <time>2022-07-02T19:43:44.110Z</time>
      </trkpt>
      <trkpt lat="62.50855" lon="7.59631">
        <ele>570.20001220703</ele>
        <time>2022-07-02T19:43:46.675Z</time>
      </trkpt>
      <trkpt lat="62.50857" lon="7.59631">
        <ele>571.20001220703</ele>
        <time>2022-07-02T19:43:49.245Z</time>
      </trkpt>
      <trkpt lat="62.50858" lon="7.59632">
        <ele>571.40002441406</ele>
        <time>2022-07-02T19:43:51.816Z</time>
      </trkpt>
      <trkpt lat="62.5086" lon="7.59638">
        <ele>572.40002441406</ele>
        <time>2022-07-02T19:43:54.394Z</time>
      </trkpt>
      <trkpt lat="62.5086" lon="7.59649">
        <ele>573.40002441406</ele>
        <time>2022-07-02T19:43:56.980Z</time>
      </trkpt>
      <trkpt lat="62.5086" lon="7.59653">
        <ele>574</ele>
        <time>2022-07-02T19:43:59.569Z</time>
      </trkpt>
      <trkpt lat="62.5086" lon="7.59658">
        <ele>574.59997558594</ele>
        <time>2022-07-02T19:44:02.162Z</time>
      </trkpt>
      <trkpt lat="62.50861" lon="7.5966">
        <ele>575</ele>
        <time>2022-07-02T19:44:04.757Z</time>
      </trkpt>
      <trkpt lat="62.50862" lon="7.59666">
        <ele>575.59997558594</ele>
        <time>2022-07-02T19:44:07.358Z</time>
      </trkpt>
      <trkpt lat="62.50863" lon="7.5967">
        <ele>576.20001220703</ele>
        <time>2022-07-02T19:44:09.962Z</time>
      </trkpt>
      <trkpt lat="62.50863" lon="7.59671">
        <ele>576.79998779297</ele>
        <time>2022-07-02T19:44:12.568Z</time>
      </trkpt>
      <trkpt lat="62.50864" lon="7.59677">
        <ele>577.79998779297</ele>
        <time>2022-07-02T19:44:15.178Z</time>
      </trkpt>
      <trkpt lat="62.50865" lon="7.59682">
        <ele>578.79998779297</ele>
        <time>2022-07-02T19:44:17.793Z</time>
      </trkpt>
      <trkpt lat="62.50867" lon="7.59684">
        <ele>580</ele>
        <time>2022-07-02T19:44:20.412Z</time>
      </trkpt>
      <trkpt lat="62.50869" lon="7.59688">
        <ele>581</ele>
        <time>2022-07-02T19:44:23.035Z</time>
      </trkpt>
      <trkpt lat="62.5087" lon="7.59696">
        <ele>582</ele>
        <time>2022-07-02T19:44:25.664Z</time>
      </trkpt>
      <trkpt lat="62.5087" lon="7.597">
        <ele>583</ele>
        <time>2022-07-02T19:44:28.297Z</time>
      </trkpt>
      <trkpt lat="62.50871" lon="7.59701">
        <ele>583.20001220703</ele>
        <time>2022-07-02T19:44:30.931Z</time>
      </trkpt>
      <trkpt lat="62.50872" lon="7.59705">
        <ele>584.40002441406</ele>
        <time>2022-07-02T19:44:33.569Z</time>
      </trkpt>
      <trkpt lat="62.50871" lon="7.59707">
        <ele>584.79998779297</ele>
        <time>2022-07-02T19:44:36.208Z</time>
      </trkpt>
      <trkpt lat="62.50872" lon="7.59712">
        <ele>585.40002441406</ele>
        <time>2022-07-02T19:44:38.851Z</time>
      </trkpt>
      <trkpt lat="62.50873" lon="7.59717">
        <ele>586.59997558594</ele>
        <time>2022-07-02T19:44:41.499Z</time>
      </trkpt>
      <trkpt lat="62.50877" lon="7.59717">
        <ele>587.59997558594</ele>
        <time>2022-07-02T19:44:44.153Z</time>
      </trkpt>
      <trkpt lat="62.50877" lon="7.59718">
        <ele>587.79998779297</ele>
        <time>2022-07-02T19:44:46.808Z</time>
      </trkpt>
      <trkpt lat="62.50877" lon="7.59723">
        <ele>589</ele>
        <time>2022-07-02T19:44:49.467Z</time>
      </trkpt>
      <trkpt lat="62.50877" lon="7.59725">
        <ele>589.40002441406</ele>
        <time>2022-07-02T19:44:52.128Z</time>
      </trkpt>
      <trkpt lat="62.50877" lon="7.59726">
        <ele>590</ele>
        <time>2022-07-02T19:44:54.790Z</time>
      </trkpt>
      <trkpt lat="62.50878" lon="7.59734">
        <ele>591</ele>
        <time>2022-07-02T19:44:57.458Z</time>
      </trkpt>
      <trkpt lat="62.50878" lon="7.59735">
        <ele>591.20001220703</ele>
        <time>2022-07-02T19:45:00.127Z</time>
      </trkpt>
      <trkpt lat="62.50879" lon="7.59743">
        <ele>592.20001220703</ele>
        <time>2022-07-02T19:45:02.802Z</time>
      </trkpt>
      <trkpt lat="62.50879" lon="7.59744">
        <ele>592.40002441406</ele>
        <time>2022-07-02T19:45:05.478Z</time>
      </trkpt>
      <trkpt lat="62.5088" lon="7.59745">
        <ele>593.40002441406</ele>
        <time>2022-07-02T19:45:08.157Z</time>
      </trkpt>
      <trkpt lat="62.50882" lon="7.59743">
        <ele>594</ele>
        <time>2022-07-02T19:45:10.838Z</time>
      </trkpt>
      <trkpt lat="62.50882" lon="7.59741">
        <ele>594.59997558594</ele>
        <time>2022-07-02T19:45:13.522Z</time>
      </trkpt>
      <trkpt lat="62.50885" lon="7.59737">
        <ele>595.40002441406</ele>
        <time>2022-07-02T19:45:16.211Z</time>
      </trkpt>
      <trkpt lat="62.50886" lon="7.59737">
        <ele>595.59997558594</ele>
        <time>2022-07-02T19:45:18.902Z</time>
      </trkpt>
      <trkpt lat="62.50888" lon="7.59737">
        <ele>596.59997558594</ele>
        <time>2022-07-02T19:45:21.596Z</time>
      </trkpt>
      <trkpt lat="62.50888" lon="7.59737">
        <ele>596.79998779297</ele>
        <time>2022-07-02T19:45:24.291Z</time>
      </trkpt>
      <trkpt lat="62.50891" lon="7.59738">
        <ele>598</ele>
        <time>2022-07-02T19:45:26.990Z</time>
      </trkpt>
      <trkpt lat="62.50892" lon="7.59736">
        <ele>598.40002441406</ele>
        <time>2022-07-02T19:45:29.692Z</time>
      </trkpt>
      <trkpt lat="62.50894" lon="7.59737">
        <ele>599</ele>
        <time>2022-07-02T19:45:32.397Z</time>
      </trkpt>
      <trkpt lat="62.50895" lon="7.59744">
        <ele>599.79998779297</ele>
        <time>2022-07-02T19:45:35.108Z</time>
      </trkpt>
      <trkpt lat="62.50895" lon="7.59745">
        <ele>600.20001220703</ele>
        <time>2022-07-02T19:45:37.820Z</time>
      </trkpt>
      <trkpt lat="62.50896" lon="7.59746">
        <ele>601</ele>
        <time>2022-07-02T19:45:40.534Z</time>
      </trkpt>
      <trkpt lat="62.50896" lon="7.59746">
        <ele>601.20001220703</ele>
        <time>2022-07-02T19:45:43.249Z</time>
      </trkpt>
      <trkpt lat="62.509" lon="7.59748">
        <ele>602</ele>
        <time>2022-07-02T19:45:45.969Z</time>
      </trkpt>
      <trkpt lat="62.50901" lon="7.59748">
        <ele>602.40002441406</ele>
        <time>2022-07-02T19:45:48.692Z</time>
      </trkpt>
      <trkpt lat="62.50904" lon="7.59752">
        <ele>603.40002441406</ele>
        <time>2022-07-02T19:45:51.421Z</time>
      </trkpt>
      <trkpt lat="62.50904" lon="7.59753">
        <ele>603.79998779297</ele>
        <time>2022-07-02T19:45:54.150Z</time>
      </trkpt>
      <trkpt lat="62.50904" lon="7.59753">
        <ele>604.40002441406</ele>
        <time>2022-07-02T19:45:56.881Z</time>
      </trkpt>
      <trkpt lat="62.50905" lon="7.59753">
        <ele>604.59997558594</ele>
        <time>2022-07-02T19:45:59.613Z</time>
      </trkpt>
      <trkpt lat="62.50909" lon="7.59753">
        <ele>605.79998779297</ele>
        <time>2022-07-02T19:46:02.352Z</time>
      </trkpt>
      <trkpt lat="62.5091" lon="7.59753">
        <ele>606</ele>
        <time>2022-07-02T19:46:05.092Z</time>
      </trkpt>
      <trkpt lat="62.50912" lon="7.59755">
        <ele>606.79998779297</ele>
        <time>2022-07-02T19:46:07.837Z</time>
      </trkpt>
      <trkpt lat="62.50914" lon="7.59757">
        <ele>607.40002441406</ele>
        <time>2022-07-02T19:46:10.585Z</time>
      </trkpt>
      <trkpt lat="62.50915" lon="7.59759">
        <ele>607.79998779297</ele>
        <time>2022-07-02T19:46:13.335Z</time>
      </trkpt>
      <trkpt lat="62.50915" lon="7.59761">
        <ele>608</ele>
        <time>2022-07-02T19:46:16.086Z</time>
      </trkpt>
      <trkpt lat="62.50916" lon="7.59767">
        <ele>609</ele>
        <time>2022-07-02T19:46:18.844Z</time>
      </trkpt>
      <trkpt lat="62.50917" lon="7.5977">
        <ele>609.40002441406</ele>
        <time>2022-07-02T19:46:21.604Z</time>
      </trkpt>
      <trkpt lat="62.50917" lon="7.59777">
        <ele>610.20001220703</ele>
        <time>2022-07-02T19:46:24.370Z</time>
      </trkpt>
      <trkpt lat="62.50918" lon="7.59778">
        <ele>610.40002441406</ele>
        <time>2022-07-02T19:46:27.136Z</time>
      </trkpt>
      <trkpt lat="62.5092" lon="7.59779">
        <ele>611.20001220703</ele>
        <time>2022-07-02T19:46:29.906Z</time>
      </trkpt>
      <trkpt lat="62.50921" lon="7.59778">
        <ele>611.79998779297</ele>
        <time>2022-07-02T19:46:32.678Z</time>
      </trkpt>
      <trkpt lat="62.50923" lon="7.59781">
        <ele>612.20001220703</ele>
        <time>2022-07-02T19:46:35.455Z</time>
      </trkpt>
      <trkpt lat="62.50925" lon="7.59778">
        <ele>613.20001220703</ele>
        <time>2022-07-02T19:46:38.235Z</time>
      </trkpt>
      <trkpt lat="62.50925" lon="7.59778">
        <ele>613.40002441406</ele>
        <time>2022-07-02T19:46:41.016Z</time>
      </trkpt>
      <trkpt lat="62.50929" lon="7.59781">
        <ele>614</ele>
        <time>2022-07-02T19:46:43.803Z</time>
      </trkpt>
      <trkpt lat="62.50929" lon="7.59782">
        <ele>614.20001220703</ele>
        <time>2022-07-02T19:46:46.591Z</time>
      </trkpt>
      <trkpt lat="62.5093" lon="7.59784">
        <ele>614.40002441406</ele>
        <time>2022-07-02T19:46:49.381Z</time>
      </trkpt>
      <trkpt lat="62.50932" lon="7.59787">
        <ele>615.40002441406</ele>
        <time>2022-07-02T19:46:52.175Z</time>
      </trkpt>
      <trkpt lat="62.50932" lon="7.59788">
        <ele>616</ele>
        <time>2022-07-02T19:46:54.970Z</time>
      </trkpt>
      <trkpt lat="62.50935" lon="7.5979">
        <ele>617</ele>
        <time>2022-07-02T19:46:57.770Z</time>
      </trkpt>
      <trkpt lat="62.50936" lon="7.59792">
        <ele>617.79998779297</ele>
        <time>2022-07-02T19:47:00.573Z</time>
      </trkpt>
      <trkpt lat="62.50937" lon="7.59792">
        <ele>618.20001220703</ele>
        <time>2022-07-02T19:47:03.377Z</time>
      </trkpt>
      <trkpt lat="62.50939" lon="7.59794">
        <ele>619.40002441406</ele>
        <time>2022-07-02T19:47:06.186Z</time>
      </trkpt>
      <trkpt lat="62.50941" lon="7.59794">
        <ele>619.79998779297</ele>
        <time>2022-07-02T19:47:08.997Z</time>
      </trkpt>
      <trkpt lat="62.50943" lon="7.59794">
        <ele>620.40002441406</ele>
        <time>2022-07-02T19:47:11.811Z</time>
      </trkpt>
      <trkpt lat="62.50944" lon="7.598">
        <ele>620.79998779297</ele>
        <time>2022-07-02T19:47:14.630Z</time>
      </trkpt>
      <trkpt lat="62.50945" lon="7.59803">
        <ele>621.40002441406</ele>
        <time>2022-07-02T19:47:17.452Z</time>
      </trkpt>
      <trkpt lat="62.50948" lon="7.59808">
        <ele>622.40002441406</ele>
        <time>2022-07-02T19:47:20.280Z</time>
      </trkpt>
      <trkpt lat="62.50949" lon="7.59813">
        <ele>623.40002441406</ele>
        <time>2022-07-02T19:47:23.113Z</time>
      </trkpt>
      <trkpt lat="62.5095" lon="7.59813">
        <ele>623.40002441406</ele>
        <time>2022-07-02T19:47:25.946Z</time>
      </trkpt>
      <trkpt lat="62.5095" lon="7.59814">
        <ele>624</ele>
        <time>2022-07-02T19:47:28.780Z</time>
      </trkpt>
      <trkpt lat="62.5095" lon="7.59818">
        <ele>624.59997558594</ele>
        <time>2022-07-02T19:47:31.617Z</time>
      </trkpt>
      <trkpt lat="62.50952" lon="7.59821">
        <ele>625.40002441406</ele>
        <time>2022-07-02T19:47:34.459Z</time>
      </trkpt>
      <trkpt lat="62.50953" lon="7.59822">
        <ele>625.59997558594</ele>
        <time>2022-07-02T19:47:37.301Z</time>
      </trkpt>
      <trkpt lat="62.50955" lon="7.59824">
        <ele>626.79998779297</ele>
        <time>2022-07-02T19:47:40.148Z</time>
      </trkpt>
      <trkpt lat="62.50955" lon="7.59826">
        <ele>627</ele>
        <time>2022-07-02T19:47:42.997Z</time>
      </trkpt>
      <trkpt lat="62.50956" lon="7.5983">
        <ele>627.79998779297</ele>
        <time>2022-07-02T19:47:45.849Z</time>
      </trkpt>
      <trkpt lat="62.50957" lon="7.59832">
        <ele>628.40002441406</ele>
        <time>2022-07-02T19:47:48.703Z</time>
      </trkpt>
      <trkpt lat="62.50957" lon="7.59833">
        <ele>629</ele>
        <time>2022-07-02T19:47:51.559Z</time>
      </trkpt>
      <trkpt lat="62.5096" lon="7.59839">
        <ele>630</ele>
        <time>2022-07-02T19:47:54.421Z</time>
      </trkpt>
      <trkpt lat="62.50961" lon="7.59842">
        <ele>630.40002441406</ele>
        <time>2022-07-02T19:47:57.286Z</time>
      </trkpt>
      <trkpt lat="62.50962" lon="7.59847">
        <ele>631.20001220703</ele>
        <time>2022-07-02T19:48:00.155Z</time>
      </trkpt>
      <trkpt lat="62.50962" lon="7.59848">
        <ele>631.40002441406</ele>
        <time>2022-07-02T19:48:03.025Z</time>
      </trkpt>
      <trkpt lat="62.50963" lon="7.59854">
        <ele>632.40002441406</ele>
        <time>2022-07-02T19:48:05.900Z</time>
      </trkpt>
      <trkpt lat="62.50963" lon="7.59855">
        <ele>632.59997558594</ele>
        <time>2022-07-02T19:48:08.776Z</time>
      </trkpt>
      <trkpt lat="62.50965" lon="7.59857">
        <ele>633.40002441406</ele>
        <time>2022-07-02T19:48:11.656Z</time>
      </trkpt>
      <trkpt lat="62.50968" lon="7.59858">
        <ele>634.59997558594</ele>
        <time>2022-07-02T19:48:14.541Z</time>
      </trkpt>
      <trkpt lat="62.50971" lon="7.59858">
        <ele>635.59997558594</ele>
        <time>2022-07-02T19:48:17.430Z</time>
      </trkpt>
      <trkpt lat="62.50972" lon="7.5986">
        <ele>635.79998779297</ele>
        <time>2022-07-02T19:48:20.321Z</time>
      </trkpt>
      <trkpt lat="62.50972" lon="7.59861">
        <ele>635.79998779297</ele>
        <time>2022-07-02T19:48:23.213Z</time>
      </trkpt>
      <trkpt lat="62.50973" lon="7.59864">
        <ele>636.79998779297</ele>
        <time>2022-07-02T19:48:26.109Z</time>
      </trkpt>
      <trkpt lat="62.50976" lon="7.59868">
        <ele>637.79998779297</ele>
        <time>2022-07-02T19:48:29.009Z</time>
      </trkpt>
      <trkpt lat="62.50976" lon="7.59868">
        <ele>638</ele>
        <time>2022-07-02T19:48:31.910Z</time>
      </trkpt>
      <trkpt lat="62.50979" lon="7.59871">
        <ele>638.79998779297</ele>
        <time>2022-07-02T19:48:34.818Z</time>
      </trkpt>
      <trkpt lat="62.5098" lon="7.59873">
        <ele>639.20001220703</ele>
        <time>2022-07-02T19:48:37.727Z</time>
      </trkpt>
      <trkpt lat="62.5098" lon="7.59877">
        <ele>640.20001220703</ele>
        <time>2022-07-02T19:48:40.639Z</time>
      </trkpt>
      <trkpt lat="62.50981" lon="7.59877">
        <ele>640.40002441406</ele>
        <time>2022-07-02T19:48:43.552Z</time>
      </trkpt>
      <trkpt lat="62.50984" lon="7.59876">
        <ele>641.20001220703</ele>
        <time>2022-07-02T19:48:46.471Z</time>
      </trkpt>
      <trkpt lat="62.50985" lon="7.59876">
        <ele>641.59997558594</ele>
        <time>2022-07-02T19:48:49.391Z</time>
      </trkpt>
      <trkpt lat="62.50987" lon="7.5987">
        <ele>642.59997558594</ele>
        <time>2022-07-02T19:48:52.317Z</time>
      </trkpt>
      <trkpt lat="62.50987" lon="7.59869">
        <ele>642.59997558594</ele>
        <time>2022-07-02T19:48:55.244Z</time>
      </trkpt>
      <trkpt lat="62.5099" lon="7.59868">
        <ele>643.59997558594</ele>
        <time>2022-07-02T19:48:58.176Z</time>
      </trkpt>
      <trkpt lat="62.50991" lon="7.59868">
        <ele>643.79998779297</ele>
        <time>2022-07-02T19:49:01.110Z</time>
      </trkpt>
      <trkpt lat="62.50996" lon="7.59862">
        <ele>644.59997558594</ele>
        <time>2022-07-02T19:49:04.054Z</time>
      </trkpt>
      <trkpt lat="62.50999" lon="7.5986">
        <ele>645.59997558594</ele>
        <time>2022-07-02T19:49:07.003Z</time>
      </trkpt>
      <trkpt lat="62.51" lon="7.59859">
        <ele>645.79998779297</ele>
        <time>2022-07-02T19:49:09.953Z</time>
      </trkpt>
      <trkpt lat="62.51004" lon="7.59858">
        <ele>646.79998779297</ele>
        <time>2022-07-02T19:49:12.910Z</time>
      </trkpt>
      <trkpt lat="62.51004" lon="7.59858">
        <ele>646.79998779297</ele>
        <time>2022-07-02T19:49:15.868Z</time>
      </trkpt>
      <trkpt lat="62.51008" lon="7.59855">
        <ele>647.79998779297</ele>
        <time>2022-07-02T19:49:18.832Z</time>
      </trkpt>
      <trkpt lat="62.51008" lon="7.59854">
        <ele>648</ele>
        <time>2022-07-02T19:49:21.797Z</time>
      </trkpt>
      <trkpt lat="62.5101" lon="7.59854">
        <ele>649</ele>
        <time>2022-07-02T19:49:24.766Z</time>
      </trkpt>
      <trkpt lat="62.51014" lon="7.59855">
        <ele>650</ele>
        <time>2022-07-02T19:49:27.741Z</time>
      </trkpt>
      <trkpt lat="62.51016" lon="7.59857">
        <ele>651.20001220703</ele>
        <time>2022-07-02T19:49:30.720Z</time>
      </trkpt>
      <trkpt lat="62.51017" lon="7.59858">
        <ele>651.40002441406</ele>
        <time>2022-07-02T19:49:33.700Z</time>
      </trkpt>
      <trkpt lat="62.5102" lon="7.5986">
        <ele>652.20001220703</ele>
        <time>2022-07-02T19:49:36.686Z</time>
      </trkpt>
      <trkpt lat="62.5102" lon="7.59861">
        <ele>652.79998779297</ele>
        <time>2022-07-02T19:49:39.673Z</time>
      </trkpt>
      <trkpt lat="62.51021" lon="7.59861">
        <ele>653.20001220703</ele>
        <time>2022-07-02T19:49:42.662Z</time>
      </trkpt>
      <trkpt lat="62.51022" lon="7.59863">
        <ele>654.40002441406</ele>
        <time>2022-07-02T19:49:45.652Z</time>
      </trkpt>
      <trkpt lat="62.51023" lon="7.59864">
        <ele>654.59997558594</ele>
        <time>2022-07-02T19:49:48.644Z</time>
      </trkpt>
      <trkpt lat="62.51027" lon="7.59867">
        <ele>655.59997558594</ele>
        <time>2022-07-02T19:49:51.644Z</time>
      </trkpt>
      <trkpt lat="62.51028" lon="7.59867">
        <ele>655.79998779297</ele>
        <time>2022-07-02T19:49:54.646Z</time>
      </trkpt>
      <trkpt lat="62.5103" lon="7.59869">
        <ele>656.59997558594</ele>
        <time>2022-07-02T19:49:57.651Z</time>
      </trkpt>
      <trkpt lat="62.51031" lon="7.5987">
        <ele>657.59997558594</ele>
        <time>2022-07-02T19:50:00.658Z</time>
      </trkpt>
      <trkpt lat="62.51032" lon="7.5987">
        <ele>657.79998779297</ele>
        <time>2022-07-02T19:50:03.666Z</time>
      </trkpt>
      <trkpt lat="62.51034" lon="7.59872">
        <ele>659</ele>
        <time>2022-07-02T19:50:06.678Z</time>
      </trkpt>
      <trkpt lat="62.51035" lon="7.59872">
        <ele>659.20001220703</ele>
        <time>2022-07-02T19:50:09.692Z</time>
      </trkpt>
      <trkpt lat="62.51037" lon="7.59874">
        <ele>660.20001220703</ele>
        <time>2022-07-02T19:50:12.710Z</time>
      </trkpt>
      <trkpt lat="62.5104" lon="7.59873">
        <ele>661.20001220703</ele>
        <time>2022-07-02T19:50:15.733Z</time>
      </trkpt>
      <trkpt lat="62.51043" lon="7.59872">
        <ele>661.79998779297</ele>
        <time>2022-07-02T19:50:18.762Z</time>
      </trkpt>
      <trkpt lat="62.51045" lon="7.59869">
        <ele>662.20001220703</ele>
        <time>2022-07-02T19:50:21.794Z</time>
      </trkpt>
      <trkpt lat="62.51047" lon="7.59865">
        <ele>662.59997558594</ele>
        <time>2022-07-02T19:50:24.830Z</time>
      </trkpt>
      <trkpt lat="62.51048" lon="7.59865">
        <ele>663.20001220703</ele>
        <time>2022-07-02T19:50:27.869Z</time>
      </trkpt>
      <trkpt lat="62.51052" lon="7.59862">
        <ele>664.40002441406</ele>
        <time>2022-07-02T19:50:30.915Z</time>
      </trkpt>
      <trkpt lat="62.51052" lon="7.59862">
        <ele>664.40002441406</ele>
        <time>2022-07-02T19:50:33.962Z</time>
      </trkpt>
      <trkpt lat="62.51056" lon="7.59863">
        <ele>665.40002441406</ele>
        <time>2022-07-02T19:50:37.016Z</time>
      </trkpt>
      <trkpt lat="62.51057" lon="7.59863">
        <ele>665.59997558594</ele>
        <time>2022-07-02T19:50:40.071Z</time>
      </trkpt>
      <trkpt lat="62.51061" lon="7.59862">
        <ele>666.40002441406</ele>
        <time>2022-07-02T19:50:43.133Z</time>
      </trkpt>
      <trkpt lat="62.51063" lon="7.59862">
        <ele>666.79998779297</ele>
        <time>2022-07-02T19:50:46.198Z</time>
      </trkpt>
      <trkpt lat="62.51064" lon="7.5986">
        <ele>667.40002441406</ele>
        <time>2022-07-02T19:50:49.266Z</time>
      </trkpt>
      <trkpt lat="62.51067" lon="7.59859">
        <ele>667.79998779297</ele>
        <time>2022-07-02T19:50:52.338Z</time>
      </trkpt>
      <trkpt lat="62.51071" lon="7.59857">
        <ele>668.40002441406</ele>
        <time>2022-07-02T19:50:55.418Z</time>
      </trkpt>
      <trkpt lat="62.51073" lon="7.59858">
        <ele>668.79998779297</ele>
        <time>2022-07-02T19:50:58.501Z</time>
      </trkpt>
      <trkpt lat="62.51075" lon="7.59858">
        <ele>669.59997558594</ele>
        <time>2022-07-02T19:51:01.588Z</time>
      </trkpt>
      <trkpt lat="62.51078" lon="7.5986">
        <ele>670.40002441406</ele>
        <time>2022-07-02T19:51:04.680Z</time>
      </trkpt>
      <trkpt lat="62.5108" lon="7.5986">
        <ele>670.79998779297</ele>
        <time>2022-07-02T19:51:07.774Z</time>
      </trkpt>
      <trkpt lat="62.51082" lon="7.5986">
        <ele>671.79998779297</ele>
        <time>2022-07-02T19:51:10.872Z</time>
      </trkpt>
      <trkpt lat="62.51084" lon="7.59858">
        <ele>672.40002441406</ele>
        <time>2022-07-02T19:51:13.974Z</time>
      </trkpt>
      <trkpt lat="62.51085" lon="7.59861">
        <ele>673</ele>
        <time>2022-07-02T19:51:17.079Z</time>
      </trkpt>
      <trkpt lat="62.51088" lon="7.5986">
        <ele>673.79998779297</ele>
        <time>2022-07-02T19:51:20.189Z</time>
      </trkpt>
      <trkpt lat="62.51089" lon="7.5986">
        <ele>674</ele>
        <time>2022-07-02T19:51:23.300Z</time>
      </trkpt>
      <trkpt lat="62.51091" lon="7.59858">
        <ele>675</ele>
        <time>2022-07-02T19:51:26.415Z</time>
      </trkpt>
      <trkpt lat="62.51093" lon="7.59857">
        <ele>675.40002441406</ele>
        <time>2022-07-02T19:51:29.533Z</time>
      </trkpt>
      <trkpt lat="62.51093" lon="7.59857">
        <ele>675.59997558594</ele>
        <time>2022-07-02T19:51:32.652Z</time>
      </trkpt>
      <trkpt lat="62.51096" lon="7.59857">
        <ele>676.20001220703</ele>
        <time>2022-07-02T19:51:35.776Z</time>
      </trkpt>
      <trkpt lat="62.51099" lon="7.59854">
        <ele>676.59997558594</ele>
        <time>2022-07-02T19:51:38.906Z</time>
      </trkpt>
      <trkpt lat="62.51102" lon="7.59854">
        <ele>677.40002441406</ele>
        <time>2022-07-02T19:51:42.040Z</time>
      </trkpt>
      <trkpt lat="62.51103" lon="7.59854">
        <ele>677.79998779297</ele>
        <time>2022-07-02T19:51:45.177Z</time>
      </trkpt>
      <trkpt lat="62.51105" lon="7.59855">
        <ele>678.40002441406</ele>
        <time>2022-07-02T19:51:48.317Z</time>
      </trkpt>
      <trkpt lat="62.51109" lon="7.59854">
        <ele>679.40002441406</ele>
        <time>2022-07-02T19:51:51.463Z</time>
      </trkpt>
      <trkpt lat="62.51109" lon="7.59854">
        <ele>679.59997558594</ele>
        <time>2022-07-02T19:51:54.610Z</time>
      </trkpt>
      <trkpt lat="62.51113" lon="7.59851">
        <ele>680.59997558594</ele>
        <time>2022-07-02T19:51:57.764Z</time>
      </trkpt>
      <trkpt lat="62.51114" lon="7.59851">
        <ele>680.79998779297</ele>
        <time>2022-07-02T19:52:00.919Z</time>
      </trkpt>
      <trkpt lat="62.51118" lon="7.59849">
        <ele>681.59997558594</ele>
        <time>2022-07-02T19:52:04.082Z</time>
      </trkpt>
      <trkpt lat="62.5112" lon="7.5985">
        <ele>682.20001220703</ele>
        <time>2022-07-02T19:52:07.248Z</time>
      </trkpt>
      <trkpt lat="62.51122" lon="7.5985">
        <ele>682.79998779297</ele>
        <time>2022-07-02T19:52:10.418Z</time>
      </trkpt>
      <trkpt lat="62.51126" lon="7.59851">
        <ele>683.79998779297</ele>
        <time>2022-07-02T19:52:13.594Z</time>
      </trkpt>
      <trkpt lat="62.51127" lon="7.59851">
        <ele>684.40002441406</ele>
        <time>2022-07-02T19:52:16.772Z</time>
      </trkpt>
      <trkpt lat="62.51129" lon="7.59854">
        <ele>685</ele>
        <time>2022-07-02T19:52:19.954Z</time>
      </trkpt>
      <trkpt lat="62.51133" lon="7.59856">
        <ele>686</ele>
        <time>2022-07-02T19:52:23.144Z</time>
      </trkpt>
      <trkpt lat="62.51135" lon="7.59859">
        <ele>686.40002441406</ele>
        <time>2022-07-02T19:52:26.337Z</time>
      </trkpt>
      <trkpt lat="62.51137" lon="7.59861">
        <ele>687</ele>
        <time>2022-07-02T19:52:29.534Z</time>
      </trkpt>
      <trkpt lat="62.5114" lon="7.59862">
        <ele>687.79998779297</ele>
        <time>2022-07-02T19:52:32.736Z</time>
      </trkpt>
      <trkpt lat="62.51141" lon="7.59862">
        <ele>688</ele>
        <time>2022-07-02T19:52:35.940Z</time>
      </trkpt>
      <trkpt lat="62.51142" lon="7.59862">
        <ele>688.59997558594</ele>
        <time>2022-07-02T19:52:39.146Z</time>
      </trkpt>
      <trkpt lat="62.51142" lon="7.59863">
        <ele>688.79998779297</ele>
        <time>2022-07-02T19:52:42.352Z</time>
      </trkpt>
      <trkpt lat="62.51143" lon="7.59863">
        <ele>688.79998779297</ele>
        <time>2022-07-02T19:52:45.560Z</time>
      </trkpt>
      <trkpt lat="62.51143" lon="7.59863">
        <ele>688.59997558594</ele>
        <time>2022-07-02T19:52:48.768Z</time>
      </trkpt>
      <trkpt lat="62.51143" lon="7.59863">
        <ele>689</ele>
        <time>2022-07-02T19:52:51.977Z</time>
      </trkpt>
      <trkpt lat="62.51143" lon="7.59863">
        <ele>689</ele>
        <time>2022-07-02T19:52:55.186Z</time>
      </trkpt>
      <trkpt lat="62.51145" lon="7.59863">
        <ele>689.59997558594</ele>
        <time>2022-07-02T19:52:58.397Z</time>
      </trkpt>
      <trkpt lat="62.51148" lon="7.59861">
        <ele>690</ele>
        <time>2022-07-02T19:53:01.614Z</time>
      </trkpt>
      <trkpt lat="62.51149" lon="7.5986">
        <ele>690.40002441406</ele>
        <time>2022-07-02T19:53:04.832Z</time>
      </trkpt>
      <trkpt lat="62.51155" lon="7.59858">
        <ele>691.40002441406</ele>
        <time>2022-07-02T19:53:08.062Z</time>
      </trkpt>
      <trkpt lat="62.51159" lon="7.59862">
        <ele>692.59997558594</ele>
        <time>2022-07-02T19:53:11.299Z</time>
      </trkpt>
      <trkpt lat="62.5116" lon="7.59863">
        <ele>693.20001220703</ele>
        <time>2022-07-02T19:53:14.538Z</time>
      </trkpt>
      <trkpt lat="62.5116" lon="7.59865">
        <ele>693.59997558594</ele>
        <time>2022-07-02T19:53:17.778Z</time>
      </trkpt>
      <trkpt lat="62.51161" lon="7.59866">
        <ele>693.79998779297</ele>
        <time>2022-07-02T19:53:21.020Z</time>
      </trkpt>
      <trkpt lat="62.51164" lon="7.5987">
        <ele>694.20001220703</ele>
        <time>2022-07-02T19:53:24.268Z</time>
      </trkpt>
      <trkpt lat="62.51165" lon="7.59871">
        <ele>694.79998779297</ele>
        <time>2022-07-02T19:53:27.517Z</time>
      </trkpt>
      <trkpt lat="62.51166" lon="7.59876">
        <ele>695.79998779297</ele>
        <time>2022-07-02T19:53:30.771Z</time>
      </trkpt>
      <trkpt lat="62.51167" lon="7.59876">
        <ele>696.20001220703</ele>
        <time>2022-07-02T19:53:34.026Z</time>
      </trkpt>
      <trkpt lat="62.51169" lon="7.59878">
        <ele>696.79998779297</ele>
        <time>2022-07-02T19:53:37.285Z</time>
      </trkpt>
      <trkpt lat="62.51171" lon="7.59879">
        <ele>698</ele>
        <time>2022-07-02T19:53:40.548Z</time>
      </trkpt>
      <trkpt lat="62.51174" lon="7.59883">
        <ele>699</ele>
        <time>2022-07-02T19:53:43.817Z</time>
      </trkpt>
      <trkpt lat="62.51176" lon="7.59886">
        <ele>699.59997558594</ele>
        <time>2022-07-02T19:53:47.089Z</time>
      </trkpt>
      <trkpt lat="62.51177" lon="7.59887">
        <ele>700.20001220703</ele>
        <time>2022-07-02T19:53:50.364Z</time>
      </trkpt>
      <trkpt lat="62.51179" lon="7.59889">
        <ele>700.59997558594</ele>
        <time>2022-07-02T19:53:53.643Z</time>
      </trkpt>
      <trkpt lat="62.5118" lon="7.59889">
        <ele>700.79998779297</ele>
        <time>2022-07-02T19:53:56.923Z</time>
      </trkpt>
      <trkpt lat="62.51181" lon="7.5989">
        <ele>701.40002441406</ele>
        <time>2022-07-02T19:54:00.205Z</time>
      </trkpt>
      <trkpt lat="62.51184" lon="7.59892">
        <ele>702.40002441406</ele>
        <time>2022-07-02T19:54:03.492Z</time>
      </trkpt>
      <trkpt lat="62.51186" lon="7.59894">
        <ele>703.20001220703</ele>
        <time>2022-07-02T19:54:06.783Z</time>
      </trkpt>
      <trkpt lat="62.51186" lon="7.59895">
        <ele>703.40002441406</ele>
        <time>2022-07-02T19:54:10.075Z</time>
      </trkpt>
      <trkpt lat="62.51189" lon="7.59895">
        <ele>703.79998779297</ele>
        <time>2022-07-02T19:54:13.371Z</time>
      </trkpt>
      <trkpt lat="62.51192" lon="7.59897">
        <ele>704.40002441406</ele>
        <time>2022-07-02T19:54:16.672Z</time>
      </trkpt>
      <trkpt lat="62.51196" lon="7.59901">
        <ele>705.59997558594</ele>
        <time>2022-07-02T19:54:19.981Z</time>
      </trkpt>
      <trkpt lat="62.51196" lon="7.59901">
        <ele>705.79998779297</ele>
        <time>2022-07-02T19:54:23.291Z</time>
      </trkpt>
      <trkpt lat="62.51199" lon="7.59904">
        <ele>706.59997558594</ele>
        <time>2022-07-02T19:54:26.607Z</time>
      </trkpt>
      <trkpt lat="62.512" lon="7.59905">
        <ele>706.79998779297</ele>
        <time>2022-07-02T19:54:29.924Z</time>
      </trkpt>
      <trkpt lat="62.51201" lon="7.59907">
        <ele>707.20001220703</ele>
        <time>2022-07-02T19:54:33.243Z</time>
      </trkpt>
      <trkpt lat="62.51203" lon="7.59906">
        <ele>707.79998779297</ele>
        <time>2022-07-02T19:54:36.565Z</time>
      </trkpt>
      <trkpt lat="62.51205" lon="7.59907">
        <ele>708.40002441406</ele>
        <time>2022-07-02T19:54:39.891Z</time>
      </trkpt>
      <trkpt lat="62.51206" lon="7.59907">
        <ele>709</ele>
        <time>2022-07-02T19:54:43.219Z</time>
      </trkpt>
      <trkpt lat="62.51209" lon="7.59915">
        <ele>710</ele>
        <time>2022-07-02T19:54:46.554Z</time>
      </trkpt>
      <trkpt lat="62.5121" lon="7.59918">
        <ele>710.79998779297</ele>
        <time>2022-07-02T19:54:49.892Z</time>
      </trkpt>
      <trkpt lat="62.51211" lon="7.59921">
        <ele>711.20001220703</ele>
        <time>2022-07-02T19:54:53.233Z</time>
      </trkpt>
      <trkpt lat="62.51213" lon="7.59927">
        <ele>712.20001220703</ele>
        <time>2022-07-02T19:54:56.580Z</time>
      </trkpt>
      <trkpt lat="62.51213" lon="7.59927">
        <ele>712.59997558594</ele>
        <time>2022-07-02T19:54:59.928Z</time>
      </trkpt>
      <trkpt lat="62.51217" lon="7.5993">
        <ele>713.20001220703</ele>
        <time>2022-07-02T19:55:03.283Z</time>
      </trkpt>
      <trkpt lat="62.51218" lon="7.59932">
        <ele>714</ele>
        <time>2022-07-02T19:55:06.641Z</time>
      </trkpt>
      <trkpt lat="62.51219" lon="7.59933">
        <ele>714.20001220703</ele>
        <time>2022-07-02T19:55:10.000Z</time>
      </trkpt>
      <trkpt lat="62.51221" lon="7.59933">
        <ele>715.20001220703</ele>
        <time>2022-07-02T19:55:13.363Z</time>
      </trkpt>
      <trkpt lat="62.51222" lon="7.59935">
        <ele>715.40002441406</ele>
        <time>2022-07-02T19:55:16.728Z</time>
      </trkpt>
      <trkpt lat="62.51225" lon="7.59939">
        <ele>716.40002441406</ele>
        <time>2022-07-02T19:55:20.099Z</time>
      </trkpt>
      <trkpt lat="62.51227" lon="7.59939">
        <ele>717.20001220703</ele>
        <time>2022-07-02T19:55:23.473Z</time>
      </trkpt>
      <trkpt lat="62.51227" lon="7.59939">
        <ele>717.59997558594</ele>
        <time>2022-07-02T19:55:26.848Z</time>
      </trkpt>
      <trkpt lat="62.51229" lon="7.59938">
        <ele>718.59997558594</ele>
        <time>2022-07-02T19:55:30.226Z</time>
      </trkpt>
      <trkpt lat="62.51229" lon="7.59937">
        <ele>718.79998779297</ele>
        <time>2022-07-02T19:55:33.605Z</time>
      </trkpt>
      <trkpt lat="62.51232" lon="7.59939">
        <ele>719.79998779297</ele>
        <time>2022-07-02T19:55:36.989Z</time>
      </trkpt>
      <trkpt lat="62.51233" lon="7.5994">
        <ele>720.20001220703</ele>
        <time>2022-07-02T19:55:40.375Z</time>
      </trkpt>
      <trkpt lat="62.51236" lon="7.59944">
        <ele>720.79998779297</ele>
        <time>2022-07-02T19:55:43.766Z</time>
      </trkpt>
      <trkpt lat="62.51238" lon="7.5995">
        <ele>721.59997558594</ele>
        <time>2022-07-02T19:55:47.163Z</time>
      </trkpt>
      <trkpt lat="62.51239" lon="7.59952">
        <ele>721.79998779297</ele>
        <time>2022-07-02T19:55:50.562Z</time>
      </trkpt>
      <trkpt lat="62.51241" lon="7.59957">
        <ele>723</ele>
        <time>2022-07-02T19:55:53.967Z</time>
      </trkpt>
      <trkpt lat="62.51243" lon="7.5996">
        <ele>723.40002441406</ele>
        <time>2022-07-02T19:55:57.376Z</time>
      </trkpt>
      <trkpt lat="62.51246" lon="7.59969">
        <ele>724.20001220703</ele>
        <time>2022-07-02T19:56:00.793Z</time>
      </trkpt>
      <trkpt lat="62.51246" lon="7.59972">
        <ele>725</ele>
        <time>2022-07-02T19:56:04.213Z</time>
      </trkpt>
      <trkpt lat="62.51246" lon="7.59973">
        <ele>725.20001220703</ele>
        <time>2022-07-02T19:56:07.634Z</time>
      </trkpt>
      <trkpt lat="62.51246" lon="7.59974">
        <ele>725.40002441406</ele>
        <time>2022-07-02T19:56:11.055Z</time>
      </trkpt>
      <trkpt lat="62.51248" lon="7.59977">
        <ele>726.40002441406</ele>
        <time>2022-07-02T19:56:14.481Z</time>
      </trkpt>
      <trkpt lat="62.51249" lon="7.59978">
        <ele>727.20001220703</ele>
        <time>2022-07-02T19:56:17.908Z</time>
      </trkpt>
      <trkpt lat="62.51249" lon="7.59977">
        <ele>727.59997558594</ele>
        <time>2022-07-02T19:56:21.336Z</time>
      </trkpt>
      <trkpt lat="62.51252" lon="7.5998">
        <ele>728.59997558594</ele>
        <time>2022-07-02T19:56:24.768Z</time>
      </trkpt>
      <trkpt lat="62.51252" lon="7.59981">
        <ele>728.59997558594</ele>
        <time>2022-07-02T19:56:28.202Z</time>
      </trkpt>
      <trkpt lat="62.51255" lon="7.59986">
        <ele>729.59997558594</ele>
        <time>2022-07-02T19:56:31.642Z</time>
      </trkpt>
      <trkpt lat="62.51256" lon="7.59987">
        <ele>729.79998779297</ele>
        <time>2022-07-02T19:56:35.083Z</time>
      </trkpt>
      <trkpt lat="62.51259" lon="7.59991">
        <ele>731</ele>
        <time>2022-07-02T19:56:38.531Z</time>
      </trkpt>
      <trkpt lat="62.5126" lon="7.59993">
        <ele>731.59997558594</ele>
        <time>2022-07-02T19:56:41.981Z</time>
      </trkpt>
      <trkpt lat="62.51262" lon="7.59995">
        <ele>732.20001220703</ele>
        <time>2022-07-02T19:56:45.434Z</time>
      </trkpt>
      <trkpt lat="62.51263" lon="7.59996">
        <ele>733</ele>
        <time>2022-07-02T19:56:48.890Z</time>
      </trkpt>
      <trkpt lat="62.51264" lon="7.59997">
        <ele>733.20001220703</ele>
        <time>2022-07-02T19:56:52.347Z</time>
      </trkpt>
      <trkpt lat="62.51266" lon="7.60001">
        <ele>734.20001220703</ele>
        <time>2022-07-02T19:56:55.809Z</time>
      </trkpt>
      <trkpt lat="62.51267" lon="7.60001">
        <ele>734.40002441406</ele>
        <time>2022-07-02T19:56:59.273Z</time>
      </trkpt>
      <trkpt lat="62.51268" lon="7.60002">
        <ele>735.40002441406</ele>
        <time>2022-07-02T19:57:02.740Z</time>
      </trkpt>
      <trkpt lat="62.51271" lon="7.60008">
        <ele>736.40002441406</ele>
        <time>2022-07-02T19:57:06.213Z</time>
      </trkpt>
      <trkpt lat="62.51274" lon="7.60013">
        <ele>737.40002441406</ele>
        <time>2022-07-02T19:57:09.691Z</time>
      </trkpt>
      <trkpt lat="62.51274" lon="7.60013">
        <ele>737.59997558594</ele>
        <time>2022-07-02T19:57:13.170Z</time>
      </trkpt>
      <trkpt lat="62.51277" lon="7.6002">
        <ele>738.79998779297</ele>
        <time>2022-07-02T19:57:16.656Z</time>
      </trkpt>
      <trkpt lat="62.51278" lon="7.60021">
        <ele>738.79998779297</ele>
        <time>2022-07-02T19:57:20.144Z</time>
      </trkpt>
      <trkpt lat="62.51279" lon="7.60023">
        <ele>739.79998779297</ele>
        <time>2022-07-02T19:57:23.634Z</time>
      </trkpt>
      <trkpt lat="62.51281" lon="7.6003">
        <ele>740.59997558594</ele>
        <time>2022-07-02T19:57:27.132Z</time>
      </trkpt>
      <trkpt lat="62.51282" lon="7.60031">
        <ele>740.79998779297</ele>
        <time>2022-07-02T19:57:30.630Z</time>
      </trkpt>
      <trkpt lat="62.51283" lon="7.60035">
        <ele>741.59997558594</ele>
        <time>2022-07-02T19:57:34.133Z</time>
      </trkpt>
      <trkpt lat="62.51284" lon="7.60036">
        <ele>742</ele>
        <time>2022-07-02T19:57:37.638Z</time>
      </trkpt>
      <trkpt lat="62.51285" lon="7.60037">
        <ele>742</ele>
        <time>2022-07-02T19:57:41.144Z</time>
      </trkpt>
      <trkpt lat="62.51288" lon="7.60043">
        <ele>743</ele>
        <time>2022-07-02T19:57:44.658Z</time>
      </trkpt>
      <trkpt lat="62.5129" lon="7.60045">
        <ele>743.40002441406</ele>
        <time>2022-07-02T19:57:48.174Z</time>
      </trkpt>
      <trkpt lat="62.51291" lon="7.60044">
        <ele>744</ele>
        <time>2022-07-02T19:57:51.693Z</time>
      </trkpt>
      <trkpt lat="62.51292" lon="7.60043">
        <ele>744.40002441406</ele>
        <time>2022-07-02T19:57:55.214Z</time>
      </trkpt>
      <trkpt lat="62.51295" lon="7.60044">
        <ele>745.20001220703</ele>
        <time>2022-07-02T19:57:58.739Z</time>
      </trkpt>
      <trkpt lat="62.51297" lon="7.60043">
        <ele>745.59997558594</ele>
        <time>2022-07-02T19:58:02.267Z</time>
      </trkpt>
      <trkpt lat="62.51298" lon="7.60044">
        <ele>746</ele>
        <time>2022-07-02T19:58:05.798Z</time>
      </trkpt>
      <trkpt lat="62.51299" lon="7.60045">
        <ele>746.20001220703</ele>
        <time>2022-07-02T19:58:09.330Z</time>
      </trkpt>
      <trkpt lat="62.51304" lon="7.60048">
        <ele>747.40002441406</ele>
        <time>2022-07-02T19:58:12.872Z</time>
      </trkpt>
      <trkpt lat="62.51306" lon="7.60048">
        <ele>748</ele>
        <time>2022-07-02T19:58:16.417Z</time>
      </trkpt>
      <trkpt lat="62.51308" lon="7.60051">
        <ele>748.40002441406</ele>
        <time>2022-07-02T19:58:19.966Z</time>
      </trkpt>
      <trkpt lat="62.51309" lon="7.60052">
        <ele>748.59997558594</ele>
        <time>2022-07-02T19:58:23.517Z</time>
      </trkpt>
      <trkpt lat="62.51313" lon="7.60054">
        <ele>749.40002441406</ele>
        <time>2022-07-02T19:58:27.075Z</time>
      </trkpt>
      <trkpt lat="62.51315" lon="7.60057">
        <ele>749.79998779297</ele>
        <time>2022-07-02T19:58:30.637Z</time>
      </trkpt>
      <trkpt lat="62.51318" lon="7.6006">
        <ele>750.59997558594</ele>
        <time>2022-07-02T19:58:34.205Z</time>
      </trkpt>
      <trkpt lat="62.5132" lon="7.60061">
        <ele>751</ele>
        <time>2022-07-02T19:58:37.776Z</time>
      </trkpt>
      <trkpt lat="62.51323" lon="7.60061">
        <ele>751.59997558594</ele>
        <time>2022-07-02T19:58:41.353Z</time>
      </trkpt>
      <trkpt lat="62.51327" lon="7.60062">
        <ele>752.20001220703</ele>
        <time>2022-07-02T19:58:44.936Z</time>
      </trkpt>
      <trkpt lat="62.51328" lon="7.6006">
        <ele>752.59997558594</ele>
        <time>2022-07-02T19:58:48.522Z</time>
      </trkpt>
      <trkpt lat="62.5133" lon="7.60058">
        <ele>753.40002441406</ele>
        <time>2022-07-02T19:58:52.112Z</time>
      </trkpt>
      <trkpt lat="62.51331" lon="7.60057">
        <ele>753.79998779297</ele>
        <time>2022-07-02T19:58:55.703Z</time>
      </trkpt>
      <trkpt lat="62.51335" lon="7.60056">
        <ele>754.79998779297</ele>
        <time>2022-07-02T19:58:59.302Z</time>
      </trkpt>
      <trkpt lat="62.51335" lon="7.60055">
        <ele>755</ele>
        <time>2022-07-02T19:59:02.901Z</time>
      </trkpt>
      <trkpt lat="62.51341" lon="7.6005">
        <ele>756</ele>
        <time>2022-07-02T19:59:06.510Z</time>
      </trkpt>
      <trkpt lat="62.51341" lon="7.60049">
        <ele>756</ele>
        <time>2022-07-02T19:59:10.121Z</time>
      </trkpt>
      <trkpt lat="62.51347" lon="7.6004">
        <ele>756.20001220703</ele>
        <time>2022-07-02T19:59:13.744Z</time>
      </trkpt>
      <trkpt lat="62.51348" lon="7.60039">
        <ele>756.20001220703</ele>
        <time>2022-07-02T19:59:17.369Z</time>
      </trkpt>
      <trkpt lat="62.51349" lon="7.60036">
        <ele>756.20001220703</ele>
        <time>2022-07-02T19:59:20.996Z</time>
      </trkpt>
      <trkpt lat="62.51353" lon="7.60035">
        <ele>756.40002441406</ele>
        <time>2022-07-02T19:59:24.630Z</time>
      </trkpt>
      <trkpt lat="62.51356" lon="7.60034">
        <ele>756.59997558594</ele>
        <time>2022-07-02T19:59:28.269Z</time>
      </trkpt>
      <trkpt lat="62.51359" lon="7.60032">
        <ele>756.79998779297</ele>
        <time>2022-07-02T19:59:31.914Z</time>
      </trkpt>
      <trkpt lat="62.51362" lon="7.60028">
        <ele>757</ele>
        <time>2022-07-02T19:59:35.565Z</time>
      </trkpt>
      <trkpt lat="62.51364" lon="7.60026">
        <ele>757.20001220703</ele>
        <time>2022-07-02T19:59:39.220Z</time>
      </trkpt>
      <trkpt lat="62.51369" lon="7.60025">
        <ele>757.59997558594</ele>
        <time>2022-07-02T19:59:42.883Z</time>
      </trkpt>
      <trkpt lat="62.51372" lon="7.60024">
        <ele>757.79998779297</ele>
        <time>2022-07-02T19:59:46.551Z</time>
      </trkpt>
      <trkpt lat="62.51375" lon="7.60024">
        <ele>758</ele>
        <time>2022-07-02T19:59:50.224Z</time>
      </trkpt>
      <trkpt lat="62.51377" lon="7.60024">
        <ele>758.20001220703</ele>
        <time>2022-07-02T19:59:53.901Z</time>
      </trkpt>
      <trkpt lat="62.5138" lon="7.6002">
        <ele>758.59997558594</ele>
        <time>2022-07-02T19:59:57.583Z</time>
      </trkpt>
      <trkpt lat="62.51381" lon="7.60016">
        <ele>758.59997558594</ele>
        <time>2022-07-02T20:00:01.270Z</time>
      </trkpt>
      <trkpt lat="62.51384" lon="7.60006">
        <ele>758.59997558594</ele>
        <time>2022-07-02T20:00:04.966Z</time>
      </trkpt>
      <trkpt lat="62.51387" lon="7.60003">
        <ele>758.40002441406</ele>
        <time>2022-07-02T20:00:08.667Z</time>
      </trkpt>
      <trkpt lat="62.51392" lon="7.59995">
        <ele>758.40002441406</ele>
        <time>2022-07-02T20:00:12.379Z</time>
      </trkpt>
      <trkpt lat="62.51396" lon="7.59985">
        <ele>759</ele>
        <time>2022-07-02T20:00:16.101Z</time>
      </trkpt>
      <trkpt lat="62.51398" lon="7.59984">
        <ele>759.20001220703</ele>
        <time>2022-07-02T20:00:19.826Z</time>
      </trkpt>
      <trkpt lat="62.51404" lon="7.59973">
        <ele>759.20001220703</ele>
        <time>2022-07-02T20:00:23.565Z</time>
      </trkpt>
      <trkpt lat="62.5141" lon="7.59961">
        <ele>759.59997558594</ele>
        <time>2022-07-02T20:00:27.318Z</time>
      </trkpt>
      <trkpt lat="62.51415" lon="7.59955">
        <ele>759</ele>
        <time>2022-07-02T20:00:31.081Z</time>
      </trkpt>
      <trkpt lat="62.51417" lon="7.59951">
        <ele>759</ele>
        <time>2022-07-02T20:00:34.848Z</time>
      </trkpt>
      <trkpt lat="62.51421" lon="7.59944">
        <ele>758.40002441406</ele>
        <time>2022-07-02T20:00:38.624Z</time>
      </trkpt>
      <trkpt lat="62.51427" lon="7.59936">
        <ele>758.79998779297</ele>
        <time>2022-07-02T20:00:42.411Z</time>
      </trkpt>
      <trkpt lat="62.51428" lon="7.59936">
        <ele>758.79998779297</ele>
        <time>2022-07-02T20:00:46.200Z</time>
      </trkpt>
      <trkpt lat="62.51429" lon="7.59935">
        <ele>759</ele>
        <time>2022-07-02T20:00:49.991Z</time>
      </trkpt>
      <trkpt lat="62.51432" lon="7.59931">
        <ele>759.40002441406</ele>
        <time>2022-07-02T20:00:53.788Z</time>
      </trkpt>
      <trkpt lat="62.51434" lon="7.59925">
        <ele>760</ele>
        <time>2022-07-02T20:00:57.591Z</time>
      </trkpt>
      <trkpt lat="62.51435" lon="7.59922">
        <ele>760.20001220703</ele>
        <time>2022-07-02T20:01:01.398Z</time>
      </trkpt>
      <trkpt lat="62.51437" lon="7.59922">
        <ele>760.20001220703</ele>
        <time>2022-07-02T20:01:05.207Z</time>
      </trkpt>
      <trkpt lat="62.51441" lon="7.59916">
        <ele>760.79998779297</ele>
        <time>2022-07-02T20:01:09.025Z</time>
      </trkpt>
      <trkpt lat="62.51443" lon="7.59913">
        <ele>761.20001220703</ele>
        <time>2022-07-02T20:01:12.847Z</time>
      </trkpt>
      <trkpt lat="62.51446" lon="7.59908">
        <ele>761.59997558594</ele>
        <time>2022-07-02T20:01:16.676Z</time>
      </trkpt>
      <trkpt lat="62.51448" lon="7.59905">
        <ele>761.59997558594</ele>
        <time>2022-07-02T20:01:20.508Z</time>
      </trkpt>
      <trkpt lat="62.51449" lon="7.59903">
        <ele>761.79998779297</ele>
        <time>2022-07-02T20:01:24.343Z</time>
      </trkpt>
      <trkpt lat="62.51452" lon="7.59896">
        <ele>762.20001220703</ele>
        <time>2022-07-02T20:01:28.186Z</time>
      </trkpt>
      <trkpt lat="62.51453" lon="7.59894">
        <ele>762.40002441406</ele>
        <time>2022-07-02T20:01:32.031Z</time>
      </trkpt>
      <trkpt lat="62.51455" lon="7.59887">
        <ele>763.40002441406</ele>
        <time>2022-07-02T20:01:35.882Z</time>
      </trkpt>
      <trkpt lat="62.51458" lon="7.59885">
        <ele>763.79998779297</ele>
        <time>2022-07-02T20:01:39.738Z</time>
      </trkpt>
      <trkpt lat="62.5146" lon="7.59883">
        <ele>764.40002441406</ele>
        <time>2022-07-02T20:01:43.598Z</time>
      </trkpt>
      <trkpt lat="62.51462" lon="7.59879">
        <ele>765.40002441406</ele>
        <time>2022-07-02T20:01:47.462Z</time>
      </trkpt>
      <trkpt lat="62.51462" lon="7.59878">
        <ele>765.59997558594</ele>
        <time>2022-07-02T20:01:51.328Z</time>
      </trkpt>
      <trkpt lat="62.51463" lon="7.59875">
        <ele>765.79998779297</ele>
        <time>2022-07-02T20:01:55.196Z</time>
      </trkpt>
      <trkpt lat="62.51466" lon="7.59871">
        <ele>766.40002441406</ele>
        <time>2022-07-02T20:01:59.071Z</time>
      </trkpt>
      <trkpt lat="62.51467" lon="7.59869">
        <ele>766.59997558594</ele>
        <time>2022-07-02T20:02:02.949Z</time>
      </trkpt>
      <trkpt lat="62.51469" lon="7.59863">
        <ele>767.59997558594</ele>
        <time>2022-07-02T20:02:06.832Z</time>
      </trkpt>
      <trkpt lat="62.5147" lon="7.59861">
        <ele>767.79998779297</ele>
        <time>2022-07-02T20:02:10.717Z</time>
      </trkpt>
      <trkpt lat="62.5147" lon="7.59859">
        <ele>768</ele>
        <time>2022-07-02T20:02:14.604Z</time>
      </trkpt>
      <trkpt lat="62.51473" lon="7.59856">
        <ele>768.59997558594</ele>
        <time>2022-07-02T20:02:18.496Z</time>
      </trkpt>
      <trkpt lat="62.51474" lon="7.5985">
        <ele>768.79998779297</ele>
        <time>2022-07-02T20:02:22.393Z</time>
      </trkpt>
      <trkpt lat="62.51475" lon="7.59841">
        <ele>769.40002441406</ele>
        <time>2022-07-02T20:02:26.298Z</time>
      </trkpt>
      <trkpt lat="62.51477" lon="7.59834">
        <ele>769.79998779297</ele>
        <time>2022-07-02T20:02:30.209Z</time>
      </trkpt>
      <trkpt lat="62.51478" lon="7.59833">
        <ele>770</ele>
        <time>2022-07-02T20:02:34.121Z</time>
      </trkpt>
      <trkpt lat="62.51479" lon="7.59832">
        <ele>770.20001220703</ele>
        <time>2022-07-02T20:02:38.035Z</time>
      </trkpt>
      <trkpt lat="62.51483" lon="7.59831">
        <ele>771</ele>
        <time>2022-07-02T20:02:41.956Z</time>
      </trkpt>
      <trkpt lat="62.51485" lon="7.59829">
        <ele>771.20001220703</ele>
        <time>2022-07-02T20:02:45.882Z</time>
      </trkpt>
      <trkpt lat="62.51487" lon="7.59826">
        <ele>771.59997558594</ele>
        <time>2022-07-02T20:02:49.811Z</time>
      </trkpt>
      <trkpt lat="62.51488" lon="7.59825">
        <ele>771.59997558594</ele>
        <time>2022-07-02T20:02:53.742Z</time>
      </trkpt>
      <trkpt lat="62.51491" lon="7.59818">
        <ele>772</ele>
        <time>2022-07-02T20:02:57.681Z</time>
      </trkpt>
      <trkpt lat="62.51493" lon="7.59816">
        <ele>772.20001220703</ele>
        <time>2022-07-02T20:03:01.623Z</time>
      </trkpt>
      <trkpt lat="62.51495" lon="7.59815">
        <ele>772.59997558594</ele>
        <time>2022-07-02T20:03:05.570Z</time>
      </trkpt>
      <trkpt lat="62.51501" lon="7.5981">
        <ele>773</ele>
        <time>2022-07-02T20:03:09.527Z</time>
      </trkpt>
      <trkpt lat="62.51505" lon="7.59808">
        <ele>773.20001220703</ele>
        <time>2022-07-02T20:03:13.491Z</time>
      </trkpt>
      <trkpt lat="62.51506" lon="7.59807">
        <ele>773.20001220703</ele>
        <time>2022-07-02T20:03:17.458Z</time>
      </trkpt>
      <trkpt lat="62.51509" lon="7.59802">
        <ele>773.79998779297</ele>
        <time>2022-07-02T20:03:21.431Z</time>
      </trkpt>
      <trkpt lat="62.51511" lon="7.59796">
        <ele>774</ele>
        <time>2022-07-02T20:03:25.410Z</time>
      </trkpt>
      <trkpt lat="62.51514" lon="7.59788">
        <ele>774.20001220703</ele>
        <time>2022-07-02T20:03:29.397Z</time>
      </trkpt>
      <trkpt lat="62.51517" lon="7.59777">
        <ele>774.59997558594</ele>
        <time>2022-07-02T20:03:33.394Z</time>
      </trkpt>
      <trkpt lat="62.51519" lon="7.59767">
        <ele>775.20001220703</ele>
        <time>2022-07-02T20:03:37.400Z</time>
      </trkpt>
      <trkpt lat="62.5152" lon="7.59765">
        <ele>775.20001220703</ele>
        <time>2022-07-02T20:03:41.408Z</time>
      </trkpt>
      <trkpt lat="62.51527" lon="7.59757">
        <ele>776.20001220703</ele>
        <time>2022-07-02T20:03:45.429Z</time>
      </trkpt>
      <trkpt lat="62.51527" lon="7.59755">
        <ele>776.20001220703</ele>
        <time>2022-07-02T20:03:49.451Z</time>
      </trkpt>
      <trkpt lat="62.51528" lon="7.59754">
        <ele>776.20001220703</ele>
        <time>2022-07-02T20:03:53.475Z</time>
      </trkpt>
      <trkpt lat="62.51537" lon="7.59742">
        <ele>776.59997558594</ele>
        <time>2022-07-02T20:03:57.517Z</time>
      </trkpt>
      <trkpt lat="62.51539" lon="7.59727">
        <ele>777</ele>
        <time>2022-07-02T20:04:01.572Z</time>
      </trkpt>
      <trkpt lat="62.5154" lon="7.59722">
        <ele>777.20001220703</ele>
        <time>2022-07-02T20:04:05.631Z</time>
      </trkpt>
      <trkpt lat="62.51541" lon="7.59712">
        <ele>777.79998779297</ele>
        <time>2022-07-02T20:04:09.697Z</time>
      </trkpt>
      <trkpt lat="62.51543" lon="7.59705">
        <ele>778.20001220703</ele>
        <time>2022-07-02T20:04:13.770Z</time>
      </trkpt>
      <trkpt lat="62.51544" lon="7.59699">
        <ele>779</ele>
        <time>2022-07-02T20:04:17.848Z</time>
      </trkpt>
      <trkpt lat="62.51544" lon="7.59698">
        <ele>779.20001220703</ele>
        <time>2022-07-02T20:04:21.928Z</time>
      </trkpt>
      <trkpt lat="62.51546" lon="7.59696">
        <ele>779.40002441406</ele>
        <time>2022-07-02T20:04:26.010Z</time>
      </trkpt>
      <trkpt lat="62.51546" lon="7.5969">
        <ele>780</ele>
        <time>2022-07-02T20:04:30.097Z</time>
      </trkpt>
      <trkpt lat="62.51548" lon="7.59686">
        <ele>780.40002441406</ele>
        <time>2022-07-02T20:04:34.188Z</time>
      </trkpt>
      <trkpt lat="62.51549" lon="7.59682">
        <ele>780.59997558594</ele>
        <time>2022-07-02T20:04:38.283Z</time>
      </trkpt>
      <trkpt lat="62.5155" lon="7.59678">
        <ele>780.79998779297</ele>
        <time>2022-07-02T20:04:42.382Z</time>
      </trkpt>
      <trkpt lat="62.5155" lon="7.59676">
        <ele>780.79998779297</ele>
        <time>2022-07-02T20:04:46.482Z</time>
      </trkpt>
      <trkpt lat="62.51551" lon="7.59674">
        <ele>781.20001220703</ele>
        <time>2022-07-02T20:04:50.584Z</time>
      </trkpt>
      <trkpt lat="62.51552" lon="7.59673">
        <ele>781.20001220703</ele>
        <time>2022-07-02T20:04:54.688Z</time>
      </trkpt>
      <trkpt lat="62.51554" lon="7.59668">
        <ele>781.59997558594</ele>
        <time>2022-07-02T20:04:58.796Z</time>
      </trkpt>
      <trkpt lat="62.51554" lon="7.59667">
        <ele>781.79998779297</ele>
        <time>2022-07-02T20:05:02.906Z</time>
      </trkpt>
      <trkpt lat="62.51554" lon="7.59662">
        <ele>782</ele>
        <time>2022-07-02T20:05:07.020Z</time>
      </trkpt>
      <trkpt lat="62.51556" lon="7.59659">
        <ele>782.59997558594</ele>
        <time>2022-07-02T20:05:11.138Z</time>
      </trkpt>
      <trkpt lat="62.51558" lon="7.59658">
        <ele>782.79998779297</ele>
        <time>2022-07-02T20:05:15.259Z</time>
      </trkpt>
      <trkpt lat="62.51562" lon="7.59653">
        <ele>783.40002441406</ele>
        <time>2022-07-02T20:05:19.388Z</time>
      </trkpt>
      <trkpt lat="62.51565" lon="7.5965">
        <ele>783.79998779297</ele>
        <time>2022-07-02T20:05:23.523Z</time>
      </trkpt>
      <trkpt lat="62.51566" lon="7.59646">
        <ele>784.40002441406</ele>
        <time>2022-07-02T20:05:27.661Z</time>
      </trkpt>
      <trkpt lat="62.51567" lon="7.59643">
        <ele>784.59997558594</ele>
        <time>2022-07-02T20:05:31.802Z</time>
      </trkpt>
      <trkpt lat="62.51568" lon="7.59639">
        <ele>785</ele>
        <time>2022-07-02T20:05:35.947Z</time>
      </trkpt>
      <trkpt lat="62.5157" lon="7.59633">
        <ele>785.40002441406</ele>
        <time>2022-07-02T20:05:40.098Z</time>
      </trkpt>
      <trkpt lat="62.51571" lon="7.59627">
        <ele>786</ele>
        <time>2022-07-02T20:05:44.254Z</time>
      </trkpt>
      <trkpt lat="62.51569" lon="7.5962">
        <ele>786.59997558594</ele>
        <time>2022-07-02T20:05:48.415Z</time>
      </trkpt>
      <trkpt lat="62.51569" lon="7.59613">
        <ele>787</ele>
        <time>2022-07-02T20:05:52.582Z</time>
      </trkpt>
      <trkpt lat="62.51571" lon="7.59608">
        <ele>787.40002441406</ele>
        <time>2022-07-02T20:05:56.754Z</time>
      </trkpt>
      <trkpt lat="62.51573" lon="7.59599">
        <ele>788</ele>
        <time>2022-07-02T20:06:00.934Z</time>
      </trkpt>
      <trkpt lat="62.51575" lon="7.59595">
        <ele>788.40002441406</ele>
        <time>2022-07-02T20:06:05.119Z</time>
      </trkpt>
      <trkpt lat="62.51576" lon="7.59587">
        <ele>789.20001220703</ele>
        <time>2022-07-02T20:06:09.310Z</time>
      </trkpt>
      <trkpt lat="62.51578" lon="7.59581">
        <ele>790</ele>
        <time>2022-07-02T20:06:13.507Z</time>
      </trkpt>
      <trkpt lat="62.51578" lon="7.59577">
        <ele>790.40002441406</ele>
        <time>2022-07-02T20:06:17.707Z</time>
      </trkpt>
      <trkpt lat="62.51581" lon="7.59572">
        <ele>791</ele>
        <time>2022-07-02T20:06:21.913Z</time>
      </trkpt>
      <trkpt lat="62.51582" lon="7.5957">
        <ele>791.40002441406</ele>
        <time>2022-07-02T20:06:26.123Z</time>
      </trkpt>
      <trkpt lat="62.51584" lon="7.59565">
        <ele>791.59997558594</ele>
        <time>2022-07-02T20:06:30.338Z</time>
      </trkpt>
      <trkpt lat="62.51586" lon="7.59559">
        <ele>792.20001220703</ele>
        <time>2022-07-02T20:06:34.558Z</time>
      </trkpt>
      <trkpt lat="62.51587" lon="7.59555">
        <ele>792.40002441406</ele>
        <time>2022-07-02T20:06:38.782Z</time>
      </trkpt>
      <trkpt lat="62.51588" lon="7.59552">
        <ele>792.59997558594</ele>
        <time>2022-07-02T20:06:43.009Z</time>
      </trkpt>
      <trkpt lat="62.51592" lon="7.59543">
        <ele>793.40002441406</ele>
        <time>2022-07-02T20:06:47.245Z</time>
      </trkpt>
      <trkpt lat="62.51593" lon="7.59541">
        <ele>793.59997558594</ele>
        <time>2022-07-02T20:06:51.485Z</time>
      </trkpt>
      <trkpt lat="62.51594" lon="7.5954">
        <ele>793.79998779297</ele>
        <time>2022-07-02T20:06:55.726Z</time>
      </trkpt>
      <trkpt lat="62.51602" lon="7.59538">
        <ele>794.40002441406</ele>
        <time>2022-07-02T20:06:59.981Z</time>
      </trkpt>
      <trkpt lat="62.51605" lon="7.59534">
        <ele>795</ele>
        <time>2022-07-02T20:07:04.242Z</time>
      </trkpt>
      <trkpt lat="62.51606" lon="7.59528">
        <ele>795.20001220703</ele>
        <time>2022-07-02T20:07:08.507Z</time>
      </trkpt>
      <trkpt lat="62.51608" lon="7.59524">
        <ele>795.59997558594</ele>
        <time>2022-07-02T20:07:12.777Z</time>
      </trkpt>
      <trkpt lat="62.51611" lon="7.59519">
        <ele>796</ele>
        <time>2022-07-02T20:07:17.055Z</time>
      </trkpt>
      <trkpt lat="62.51613" lon="7.59515">
        <ele>796.20001220703</ele>
        <time>2022-07-02T20:07:21.336Z</time>
      </trkpt>
      <trkpt lat="62.51616" lon="7.59509">
        <ele>796.40002441406</ele>
        <time>2022-07-02T20:07:25.624Z</time>
      </trkpt>
      <trkpt lat="62.51617" lon="7.59505">
        <ele>796.59997558594</ele>
        <time>2022-07-02T20:07:29.916Z</time>
      </trkpt>
      <trkpt lat="62.5162" lon="7.59492">
        <ele>797</ele>
        <time>2022-07-02T20:07:34.220Z</time>
      </trkpt>
      <trkpt lat="62.51624" lon="7.59488">
        <ele>797.40002441406</ele>
        <time>2022-07-02T20:07:38.531Z</time>
      </trkpt>
      <trkpt lat="62.51625" lon="7.59484">
        <ele>797.59997558594</ele>
        <time>2022-07-02T20:07:42.845Z</time>
      </trkpt>
      <trkpt lat="62.51627" lon="7.59473">
        <ele>798.59997558594</ele>
        <time>2022-07-02T20:07:47.169Z</time>
      </trkpt>
      <trkpt lat="62.51628" lon="7.59471">
        <ele>798.59997558594</ele>
        <time>2022-07-02T20:07:51.495Z</time>
      </trkpt>
      <trkpt lat="62.51629" lon="7.59461">
        <ele>799.20001220703</ele>
        <time>2022-07-02T20:07:55.829Z</time>
      </trkpt>
      <trkpt lat="62.51632" lon="7.59457">
        <ele>799.79998779297</ele>
        <time>2022-07-02T20:08:00.170Z</time>
      </trkpt>
      <trkpt lat="62.51633" lon="7.59456">
        <ele>800</ele>
        <time>2022-07-02T20:08:04.512Z</time>
      </trkpt>
      <trkpt lat="62.51639" lon="7.59445">
        <ele>800.79998779297</ele>
        <time>2022-07-02T20:08:08.868Z</time>
      </trkpt>
      <trkpt lat="62.51643" lon="7.59439">
        <ele>801.79998779297</ele>
        <time>2022-07-02T20:08:13.231Z</time>
      </trkpt>
      <trkpt lat="62.51644" lon="7.59439">
        <ele>802.20001220703</ele>
        <time>2022-07-02T20:08:17.597Z</time>
      </trkpt>
      <trkpt lat="62.51648" lon="7.59428">
        <ele>803.20001220703</ele>
        <time>2022-07-02T20:08:21.974Z</time>
      </trkpt>
      <trkpt lat="62.51651" lon="7.59421">
        <ele>804.20001220703</ele>
        <time>2022-07-02T20:08:26.359Z</time>
      </trkpt>
      <trkpt lat="62.51654" lon="7.59419">
        <ele>804.79998779297</ele>
        <time>2022-07-02T20:08:30.748Z</time>
      </trkpt>
      <trkpt lat="62.51656" lon="7.59416">
        <ele>805.20001220703</ele>
        <time>2022-07-02T20:08:35.142Z</time>
      </trkpt>
      <trkpt lat="62.51659" lon="7.59413">
        <ele>805.59997558594</ele>
        <time>2022-07-02T20:08:39.541Z</time>
      </trkpt>
      <trkpt lat="62.51659" lon="7.59413">
        <ele>805.59997558594</ele>
        <time>2022-07-02T20:08:43.940Z</time>
      </trkpt>
      <trkpt lat="62.5166" lon="7.59408">
        <ele>806.20001220703</ele>
        <time>2022-07-02T20:08:48.343Z</time>
      </trkpt>
      <trkpt lat="62.51661" lon="7.59407">
        <ele>806.40002441406</ele>
        <time>2022-07-02T20:08:52.748Z</time>
      </trkpt>
      <trkpt lat="62.51664" lon="7.59401">
        <ele>807.59997558594</ele>
        <time>2022-07-02T20:08:57.159Z</time>
      </trkpt>
      <trkpt lat="62.51665" lon="7.594">
        <ele>808.20001220703</ele>
        <time>2022-07-02T20:09:01.573Z</time>
      </trkpt>
      <trkpt lat="62.51664" lon="7.59396">
        <ele>808.59997558594</ele>
        <time>2022-07-02T20:09:05.989Z</time>
      </trkpt>
      <trkpt lat="62.51665" lon="7.59396">
        <ele>809</ele>
        <time>2022-07-02T20:09:10.406Z</time>
      </trkpt>
      <trkpt lat="62.51665" lon="7.59398">
        <ele>809</ele>
        <time>2022-07-02T20:09:14.825Z</time>
      </trkpt>
      <trkpt lat="62.51665" lon="7.59398">
        <ele>808.79998779297</ele>
        <time>2022-07-02T20:09:19.244Z</time>
      </trkpt>
      <trkpt lat="62.51665" lon="7.59398">
        <ele>808.79998779297</ele>
        <time>2022-07-02T20:09:23.664Z</time>
      </trkpt>
      <trkpt lat="62.51665" lon="7.59399">
        <ele>808.79998779297</ele>
        <time>2022-07-02T20:09:28.084Z</time>
      </trkpt>
      <trkpt lat="62.51664" lon="7.59399">
        <ele>808.79998779297</ele>
        <time>2022-07-02T20:09:32.505Z</time>
      </trkpt>
      <trkpt lat="62.51665" lon="7.59398">
        <ele>809.79998779297</ele>
        <time>2022-07-02T20:09:36.927Z</time>
      </trkpt>
      <trkpt lat="62.51666" lon="7.59382">
        <ele>810.79998779297</ele>
        <time>2022-07-02T20:09:41.361Z</time>
      </trkpt>
      <trkpt lat="62.51666" lon="7.5938">
        <ele>811.20001220703</ele>
        <time>2022-07-02T20:09:45.797Z</time>
      </trkpt>
      <trkpt lat="62.51668" lon="7.5937">
        <ele>812.40002441406</ele>
        <time>2022-07-02T20:09:50.242Z</time>
      </trkpt>
      <trkpt lat="62.51669" lon="7.59368">
        <ele>812.79998779297</ele>
        <time>2022-07-02T20:09:54.688Z</time>
      </trkpt>
      <trkpt lat="62.51672" lon="7.59364">
        <ele>813.40002441406</ele>
        <time>2022-07-02T20:09:59.140Z</time>
      </trkpt>
      <trkpt lat="62.51673" lon="7.5936">
        <ele>814.20001220703</ele>
        <time>2022-07-02T20:10:03.596Z</time>
      </trkpt>
      <trkpt lat="62.51674" lon="7.59357">
        <ele>814.59997558594</ele>
        <time>2022-07-02T20:10:08.055Z</time>
      </trkpt>
      <trkpt lat="62.51676" lon="7.59351">
        <ele>815.59997558594</ele>
        <time>2022-07-02T20:10:12.519Z</time>
      </trkpt>
      <trkpt lat="62.51676" lon="7.5935">
        <ele>815.79998779297</ele>
        <time>2022-07-02T20:10:16.984Z</time>
      </trkpt>
      <trkpt lat="62.51677" lon="7.59343">
        <ele>817</ele>
        <time>2022-07-02T20:10:21.455Z</time>
      </trkpt>
      <trkpt lat="62.51677" lon="7.59342">
        <ele>817.20001220703</ele>
        <time>2022-07-02T20:10:25.927Z</time>
      </trkpt>
      <trkpt lat="62.51678" lon="7.59341">
        <ele>817.20001220703</ele>
        <time>2022-07-02T20:10:30.400Z</time>
      </trkpt>
      <trkpt lat="62.51678" lon="7.59338">
        <ele>818</ele>
        <time>2022-07-02T20:10:34.876Z</time>
      </trkpt>
      <trkpt lat="62.5168" lon="7.59334">
        <ele>818.59997558594</ele>
        <time>2022-07-02T20:10:39.356Z</time>
      </trkpt>
      <trkpt lat="62.5168" lon="7.59333">
        <ele>819</ele>
        <time>2022-07-02T20:10:43.837Z</time>
      </trkpt>
      <trkpt lat="62.51681" lon="7.5933">
        <ele>819.40002441406</ele>
        <time>2022-07-02T20:10:48.321Z</time>
      </trkpt>
      <trkpt lat="62.51682" lon="7.59328">
        <ele>820.20001220703</ele>
        <time>2022-07-02T20:10:52.807Z</time>
      </trkpt>
      <trkpt lat="62.51684" lon="7.59324">
        <ele>821.20001220703</ele>
        <time>2022-07-02T20:10:57.298Z</time>
      </trkpt>
      <trkpt lat="62.51685" lon="7.59322">
        <ele>821.59997558594</ele>
        <time>2022-07-02T20:11:01.791Z</time>
      </trkpt>
      <trkpt lat="62.51685" lon="7.59318">
        <ele>822.40002441406</ele>
        <time>2022-07-02T20:11:06.287Z</time>
      </trkpt>
      <trkpt lat="62.51685" lon="7.59312">
        <ele>823.40002441406</ele>
        <time>2022-07-02T20:11:10.788Z</time>
      </trkpt>
      <trkpt lat="62.51684" lon="7.59305">
        <ele>824.59997558594</ele>
        <time>2022-07-02T20:11:15.295Z</time>
      </trkpt>
      <trkpt lat="62.51684" lon="7.59302">
        <ele>824.79998779297</ele>
        <time>2022-07-02T20:11:19.804Z</time>
      </trkpt>
      <trkpt lat="62.51686" lon="7.593">
        <ele>825.59997558594</ele>
        <time>2022-07-02T20:11:24.317Z</time>
      </trkpt>
      <trkpt lat="62.51689" lon="7.59296">
        <ele>826.59997558594</ele>
        <time>2022-07-02T20:11:28.835Z</time>
      </trkpt>
      <trkpt lat="62.51691" lon="7.59291">
        <ele>827.79998779297</ele>
        <time>2022-07-02T20:11:33.359Z</time>
      </trkpt>
      <trkpt lat="62.51693" lon="7.59287">
        <ele>828.59997558594</ele>
        <time>2022-07-02T20:11:37.887Z</time>
      </trkpt>
      <trkpt lat="62.51694" lon="7.59286">
        <ele>828.79998779297</ele>
        <time>2022-07-02T20:11:42.417Z</time>
      </trkpt>
      <trkpt lat="62.51697" lon="7.59287">
        <ele>830</ele>
        <time>2022-07-02T20:11:46.953Z</time>
      </trkpt>
      <trkpt lat="62.517" lon="7.59282">
        <ele>830.59997558594</ele>
        <time>2022-07-02T20:11:51.495Z</time>
      </trkpt>
      <trkpt lat="62.51701" lon="7.59281">
        <ele>831</ele>
        <time>2022-07-02T20:11:56.038Z</time>
      </trkpt>
      <trkpt lat="62.51701" lon="7.5928">
        <ele>831.20001220703</ele>
        <time>2022-07-02T20:12:00.582Z</time>
      </trkpt>
      <trkpt lat="62.51701" lon="7.59277">
        <ele>832</ele>
        <time>2022-07-02T20:12:05.129Z</time>
      </trkpt>
      <trkpt lat="62.51705" lon="7.59277">
        <ele>833</ele>
        <time>2022-07-02T20:12:09.681Z</time>
      </trkpt>
      <trkpt lat="62.51705" lon="7.59276">
        <ele>833.20001220703</ele>
        <time>2022-07-02T20:12:14.234Z</time>
      </trkpt>
      <trkpt lat="62.51707" lon="7.59276">
        <ele>834</ele>
        <time>2022-07-02T20:12:18.790Z</time>
      </trkpt>
      <trkpt lat="62.51707" lon="7.59276">
        <ele>834.20001220703</ele>
        <time>2022-07-02T20:12:23.347Z</time>
      </trkpt>
      <trkpt lat="62.51711" lon="7.59274">
        <ele>835.20001220703</ele>
        <time>2022-07-02T20:12:27.909Z</time>
      </trkpt>
      <trkpt lat="62.51711" lon="7.59273">
        <ele>835.59997558594</ele>
        <time>2022-07-02T20:12:32.473Z</time>
      </trkpt>
      <trkpt lat="62.51713" lon="7.59273">
        <ele>836.40002441406</ele>
        <time>2022-07-02T20:12:37.040Z</time>
      </trkpt>
      <trkpt lat="62.51714" lon="7.59268">
        <ele>837.40002441406</ele>
        <time>2022-07-02T20:12:41.612Z</time>
      </trkpt>
      <trkpt lat="62.51715" lon="7.59268">
        <ele>837.59997558594</ele>
        <time>2022-07-02T20:12:46.184Z</time>
      </trkpt>
      <trkpt lat="62.51716" lon="7.59266">
        <ele>838.20001220703</ele>
        <time>2022-07-02T20:12:50.760Z</time>
      </trkpt>
      <trkpt lat="62.51717" lon="7.59265">
        <ele>838.79998779297</ele>
        <time>2022-07-02T20:12:55.337Z</time>
      </trkpt>
      <trkpt lat="62.51718" lon="7.5926">
        <ele>839.79998779297</ele>
        <time>2022-07-02T20:12:59.918Z</time>
      </trkpt>
      <trkpt lat="62.51719" lon="7.59259">
        <ele>840</ele>
        <time>2022-07-02T20:13:04.500Z</time>
      </trkpt>
      <trkpt lat="62.51721" lon="7.59257">
        <ele>841</ele>
        <time>2022-07-02T20:13:09.086Z</time>
      </trkpt>
      <trkpt lat="62.51722" lon="7.59258">
        <ele>842.40002441406</ele>
        <time>2022-07-02T20:13:13.675Z</time>
      </trkpt>
      <trkpt lat="62.51723" lon="7.59254">
        <ele>843.40002441406</ele>
        <time>2022-07-02T20:13:18.267Z</time>
      </trkpt>
      <trkpt lat="62.51723" lon="7.59251">
        <ele>844</ele>
        <time>2022-07-02T20:13:22.862Z</time>
      </trkpt>
      <trkpt lat="62.51723" lon="7.59248">
        <ele>844.40002441406</ele>
        <time>2022-07-02T20:13:27.460Z</time>
      </trkpt>
      <trkpt lat="62.51722" lon="7.59245">
        <ele>845.59997558594</ele>
        <time>2022-07-02T20:13:32.060Z</time>
      </trkpt>
      <trkpt lat="62.51721" lon="7.59245">
        <ele>845.79998779297</ele>
        <time>2022-07-02T20:13:36.661Z</time>
      </trkpt>
      <trkpt lat="62.51717" lon="7.59232">
        <ele>846.40002441406</ele>
        <time>2022-07-02T20:13:41.275Z</time>
      </trkpt>
      <trkpt lat="62.51717" lon="7.59231">
        <ele>846.59997558594</ele>
        <time>2022-07-02T20:13:45.890Z</time>
      </trkpt>
      <trkpt lat="62.51717" lon="7.59229">
        <ele>846.59997558594</ele>
        <time>2022-07-02T20:13:50.506Z</time>
      </trkpt>
      <trkpt lat="62.51716" lon="7.59219">
        <ele>847</ele>
        <time>2022-07-02T20:13:55.130Z</time>
      </trkpt>
      <trkpt lat="62.51717" lon="7.59216">
        <ele>847.79998779297</ele>
        <time>2022-07-02T20:13:59.757Z</time>
      </trkpt>
      <trkpt lat="62.51717" lon="7.5921">
        <ele>848.59997558594</ele>
        <time>2022-07-02T20:14:04.388Z</time>
      </trkpt>
      <trkpt lat="62.51718" lon="7.5921">
        <ele>848.79998779297</ele>
        <time>2022-07-02T20:14:09.020Z</time>
      </trkpt>
      <trkpt lat="62.51718" lon="7.59209">
        <ele>849</ele>
        <time>2022-07-02T20:14:13.653Z</time>
      </trkpt>
      <trkpt lat="62.51721" lon="7.59208">
        <ele>850.20001220703</ele>
        <time>2022-07-02T20:14:18.291Z</time>
      </trkpt>
      <trkpt lat="62.51723" lon="7.59202">
        <ele>851.40002441406</ele>
        <time>2022-07-02T20:14:22.935Z</time>
      </trkpt>
      <trkpt lat="62.51722" lon="7.592">
        <ele>851.59997558594</ele>
        <time>2022-07-02T20:14:27.580Z</time>
      </trkpt>
      <trkpt lat="62.51721" lon="7.59191">
        <ele>852.59997558594</ele>
        <time>2022-07-02T20:14:32.232Z</time>
      </trkpt>
      <trkpt lat="62.5172" lon="7.59183">
        <ele>853.59997558594</ele>
        <time>2022-07-02T20:14:36.891Z</time>
      </trkpt>
      <trkpt lat="62.5172" lon="7.59181">
        <ele>853.59997558594</ele>
        <time>2022-07-02T20:14:41.552Z</time>
      </trkpt>
      <trkpt lat="62.5172" lon="7.59175">
        <ele>854.20001220703</ele>
        <time>2022-07-02T20:14:46.217Z</time>
      </trkpt>
      <trkpt lat="62.51721" lon="7.59172">
        <ele>854.79998779297</ele>
        <time>2022-07-02T20:14:50.885Z</time>
      </trkpt>
      <trkpt lat="62.5172" lon="7.59169">
        <ele>855.59997558594</ele>
        <time>2022-07-02T20:14:55.555Z</time>
      </trkpt>
      <trkpt lat="62.51722" lon="7.59167">
        <ele>856</ele>
        <time>2022-07-02T20:15:00.228Z</time>
      </trkpt>
      <trkpt lat="62.51723" lon="7.59165">
        <ele>856.79998779297</ele>
        <time>2022-07-02T20:15:04.904Z</time>
      </trkpt>
      <trkpt lat="62.51724" lon="7.59164">
        <ele>857.40002441406</ele>
        <time>2022-07-02T20:15:09.581Z</time>
      </trkpt>
      <trkpt lat="62.51725" lon="7.59161">
        <ele>858.40002441406</ele>
        <time>2022-07-02T20:15:14.261Z</time>
      </trkpt>
      <trkpt lat="62.51726" lon="7.59159">
        <ele>859</ele>
        <time>2022-07-02T20:15:18.944Z</time>
      </trkpt>
      <trkpt lat="62.51728" lon="7.59161">
        <ele>859.59997558594</ele>
        <time>2022-07-02T20:15:23.630Z</time>
      </trkpt>
      <trkpt lat="62.51729" lon="7.59164">
        <ele>860.20001220703</ele>
        <time>2022-07-02T20:15:28.320Z</time>
      </trkpt>
      <trkpt lat="62.51729" lon="7.59162">
        <ele>860</ele>
        <time>2022-07-02T20:15:33.012Z</time>
      </trkpt>
      <trkpt lat="62.51729" lon="7.59162">
        <ele>860.20001220703</ele>
        <time>2022-07-02T20:15:37.705Z</time>
      </trkpt>
      <trkpt lat="62.51729" lon="7.59154">
        <ele>860.20001220703</ele>
        <time>2022-07-02T20:15:42.404Z</time>
      </trkpt>
      <trkpt lat="62.51729" lon="7.59146">
        <ele>860.79998779297</ele>
        <time>2022-07-02T20:15:47.109Z</time>
      </trkpt>
      <trkpt lat="62.5173" lon="7.59139">
        <ele>861.79998779297</ele>
        <time>2022-07-02T20:15:51.820Z</time>
      </trkpt>
      <trkpt lat="62.51731" lon="7.59138">
        <ele>862.40002441406</ele>
        <time>2022-07-02T20:15:56.533Z</time>
      </trkpt>
      <trkpt lat="62.51732" lon="7.59138">
        <ele>863.20001220703</ele>
        <time>2022-07-02T20:16:01.247Z</time>
      </trkpt>
      <trkpt lat="62.51732" lon="7.59138">
        <ele>863.59997558594</ele>
        <time>2022-07-02T20:16:05.961Z</time>
      </trkpt>
      <trkpt lat="62.51733" lon="7.59139">
        <ele>863.79998779297</ele>
        <time>2022-07-02T20:16:10.676Z</time>
      </trkpt>
      <trkpt lat="62.51732" lon="7.59139">
        <ele>863.40002441406</ele>
        <time>2022-07-02T20:16:15.392Z</time>
      </trkpt>
      <trkpt lat="62.51732" lon="7.59139">
        <ele>864.40002441406</ele>
        <time>2022-07-02T20:16:20.108Z</time>
      </trkpt>
      <trkpt lat="62.51732" lon="7.59136">
        <ele>865.79998779297</ele>
        <time>2022-07-02T20:16:24.826Z</time>
      </trkpt>
      <trkpt lat="62.51734" lon="7.5913">
        <ele>866.79998779297</ele>
        <time>2022-07-02T20:16:29.550Z</time>
      </trkpt>
      <trkpt lat="62.51735" lon="7.59127">
        <ele>867.59997558594</ele>
        <time>2022-07-02T20:16:34.277Z</time>
      </trkpt>
      <trkpt lat="62.51737" lon="7.59125">
        <ele>868</ele>
        <time>2022-07-02T20:16:39.007Z</time>
      </trkpt>
      <trkpt lat="62.51739" lon="7.59127">
        <ele>868.59997558594</ele>
        <time>2022-07-02T20:16:43.742Z</time>
      </trkpt>
      <trkpt lat="62.51742" lon="7.59134">
        <ele>869</ele>
        <time>2022-07-02T20:16:48.483Z</time>
      </trkpt>
      <trkpt lat="62.51742" lon="7.59134">
        <ele>869</ele>
        <time>2022-07-02T20:16:53.225Z</time>
      </trkpt>
      <trkpt lat="62.51743" lon="7.59134">
        <ele>869.20001220703</ele>
        <time>2022-07-02T20:16:57.969Z</time>
      </trkpt>
      <trkpt lat="62.51745" lon="7.59132">
        <ele>870</ele>
        <time>2022-07-02T20:17:02.717Z</time>
      </trkpt>
      <trkpt lat="62.51746" lon="7.59132">
        <ele>870.40002441406</ele>
        <time>2022-07-02T20:17:07.466Z</time>
      </trkpt>
      <trkpt lat="62.51746" lon="7.59131">
        <ele>870.40002441406</ele>
        <time>2022-07-02T20:17:12.215Z</time>
      </trkpt>
      <trkpt lat="62.51748" lon="7.59127">
        <ele>871.40002441406</ele>
        <time>2022-07-02T20:17:16.969Z</time>
      </trkpt>
      <trkpt lat="62.51749" lon="7.59127">
        <ele>872.20001220703</ele>
        <time>2022-07-02T20:17:21.725Z</time>
      </trkpt>
      <trkpt lat="62.51749" lon="7.59127">
        <ele>872.59997558594</ele>
        <time>2022-07-02T20:17:26.481Z</time>
      </trkpt>
      <trkpt lat="62.5175" lon="7.59127">
        <ele>872.79998779297</ele>
        <time>2022-07-02T20:17:31.238Z</time>
      </trkpt>
      <trkpt lat="62.51752" lon="7.59128">
        <ele>873.79998779297</ele>
        <time>2022-07-02T20:17:35.998Z</time>
      </trkpt>
      <trkpt lat="62.51753" lon="7.59129">
        <ele>874</ele>
        <time>2022-07-02T20:17:40.760Z</time>
      </trkpt>
      <trkpt lat="62.51754" lon="7.5913">
        <ele>874.59997558594</ele>
        <time>2022-07-02T20:17:45.525Z</time>
      </trkpt>
      <trkpt lat="62.51755" lon="7.59129">
        <ele>875</ele>
        <time>2022-07-02T20:17:50.292Z</time>
      </trkpt>
      <trkpt lat="62.51755" lon="7.59128">
        <ele>875.20001220703</ele>
        <time>2022-07-02T20:17:55.059Z</time>
      </trkpt>
      <trkpt lat="62.51755" lon="7.59126">
        <ele>876</ele>
        <time>2022-07-02T20:17:59.828Z</time>
      </trkpt>
      <trkpt lat="62.51755" lon="7.59126">
        <ele>878.20001220703</ele>
        <time>2022-07-02T20:18:04.597Z</time>
      </trkpt>
      <trkpt lat="62.51757" lon="7.59119">
        <ele>879.20001220703</ele>
        <time>2022-07-02T20:18:09.372Z</time>
      </trkpt>
      <trkpt lat="62.51757" lon="7.59114">
        <ele>879.40002441406</ele>
        <time>2022-07-02T20:18:14.152Z</time>
      </trkpt>
      <trkpt lat="62.51758" lon="7.59112">
        <ele>879.40002441406</ele>
        <time>2022-07-02T20:18:18.933Z</time>
      </trkpt>
      <trkpt lat="62.5176" lon="7.59102">
        <ele>880.40002441406</ele>
        <time>2022-07-02T20:18:23.723Z</time>
      </trkpt>
      <trkpt lat="62.5176" lon="7.591">
        <ele>880.59997558594</ele>
        <time>2022-07-02T20:18:28.515Z</time>
      </trkpt>
      <trkpt lat="62.5176" lon="7.59096">
        <ele>881.59997558594</ele>
        <time>2022-07-02T20:18:33.310Z</time>
      </trkpt>
      <trkpt lat="62.5176" lon="7.59093">
        <ele>882.79998779297</ele>
        <time>2022-07-02T20:18:38.108Z</time>
      </trkpt>
      <trkpt lat="62.5176" lon="7.59091">
        <ele>883.20001220703</ele>
        <time>2022-07-02T20:18:42.907Z</time>
      </trkpt>
      <trkpt lat="62.51761" lon="7.59087">
        <ele>883.79998779297</ele>
        <time>2022-07-02T20:18:47.709Z</time>
      </trkpt>
      <trkpt lat="62.51762" lon="7.59085">
        <ele>884.40002441406</ele>
        <time>2022-07-02T20:18:52.514Z</time>
      </trkpt>
      <trkpt lat="62.51763" lon="7.59084">
        <ele>885</ele>
        <time>2022-07-02T20:18:57.321Z</time>
      </trkpt>
      <trkpt lat="62.51765" lon="7.59081">
        <ele>885.59997558594</ele>
        <time>2022-07-02T20:19:02.132Z</time>
      </trkpt>
      <trkpt lat="62.51766" lon="7.59081">
        <ele>886</ele>
        <time>2022-07-02T20:19:06.944Z</time>
      </trkpt>
      <trkpt lat="62.51766" lon="7.59078">
        <ele>887.20001220703</ele>
        <time>2022-07-02T20:19:11.758Z</time>
      </trkpt>
      <trkpt lat="62.51766" lon="7.59075">
        <ele>887.40002441406</ele>
        <time>2022-07-02T20:19:16.574Z</time>
      </trkpt>
      <trkpt lat="62.51768" lon="7.59073">
        <ele>888.40002441406</ele>
        <time>2022-07-02T20:19:21.394Z</time>
      </trkpt>
      <trkpt lat="62.51769" lon="7.59072">
        <ele>889.20001220703</ele>
        <time>2022-07-02T20:19:26.215Z</time>
      </trkpt>
      <trkpt lat="62.51769" lon="7.59071">
        <ele>889.40002441406</ele>
        <time>2022-07-02T20:19:31.037Z</time>
      </trkpt>
      <trkpt lat="62.51769" lon="7.5907">
        <ele>890.20001220703</ele>
        <time>2022-07-02T20:19:35.860Z</time>
      </trkpt>
      <trkpt lat="62.51772" lon="7.59066">
        <ele>890.59997558594</ele>
        <time>2022-07-02T20:19:40.688Z</time>
      </trkpt>
      <trkpt lat="62.51772" lon="7.59065">
        <ele>890.79998779297</ele>
        <time>2022-07-02T20:19:45.517Z</time>
      </trkpt>
      <trkpt lat="62.51774" lon="7.59062">
        <ele>891.79998779297</ele>
        <time>2022-07-02T20:19:50.350Z</time>
      </trkpt>
      <trkpt lat="62.51774" lon="7.59063">
        <ele>892.20001220703</ele>
        <time>2022-07-02T20:19:55.184Z</time>
      </trkpt>
      <trkpt lat="62.51776" lon="7.59066">
        <ele>892.59997558594</ele>
        <time>2022-07-02T20:20:00.022Z</time>
      </trkpt>
      <trkpt lat="62.51777" lon="7.59068">
        <ele>893.20001220703</ele>
        <time>2022-07-02T20:20:04.862Z</time>
      </trkpt>
      <trkpt lat="62.51778" lon="7.59066">
        <ele>894.20001220703</ele>
        <time>2022-07-02T20:20:09.704Z</time>
      </trkpt>
      <trkpt lat="62.51778" lon="7.59065">
        <ele>894.20001220703</ele>
        <time>2022-07-02T20:20:14.547Z</time>
      </trkpt>
      <trkpt lat="62.51781" lon="7.59063">
        <ele>895.20001220703</ele>
        <time>2022-07-02T20:20:19.394Z</time>
      </trkpt>
      <trkpt lat="62.51781" lon="7.59063">
        <ele>895.40002441406</ele>
        <time>2022-07-02T20:20:24.242Z</time>
      </trkpt>
      <trkpt lat="62.51784" lon="7.59059">
        <ele>896.40002441406</ele>
        <time>2022-07-02T20:20:29.096Z</time>
      </trkpt>
      <trkpt lat="62.51784" lon="7.59058">
        <ele>896.79998779297</ele>
        <time>2022-07-02T20:20:33.950Z</time>
      </trkpt>
      <trkpt lat="62.51785" lon="7.59058">
        <ele>897.59997558594</ele>
        <time>2022-07-02T20:20:38.806Z</time>
      </trkpt>
      <trkpt lat="62.51785" lon="7.59056">
        <ele>898.40002441406</ele>
        <time>2022-07-02T20:20:43.663Z</time>
      </trkpt>
      <trkpt lat="62.51786" lon="7.59055">
        <ele>898.79998779297</ele>
        <time>2022-07-02T20:20:48.521Z</time>
      </trkpt>
      <trkpt lat="62.51786" lon="7.59054">
        <ele>899.20001220703</ele>
        <time>2022-07-02T20:20:53.380Z</time>
      </trkpt>
      <trkpt lat="62.51786" lon="7.59049">
        <ele>899.79998779297</ele>
        <time>2022-07-02T20:20:58.243Z</time>
      </trkpt>
      <trkpt lat="62.51786" lon="7.59046">
        <ele>899.79998779297</ele>
        <time>2022-07-02T20:21:03.108Z</time>
      </trkpt>
      <trkpt lat="62.51786" lon="7.59045">
        <ele>899.79998779297</ele>
        <time>2022-07-02T20:21:07.974Z</time>
      </trkpt>
      <trkpt lat="62.51786" lon="7.59042">
        <ele>900</ele>
        <time>2022-07-02T20:21:12.843Z</time>
      </trkpt>
      <trkpt lat="62.51787" lon="7.59038">
        <ele>900.40002441406</ele>
        <time>2022-07-02T20:21:17.716Z</time>
      </trkpt>
      <trkpt lat="62.51788" lon="7.59037">
        <ele>901</ele>
        <time>2022-07-02T20:21:22.590Z</time>
      </trkpt>
      <trkpt lat="62.51788" lon="7.59033">
        <ele>902</ele>
        <time>2022-07-02T20:21:27.467Z</time>
      </trkpt>
      <trkpt lat="62.5179" lon="7.59034">
        <ele>903</ele>
        <time>2022-07-02T20:21:32.347Z</time>
      </trkpt>
      <trkpt lat="62.5179" lon="7.59033">
        <ele>903.20001220703</ele>
        <time>2022-07-02T20:21:37.228Z</time>
      </trkpt>
      <trkpt lat="62.51792" lon="7.59031">
        <ele>903.40002441406</ele>
        <time>2022-07-02T20:21:42.112Z</time>
      </trkpt>
      <trkpt lat="62.51793" lon="7.59028">
        <ele>904.40002441406</ele>
        <time>2022-07-02T20:21:46.999Z</time>
      </trkpt>
      <trkpt lat="62.51795" lon="7.59026">
        <ele>905.40002441406</ele>
        <time>2022-07-02T20:21:51.889Z</time>
      </trkpt>
      <trkpt lat="62.51795" lon="7.59017">
        <ele>906.40002441406</ele>
        <time>2022-07-02T20:21:56.786Z</time>
      </trkpt>
      <trkpt lat="62.51793" lon="7.59007">
        <ele>907</ele>
        <time>2022-07-02T20:22:01.692Z</time>
      </trkpt>
      <trkpt lat="62.51794" lon="7.59006">
        <ele>907.20001220703</ele>
        <time>2022-07-02T20:22:06.600Z</time>
      </trkpt>
      <trkpt lat="62.51794" lon="7.59006">
        <ele>907.59997558594</ele>
        <time>2022-07-02T20:22:11.508Z</time>
      </trkpt>
      <trkpt lat="62.51795" lon="7.58999">
        <ele>908.40002441406</ele>
        <time>2022-07-02T20:22:16.422Z</time>
      </trkpt>
      <trkpt lat="62.51795" lon="7.58996">
        <ele>908.59997558594</ele>
        <time>2022-07-02T20:22:21.338Z</time>
      </trkpt>
      <trkpt lat="62.51795" lon="7.58989">
        <ele>909.40002441406</ele>
        <time>2022-07-02T20:22:26.260Z</time>
      </trkpt>
      <trkpt lat="62.51795" lon="7.58989">
        <ele>909.40002441406</ele>
        <time>2022-07-02T20:22:31.182Z</time>
      </trkpt>
      <trkpt lat="62.51796" lon="7.58988">
        <ele>909.59997558594</ele>
        <time>2022-07-02T20:22:36.105Z</time>
      </trkpt>
      <trkpt lat="62.51797" lon="7.58986">
        <ele>910.59997558594</ele>
        <time>2022-07-02T20:22:41.031Z</time>
      </trkpt>
      <trkpt lat="62.51797" lon="7.5898">
        <ele>911.79998779297</ele>
        <time>2022-07-02T20:22:45.962Z</time>
      </trkpt>
      <trkpt lat="62.51797" lon="7.58979">
        <ele>911.79998779297</ele>
        <time>2022-07-02T20:22:50.894Z</time>
      </trkpt>
      <trkpt lat="62.51795" lon="7.58972">
        <ele>911.59997558594</ele>
        <time>2022-07-02T20:22:55.832Z</time>
      </trkpt>
      <trkpt lat="62.51796" lon="7.58964">
        <ele>912.20001220703</ele>
        <time>2022-07-02T20:23:00.776Z</time>
      </trkpt>
      <trkpt lat="62.51797" lon="7.58961">
        <ele>913</ele>
        <time>2022-07-02T20:23:05.724Z</time>
      </trkpt>
      <trkpt lat="62.51798" lon="7.58959">
        <ele>913.59997558594</ele>
        <time>2022-07-02T20:23:10.674Z</time>
      </trkpt>
      <trkpt lat="62.51798" lon="7.58959">
        <ele>914</ele>
        <time>2022-07-02T20:23:15.625Z</time>
      </trkpt>
      <trkpt lat="62.51799" lon="7.58959">
        <ele>914.79998779297</ele>
        <time>2022-07-02T20:23:20.577Z</time>
      </trkpt>
      <trkpt lat="62.51799" lon="7.58953">
        <ele>914.79998779297</ele>
        <time>2022-07-02T20:23:25.535Z</time>
      </trkpt>
      <trkpt lat="62.51799" lon="7.58945">
        <ele>915</ele>
        <time>2022-07-02T20:23:30.499Z</time>
      </trkpt>
      <trkpt lat="62.51798" lon="7.58941">
        <ele>915.20001220703</ele>
        <time>2022-07-02T20:23:35.466Z</time>
      </trkpt>
      <trkpt lat="62.51798" lon="7.58939">
        <ele>915.20001220703</ele>
        <time>2022-07-02T20:23:40.435Z</time>
      </trkpt>
      <trkpt lat="62.518" lon="7.58931">
        <ele>915.59997558594</ele>
        <time>2022-07-02T20:23:45.410Z</time>
      </trkpt>
      <trkpt lat="62.51801" lon="7.58929">
        <ele>916.40002441406</ele>
        <time>2022-07-02T20:23:50.388Z</time>
      </trkpt>
      <trkpt lat="62.51801" lon="7.58923">
        <ele>917.20001220703</ele>
        <time>2022-07-02T20:23:55.371Z</time>
      </trkpt>
      <trkpt lat="62.51802" lon="7.58919">
        <ele>917.40002441406</ele>
        <time>2022-07-02T20:24:00.357Z</time>
      </trkpt>
      <trkpt lat="62.51801" lon="7.58914">
        <ele>918.20001220703</ele>
        <time>2022-07-02T20:24:05.347Z</time>
      </trkpt>
      <trkpt lat="62.518" lon="7.58911">
        <ele>918.59997558594</ele>
        <time>2022-07-02T20:24:10.340Z</time>
      </trkpt>
      <trkpt lat="62.51801" lon="7.58903">
        <ele>919.20001220703</ele>
        <time>2022-07-02T20:24:15.339Z</time>
      </trkpt>
      <trkpt lat="62.51801" lon="7.58899">
        <ele>919.40002441406</ele>
        <time>2022-07-02T20:24:20.341Z</time>
      </trkpt>
      <trkpt lat="62.51801" lon="7.58898">
        <ele>919.59997558594</ele>
        <time>2022-07-02T20:24:25.344Z</time>
      </trkpt>
      <trkpt lat="62.51801" lon="7.58896">
        <ele>919.79998779297</ele>
        <time>2022-07-02T20:24:30.349Z</time>
      </trkpt>
      <trkpt lat="62.51802" lon="7.58892">
        <ele>920.40002441406</ele>
        <time>2022-07-02T20:24:35.357Z</time>
      </trkpt>
      <trkpt lat="62.51802" lon="7.58891">
        <ele>920.59997558594</ele>
        <time>2022-07-02T20:24:40.365Z</time>
      </trkpt>
      <trkpt lat="62.51802" lon="7.58892">
        <ele>920.79998779297</ele>
        <time>2022-07-02T20:24:45.374Z</time>
      </trkpt>
      <trkpt lat="62.51802" lon="7.58892">
        <ele>921</ele>
        <time>2022-07-02T20:24:50.383Z</time>
      </trkpt>
      <trkpt lat="62.51806" lon="7.58898">
        <ele>922.40002441406</ele>
        <time>2022-07-02T20:24:55.400Z</time>
      </trkpt>
      <trkpt lat="62.51806" lon="7.58899">
        <ele>922.79998779297</ele>
        <time>2022-07-02T20:25:00.418Z</time>
      </trkpt>
      <trkpt lat="62.51808" lon="7.58901">
        <ele>923.40002441406</ele>
        <time>2022-07-02T20:25:05.440Z</time>
      </trkpt>
      <trkpt lat="62.51809" lon="7.58903">
        <ele>923.59997558594</ele>
        <time>2022-07-02T20:25:10.463Z</time>
      </trkpt>
      <trkpt lat="62.51811" lon="7.58903">
        <ele>924</ele>
        <time>2022-07-02T20:25:15.491Z</time>
      </trkpt>
      <trkpt lat="62.51812" lon="7.58903">
        <ele>924.20001220703</ele>
        <time>2022-07-02T20:25:20.519Z</time>
      </trkpt>
      <trkpt lat="62.51813" lon="7.589">
        <ele>924.59997558594</ele>
        <time>2022-07-02T20:25:25.551Z</time>
      </trkpt>
      <trkpt lat="62.51815" lon="7.58899">
        <ele>925.79998779297</ele>
        <time>2022-07-02T20:25:30.586Z</time>
      </trkpt>
      <trkpt lat="62.51815" lon="7.58896">
        <ele>926.79998779297</ele>
        <time>2022-07-02T20:25:35.623Z</time>
      </trkpt>
      <trkpt lat="62.51816" lon="7.58893">
        <ele>927.79998779297</ele>
        <time>2022-07-02T20:25:40.664Z</time>
      </trkpt>
      <trkpt lat="62.51816" lon="7.58894">
        <ele>928</ele>
        <time>2022-07-02T20:25:45.705Z</time>
      </trkpt>
      <trkpt lat="62.51817" lon="7.58896">
        <ele>928.59997558594</ele>
        <time>2022-07-02T20:25:50.749Z</time>
      </trkpt>
      <trkpt lat="62.51817" lon="7.58896">
        <ele>929</ele>
        <time>2022-07-02T20:25:55.793Z</time>
      </trkpt>
      <trkpt lat="62.51817" lon="7.58896">
        <ele>929.79998779297</ele>
        <time>2022-07-02T20:26:00.838Z</time>
      </trkpt>
      <trkpt lat="62.51817" lon="7.58896">
        <ele>931.20001220703</ele>
        <time>2022-07-02T20:26:05.883Z</time>
      </trkpt>
      <trkpt lat="62.51818" lon="7.58894">
        <ele>932.20001220703</ele>
        <time>2022-07-02T20:26:10.929Z</time>
      </trkpt>
      <trkpt lat="62.51819" lon="7.58893">
        <ele>933.40002441406</ele>
        <time>2022-07-02T20:26:15.978Z</time>
      </trkpt>
      <trkpt lat="62.51822" lon="7.58893">
        <ele>934.40002441406</ele>
        <time>2022-07-02T20:26:21.031Z</time>
      </trkpt>
      <trkpt lat="62.51823" lon="7.58892">
        <ele>935.40002441406</ele>
        <time>2022-07-02T20:26:26.087Z</time>
      </trkpt>
      <trkpt lat="62.51825" lon="7.58891">
        <ele>936.40002441406</ele>
        <time>2022-07-02T20:26:31.146Z</time>
      </trkpt>
      <trkpt lat="62.51826" lon="7.58889">
        <ele>937.40002441406</ele>
        <time>2022-07-02T20:26:36.207Z</time>
      </trkpt>
      <trkpt lat="62.51826" lon="7.58886">
        <ele>938.59997558594</ele>
        <time>2022-07-02T20:26:41.271Z</time>
      </trkpt>
      <trkpt lat="62.51829" lon="7.58883">
        <ele>939.20001220703</ele>
        <time>2022-07-02T20:26:46.340Z</time>
      </trkpt>
      <trkpt lat="62.51833" lon="7.5888">
        <ele>939.59997558594</ele>
        <time>2022-07-02T20:26:51.417Z</time>
      </trkpt>
      <trkpt lat="62.51834" lon="7.58879">
        <ele>940.79998779297</ele>
        <time>2022-07-02T20:26:56.495Z</time>
      </trkpt>
      <trkpt lat="62.51834" lon="7.58879">
        <ele>941.59997558594</ele>
        <time>2022-07-02T20:27:01.573Z</time>
      </trkpt>
      <trkpt lat="62.51835" lon="7.58879">
        <ele>942</ele>
        <time>2022-07-02T20:27:06.652Z</time>
      </trkpt>
      <trkpt lat="62.51837" lon="7.58878">
        <ele>943</ele>
        <time>2022-07-02T20:27:11.735Z</time>
      </trkpt>
      <trkpt lat="62.51838" lon="7.58876">
        <ele>944</ele>
        <time>2022-07-02T20:27:16.820Z</time>
      </trkpt>
      <trkpt lat="62.5184" lon="7.58873">
        <ele>945</ele>
        <time>2022-07-02T20:27:21.910Z</time>
      </trkpt>
      <trkpt lat="62.5184" lon="7.58869">
        <ele>945.79998779297</ele>
        <time>2022-07-02T20:27:27.003Z</time>
      </trkpt>
      <trkpt lat="62.51841" lon="7.58867">
        <ele>946.40002441406</ele>
        <time>2022-07-02T20:27:32.098Z</time>
      </trkpt>
      <trkpt lat="62.51841" lon="7.58864">
        <ele>947</ele>
        <time>2022-07-02T20:27:37.195Z</time>
      </trkpt>
      <trkpt lat="62.51842" lon="7.58863">
        <ele>947.59997558594</ele>
        <time>2022-07-02T20:27:42.293Z</time>
      </trkpt>
      <trkpt lat="62.51844" lon="7.58863">
        <ele>948.59997558594</ele>
        <time>2022-07-02T20:27:47.395Z</time>
      </trkpt>
      <trkpt lat="62.51848" lon="7.58863">
        <ele>949.79998779297</ele>
        <time>2022-07-02T20:27:52.503Z</time>
      </trkpt>
      <trkpt lat="62.51851" lon="7.58863">
        <ele>950.79998779297</ele>
        <time>2022-07-02T20:27:57.617Z</time>
      </trkpt>
      <trkpt lat="62.51854" lon="7.58857">
        <ele>952</ele>
        <time>2022-07-02T20:28:02.737Z</time>
      </trkpt>
      <trkpt lat="62.51855" lon="7.58853">
        <ele>952.59997558594</ele>
        <time>2022-07-02T20:28:07.862Z</time>
      </trkpt>
      <trkpt lat="62.51858" lon="7.58848">
        <ele>953.20001220703</ele>
        <time>2022-07-02T20:28:12.993Z</time>
      </trkpt>
      <trkpt lat="62.5186" lon="7.58841">
        <ele>953.79998779297</ele>
        <time>2022-07-02T20:28:18.130Z</time>
      </trkpt>
      <trkpt lat="62.5186" lon="7.58842">
        <ele>954.20001220703</ele>
        <time>2022-07-02T20:28:23.268Z</time>
      </trkpt>
      <trkpt lat="62.5186" lon="7.58842">
        <ele>954.20001220703</ele>
        <time>2022-07-02T20:28:28.406Z</time>
      </trkpt>
      <trkpt lat="62.5186" lon="7.58842">
        <ele>954.40002441406</ele>
        <time>2022-07-02T20:28:33.545Z</time>
      </trkpt>
      <trkpt lat="62.5186" lon="7.58842">
        <ele>954.20001220703</ele>
        <time>2022-07-02T20:28:38.684Z</time>
      </trkpt>
      <trkpt lat="62.5186" lon="7.58841">
        <ele>954.59997558594</ele>
        <time>2022-07-02T20:28:43.823Z</time>
      </trkpt>
      <trkpt lat="62.5186" lon="7.5884">
        <ele>955</ele>
        <time>2022-07-02T20:28:48.963Z</time>
      </trkpt>
      <trkpt lat="62.5186" lon="7.5884">
        <ele>955.59997558594</ele>
        <time>2022-07-02T20:28:54.103Z</time>
      </trkpt>
      <trkpt lat="62.51863" lon="7.58834">
        <ele>956.79998779297</ele>
        <time>2022-07-02T20:28:59.250Z</time>
      </trkpt>
      <trkpt lat="62.51864" lon="7.58832">
        <ele>956.79998779297</ele>
        <time>2022-07-02T20:29:04.400Z</time>
      </trkpt>
      <trkpt lat="62.51869" lon="7.58828">
        <ele>958</ele>
        <time>2022-07-02T20:29:09.558Z</time>
      </trkpt>
      <trkpt lat="62.5187" lon="7.58837">
        <ele>959</ele>
        <time>2022-07-02T20:29:14.724Z</time>
      </trkpt>
      <trkpt lat="62.51872" lon="7.58841">
        <ele>959.59997558594</ele>
        <time>2022-07-02T20:29:19.894Z</time>
      </trkpt>
      <trkpt lat="62.51873" lon="7.58841">
        <ele>960.20001220703</ele>
        <time>2022-07-02T20:29:25.066Z</time>
      </trkpt>
      <trkpt lat="62.51875" lon="7.58843">
        <ele>960.79998779297</ele>
        <time>2022-07-02T20:29:30.242Z</time>
      </trkpt>
      <trkpt lat="62.51876" lon="7.58844">
        <ele>961</ele>
        <time>2022-07-02T20:29:35.419Z</time>
      </trkpt>
      <trkpt lat="62.51876" lon="7.58845">
        <ele>961.40002441406</ele>
        <time>2022-07-02T20:29:40.597Z</time>
      </trkpt>
      <trkpt lat="62.51877" lon="7.58854">
        <ele>962.59997558594</ele>
        <time>2022-07-02T20:29:45.782Z</time>
      </trkpt>
      <trkpt lat="62.51878" lon="7.58857">
        <ele>963</ele>
        <time>2022-07-02T20:29:50.970Z</time>
      </trkpt>
      <trkpt lat="62.51879" lon="7.58858">
        <ele>963.79998779297</ele>
        <time>2022-07-02T20:29:56.160Z</time>
      </trkpt>
      <trkpt lat="62.5188" lon="7.58859">
        <ele>964</ele>
        <time>2022-07-02T20:30:01.351Z</time>
      </trkpt>
      <trkpt lat="62.5188" lon="7.5886">
        <ele>964.59997558594</ele>
        <time>2022-07-02T20:30:06.544Z</time>
      </trkpt>
      <trkpt lat="62.51881" lon="7.58861">
        <ele>964.59997558594</ele>
        <time>2022-07-02T20:30:11.738Z</time>
      </trkpt>
      <trkpt lat="62.51881" lon="7.58863">
        <ele>964.79998779297</ele>
        <time>2022-07-02T20:30:16.933Z</time>
      </trkpt>
      <trkpt lat="62.51881" lon="7.58869">
        <ele>965.59997558594</ele>
        <time>2022-07-02T20:30:22.133Z</time>
      </trkpt>
      <trkpt lat="62.51883" lon="7.58874">
        <ele>965.79998779297</ele>
        <time>2022-07-02T20:30:27.338Z</time>
      </trkpt>
      <trkpt lat="62.51884" lon="7.5888">
        <ele>966</ele>
        <time>2022-07-02T20:30:32.547Z</time>
      </trkpt>
      <trkpt lat="62.51884" lon="7.58886">
        <ele>966.40002441406</ele>
        <time>2022-07-02T20:30:37.761Z</time>
      </trkpt>
      <trkpt lat="62.51885" lon="7.58892">
        <ele>966.79998779297</ele>
        <time>2022-07-02T20:30:42.980Z</time>
      </trkpt>
      <trkpt lat="62.51886" lon="7.58894">
        <ele>967</ele>
        <time>2022-07-02T20:30:48.201Z</time>
      </trkpt>
      <trkpt lat="62.51888" lon="7.58903">
        <ele>967.79998779297</ele>
        <time>2022-07-02T20:30:53.431Z</time>
      </trkpt>
      <trkpt lat="62.51889" lon="7.58903">
        <ele>968</ele>
        <time>2022-07-02T20:30:58.661Z</time>
      </trkpt>
      <trkpt lat="62.51889" lon="7.589">
        <ele>968.40002441406</ele>
        <time>2022-07-02T20:31:03.894Z</time>
      </trkpt>
      <trkpt lat="62.51889" lon="7.58898">
        <ele>968.40002441406</ele>
        <time>2022-07-02T20:31:09.128Z</time>
      </trkpt>
      <trkpt lat="62.51889" lon="7.58894">
        <ele>969.20001220703</ele>
        <time>2022-07-02T20:31:14.365Z</time>
      </trkpt>
      <trkpt lat="62.51891" lon="7.58887">
        <ele>970.20001220703</ele>
        <time>2022-07-02T20:31:19.609Z</time>
      </trkpt>
      <trkpt lat="62.51894" lon="7.58888">
        <ele>971.20001220703</ele>
        <time>2022-07-02T20:31:24.858Z</time>
      </trkpt>
      <trkpt lat="62.51895" lon="7.58887">
        <ele>971.59997558594</ele>
        <time>2022-07-02T20:31:30.108Z</time>
      </trkpt>
      <trkpt lat="62.51896" lon="7.58888">
        <ele>972.40002441406</ele>
        <time>2022-07-02T20:31:35.361Z</time>
      </trkpt>
      <trkpt lat="62.51897" lon="7.58892">
        <ele>972.79998779297</ele>
        <time>2022-07-02T20:31:40.617Z</time>
      </trkpt>
      <trkpt lat="62.519" lon="7.58893">
        <ele>973.59997558594</ele>
        <time>2022-07-02T20:31:45.878Z</time>
      </trkpt>
      <trkpt lat="62.51902" lon="7.58894">
        <ele>974.20001220703</ele>
        <time>2022-07-02T20:31:51.142Z</time>
      </trkpt>
      <trkpt lat="62.51903" lon="7.58894">
        <ele>974.79998779297</ele>
        <time>2022-07-02T20:31:56.409Z</time>
      </trkpt>
      <trkpt lat="62.51905" lon="7.58892">
        <ele>975.79998779297</ele>
        <time>2022-07-02T20:32:01.679Z</time>
      </trkpt>
      <trkpt lat="62.51905" lon="7.58892">
        <ele>976</ele>
        <time>2022-07-02T20:32:06.950Z</time>
      </trkpt>
      <trkpt lat="62.51907" lon="7.58893">
        <ele>976.79998779297</ele>
        <time>2022-07-02T20:32:12.224Z</time>
      </trkpt>
      <trkpt lat="62.5191" lon="7.58892">
        <ele>977.79998779297</ele>
        <time>2022-07-02T20:32:17.502Z</time>
      </trkpt>
      <trkpt lat="62.5191" lon="7.5889">
        <ele>978</ele>
        <time>2022-07-02T20:32:22.782Z</time>
      </trkpt>
      <trkpt lat="62.51911" lon="7.58885">
        <ele>978.59997558594</ele>
        <time>2022-07-02T20:32:28.067Z</time>
      </trkpt>
      <trkpt lat="62.51913" lon="7.58884">
        <ele>979</ele>
        <time>2022-07-02T20:32:33.354Z</time>
      </trkpt>
      <trkpt lat="62.51915" lon="7.58881">
        <ele>980.20001220703</ele>
        <time>2022-07-02T20:32:38.646Z</time>
      </trkpt>
      <trkpt lat="62.51917" lon="7.58877">
        <ele>981</ele>
        <time>2022-07-02T20:32:43.942Z</time>
      </trkpt>
      <trkpt lat="62.51918" lon="7.58877">
        <ele>981</ele>
        <time>2022-07-02T20:32:49.239Z</time>
      </trkpt>
      <trkpt lat="62.51918" lon="7.58877">
        <ele>981.20001220703</ele>
        <time>2022-07-02T20:32:54.537Z</time>
      </trkpt>
      <trkpt lat="62.51921" lon="7.58877">
        <ele>982.20001220703</ele>
        <time>2022-07-02T20:32:59.839Z</time>
      </trkpt>
      <trkpt lat="62.51921" lon="7.58877">
        <ele>982.40002441406</ele>
        <time>2022-07-02T20:33:05.142Z</time>
      </trkpt>
      <trkpt lat="62.51922" lon="7.58875">
        <ele>982.59997558594</ele>
        <time>2022-07-02T20:33:10.448Z</time>
      </trkpt>
      <trkpt lat="62.51924" lon="7.58873">
        <ele>983.40002441406</ele>
        <time>2022-07-02T20:33:15.757Z</time>
      </trkpt>
      <trkpt lat="62.51926" lon="7.58872">
        <ele>984.40002441406</ele>
        <time>2022-07-02T20:33:21.070Z</time>
      </trkpt>
      <trkpt lat="62.51927" lon="7.58873">
        <ele>984.40002441406</ele>
        <time>2022-07-02T20:33:26.384Z</time>
      </trkpt>
      <trkpt lat="62.51928" lon="7.58871">
        <ele>985</ele>
        <time>2022-07-02T20:33:31.701Z</time>
      </trkpt>
      <trkpt lat="62.51931" lon="7.58874">
        <ele>985.59997558594</ele>
        <time>2022-07-02T20:33:37.023Z</time>
      </trkpt>
      <trkpt lat="62.51932" lon="7.58877">
        <ele>985.79998779297</ele>
        <time>2022-07-02T20:33:42.348Z</time>
      </trkpt>
      <trkpt lat="62.51932" lon="7.58879">
        <ele>986.20001220703</ele>
        <time>2022-07-02T20:33:47.675Z</time>
      </trkpt>
      <trkpt lat="62.51933" lon="7.58879">
        <ele>986.59997558594</ele>
        <time>2022-07-02T20:33:53.003Z</time>
      </trkpt>
      <trkpt lat="62.51933" lon="7.5888">
        <ele>986.79998779297</ele>
        <time>2022-07-02T20:33:58.332Z</time>
      </trkpt>
      <trkpt lat="62.51935" lon="7.58885">
        <ele>987</ele>
        <time>2022-07-02T20:34:03.666Z</time>
      </trkpt>
      <trkpt lat="62.51938" lon="7.58892">
        <ele>987.79998779297</ele>
        <time>2022-07-02T20:34:09.008Z</time>
      </trkpt>
      <trkpt lat="62.51939" lon="7.58891">
        <ele>988.20001220703</ele>
        <time>2022-07-02T20:34:14.350Z</time>
      </trkpt>
      <trkpt lat="62.51939" lon="7.58891">
        <ele>988.40002441406</ele>
        <time>2022-07-02T20:34:19.693Z</time>
      </trkpt>
      <trkpt lat="62.5194" lon="7.5889">
        <ele>988.79998779297</ele>
        <time>2022-07-02T20:34:25.038Z</time>
      </trkpt>
      <trkpt lat="62.51941" lon="7.58886">
        <ele>989.79998779297</ele>
        <time>2022-07-02T20:34:30.386Z</time>
      </trkpt>
      <trkpt lat="62.51941" lon="7.58885">
        <ele>990</ele>
        <time>2022-07-02T20:34:35.735Z</time>
      </trkpt>
      <trkpt lat="62.51942" lon="7.5888">
        <ele>991</ele>
        <time>2022-07-02T20:34:41.088Z</time>
      </trkpt>
      <trkpt lat="62.51942" lon="7.58878">
        <ele>991.40002441406</ele>
        <time>2022-07-02T20:34:46.443Z</time>
      </trkpt>
      <trkpt lat="62.51944" lon="7.58877">
        <ele>992</ele>
        <time>2022-07-02T20:34:51.801Z</time>
      </trkpt>
      <trkpt lat="62.51944" lon="7.58876">
        <ele>992.40002441406</ele>
        <time>2022-07-02T20:34:57.159Z</time>
      </trkpt>
      <trkpt lat="62.51947" lon="7.58871">
        <ele>993.59997558594</ele>
        <time>2022-07-02T20:35:02.524Z</time>
      </trkpt>
      <trkpt lat="62.51947" lon="7.5887">
        <ele>994</ele>
        <time>2022-07-02T20:35:07.889Z</time>
      </trkpt>
      <trkpt lat="62.51948" lon="7.58871">
        <ele>994.79998779297</ele>
        <time>2022-07-02T20:35:13.257Z</time>
      </trkpt>
      <trkpt lat="62.51952" lon="7.58872">
        <ele>995.79998779297</ele>
        <time>2022-07-02T20:35:18.630Z</time>
      </trkpt>
      <trkpt lat="62.51952" lon="7.58871">
        <ele>996</ele>
        <time>2022-07-02T20:35:24.004Z</time>
      </trkpt>
      <trkpt lat="62.51955" lon="7.58866">
        <ele>997</ele>
        <time>2022-07-02T20:35:29.384Z</time>
      </trkpt>
      <trkpt lat="62.51955" lon="7.58866">
        <ele>997.59997558594</ele>
        <time>2022-07-02T20:35:34.765Z</time>
      </trkpt>
      <trkpt lat="62.51956" lon="7.58865">
        <ele>997.59997558594</ele>
        <time>2022-07-02T20:35:40.148Z</time>
      </trkpt>
      <trkpt lat="62.51956" lon="7.58865">
        <ele>997.59997558594</ele>
        <time>2022-07-02T20:35:45.531Z</time>
      </trkpt>
      <trkpt lat="62.51956" lon="7.58865">
        <ele>997.59997558594</ele>
        <time>2022-07-02T20:35:50.914Z</time>
      </trkpt>
      <trkpt lat="62.51956" lon="7.58865">
        <ele>997.79998779297</ele>
        <time>2022-07-02T20:35:56.298Z</time>
      </trkpt>
      <trkpt lat="62.51957" lon="7.58862">
        <ele>998</ele>
        <time>2022-07-02T20:36:01.684Z</time>
      </trkpt>
      <trkpt lat="62.51957" lon="7.58862">
        <ele>998</ele>
        <time>2022-07-02T20:36:07.071Z</time>
      </trkpt>
      <trkpt lat="62.51958" lon="7.58862">
        <ele>999.20001220703</ele>
        <time>2022-07-02T20:36:12.459Z</time>
      </trkpt>
      <trkpt lat="62.51961" lon="7.58863">
        <ele>999.79998779297</ele>
        <time>2022-07-02T20:36:17.852Z</time>
      </trkpt>
      <trkpt lat="62.51962" lon="7.58863">
        <ele>1000.200012207</ele>
        <time>2022-07-02T20:36:23.247Z</time>
      </trkpt>
      <trkpt lat="62.51962" lon="7.58853">
        <ele>1000.5999755859</ele>
        <time>2022-07-02T20:36:28.649Z</time>
      </trkpt>
      <trkpt lat="62.51963" lon="7.58845">
        <ele>1001.200012207</ele>
        <time>2022-07-02T20:36:34.058Z</time>
      </trkpt>
      <trkpt lat="62.51964" lon="7.58844">
        <ele>1001.200012207</ele>
        <time>2022-07-02T20:36:39.468Z</time>
      </trkpt>
      <trkpt lat="62.51964" lon="7.58843">
        <ele>1001.4000244141</ele>
        <time>2022-07-02T20:36:44.879Z</time>
      </trkpt>
      <trkpt lat="62.51966" lon="7.58843">
        <ele>1002.5999755859</ele>
        <time>2022-07-02T20:36:50.294Z</time>
      </trkpt>
      <trkpt lat="62.51968" lon="7.58845">
        <ele>1003.799987793</ele>
        <time>2022-07-02T20:36:55.713Z</time>
      </trkpt>
      <trkpt lat="62.5197" lon="7.58845">
        <ele>1004.4000244141</ele>
        <time>2022-07-02T20:37:01.135Z</time>
      </trkpt>
      <trkpt lat="62.51971" lon="7.58847">
        <ele>1004.799987793</ele>
        <time>2022-07-02T20:37:06.559Z</time>
      </trkpt>
      <trkpt lat="62.51973" lon="7.58848">
        <ele>1005.799987793</ele>
        <time>2022-07-02T20:37:11.988Z</time>
      </trkpt>
      <trkpt lat="62.51975" lon="7.58847">
        <ele>1007</ele>
        <time>2022-07-02T20:37:17.420Z</time>
      </trkpt>
      <trkpt lat="62.51976" lon="7.5885">
        <ele>1007.4000244141</ele>
        <time>2022-07-02T20:37:22.855Z</time>
      </trkpt>
      <trkpt lat="62.51976" lon="7.58851">
        <ele>1007.4000244141</ele>
        <time>2022-07-02T20:37:28.291Z</time>
      </trkpt>
      <trkpt lat="62.51977" lon="7.58853">
        <ele>1007.5999755859</ele>
        <time>2022-07-02T20:37:33.729Z</time>
      </trkpt>
      <trkpt lat="62.5198" lon="7.58858">
        <ele>1009.200012207</ele>
        <time>2022-07-02T20:37:39.173Z</time>
      </trkpt>
      <trkpt lat="62.51981" lon="7.5886">
        <ele>1009.4000244141</ele>
        <time>2022-07-02T20:37:44.619Z</time>
      </trkpt>
      <trkpt lat="62.51981" lon="7.58864">
        <ele>1010.200012207</ele>
        <time>2022-07-02T20:37:50.068Z</time>
      </trkpt>
      <trkpt lat="62.51981" lon="7.58864">
        <ele>1010.200012207</ele>
        <time>2022-07-02T20:37:55.518Z</time>
      </trkpt>
      <trkpt lat="62.51984" lon="7.58864">
        <ele>1010.5999755859</ele>
        <time>2022-07-02T20:38:00.972Z</time>
      </trkpt>
      <trkpt lat="62.51987" lon="7.58866">
        <ele>1011.5999755859</ele>
        <time>2022-07-02T20:38:06.432Z</time>
      </trkpt>
      <trkpt lat="62.51987" lon="7.58866">
        <ele>1011.799987793</ele>
        <time>2022-07-02T20:38:11.893Z</time>
      </trkpt>
      <trkpt lat="62.5199" lon="7.58864">
        <ele>1012.5999755859</ele>
        <time>2022-07-02T20:38:17.360Z</time>
      </trkpt>
      <trkpt lat="62.51993" lon="7.58861">
        <ele>1013.200012207</ele>
        <time>2022-07-02T20:38:22.832Z</time>
      </trkpt>
      <trkpt lat="62.51993" lon="7.58861">
        <ele>1013.200012207</ele>
        <time>2022-07-02T20:38:28.305Z</time>
      </trkpt>
      <trkpt lat="62.51992" lon="7.58859">
        <ele>1013</ele>
        <time>2022-07-02T20:38:33.780Z</time>
      </trkpt>
      <trkpt lat="62.51992" lon="7.5886">
        <ele>1013.5999755859</ele>
        <time>2022-07-02T20:38:39.255Z</time>
      </trkpt>
      <trkpt lat="62.51992" lon="7.58861">
        <ele>1013.5999755859</ele>
        <time>2022-07-02T20:38:44.731Z</time>
      </trkpt>
      <trkpt lat="62.51992" lon="7.5886">
        <ele>1013.200012207</ele>
        <time>2022-07-02T20:38:50.207Z</time>
      </trkpt>
      <trkpt lat="62.51992" lon="7.5886">
        <ele>1012.799987793</ele>
        <time>2022-07-02T20:38:55.683Z</time>
      </trkpt>
      <trkpt lat="62.51992" lon="7.5886">
        <ele>1012.799987793</ele>
        <time>2022-07-02T20:39:01.160Z</time>
      </trkpt>
      <trkpt lat="62.51992" lon="7.58861">
        <ele>1013</ele>
        <time>2022-07-02T20:39:06.637Z</time>
      </trkpt>
      <trkpt lat="62.51993" lon="7.5886">
        <ele>1013.5999755859</ele>
        <time>2022-07-02T20:39:12.115Z</time>
      </trkpt>
      <trkpt lat="62.51993" lon="7.5886">
        <ele>1014</ele>
        <time>2022-07-02T20:39:17.594Z</time>
      </trkpt>
      <trkpt lat="62.51993" lon="7.5886">
        <ele>1014</ele>
        <time>2022-07-02T20:39:23.073Z</time>
      </trkpt>
      <trkpt lat="62.51993" lon="7.58859">
        <ele>1014.799987793</ele>
        <time>2022-07-02T20:39:28.553Z</time>
      </trkpt>
      <trkpt lat="62.51998" lon="7.58857">
        <ele>1015.4000244141</ele>
        <time>2022-07-02T20:39:34.041Z</time>
      </trkpt>
      <trkpt lat="62.52004" lon="7.58853">
        <ele>1015.799987793</ele>
        <time>2022-07-02T20:39:39.540Z</time>
      </trkpt>
      <trkpt lat="62.52009" lon="7.5885">
        <ele>1016.4000244141</ele>
        <time>2022-07-02T20:39:45.048Z</time>
      </trkpt>
      <trkpt lat="62.52014" lon="7.58843">
        <ele>1017</ele>
        <time>2022-07-02T20:39:50.565Z</time>
      </trkpt>
      <trkpt lat="62.52016" lon="7.58842">
        <ele>1017.4000244141</ele>
        <time>2022-07-02T20:39:56.086Z</time>
      </trkpt>
      <trkpt lat="62.52021" lon="7.58838">
        <ele>1017.4000244141</ele>
        <time>2022-07-02T20:40:01.616Z</time>
      </trkpt>
      <trkpt lat="62.52023" lon="7.58829">
        <ele>1017.5999755859</ele>
        <time>2022-07-02T20:40:07.154Z</time>
      </trkpt>
      <trkpt lat="62.52024" lon="7.58825">
        <ele>1018</ele>
        <time>2022-07-02T20:40:12.696Z</time>
      </trkpt>
      <trkpt lat="62.52026" lon="7.58821">
        <ele>1018.799987793</ele>
        <time>2022-07-02T20:40:18.243Z</time>
      </trkpt>
      <trkpt lat="62.52026" lon="7.5882">
        <ele>1019.200012207</ele>
        <time>2022-07-02T20:40:23.790Z</time>
      </trkpt>
      <trkpt lat="62.52029" lon="7.58813">
        <ele>1019.200012207</ele>
        <time>2022-07-02T20:40:29.346Z</time>
      </trkpt>
      <trkpt lat="62.52036" lon="7.588">
        <ele>1020.200012207</ele>
        <time>2022-07-02T20:40:34.916Z</time>
      </trkpt>
      <trkpt lat="62.52036" lon="7.58798">
        <ele>1020.5999755859</ele>
        <time>2022-07-02T20:40:40.488Z</time>
      </trkpt>
      <trkpt lat="62.52037" lon="7.58797">
        <ele>1021.200012207</ele>
        <time>2022-07-02T20:40:46.061Z</time>
      </trkpt>
      <trkpt lat="62.52038" lon="7.58793">
        <ele>1021.5999755859</ele>
        <time>2022-07-02T20:40:51.638Z</time>
      </trkpt>
      <trkpt lat="62.52043" lon="7.58783">
        <ele>1022.5999755859</ele>
        <time>2022-07-02T20:40:57.226Z</time>
      </trkpt>
      <trkpt lat="62.52044" lon="7.5878">
        <ele>1023</ele>
        <time>2022-07-02T20:41:02.817Z</time>
      </trkpt>
      <trkpt lat="62.52045" lon="7.58776">
        <ele>1023.200012207</ele>
        <time>2022-07-02T20:41:08.412Z</time>
      </trkpt>
      <trkpt lat="62.52048" lon="7.58763">
        <ele>1023</ele>
        <time>2022-07-02T20:41:14.018Z</time>
      </trkpt>
      <trkpt lat="62.52052" lon="7.58739">
        <ele>1022</ele>
        <time>2022-07-02T20:41:19.644Z</time>
      </trkpt>
      <trkpt lat="62.52052" lon="7.58738">
        <ele>1022</ele>
        <time>2022-07-02T20:41:25.272Z</time>
      </trkpt>
      <trkpt lat="62.52052" lon="7.58734">
        <ele>1021.5999755859</ele>
        <time>2022-07-02T20:41:30.902Z</time>
      </trkpt>
      <trkpt lat="62.52052" lon="7.58733">
        <ele>1021.200012207</ele>
        <time>2022-07-02T20:41:36.533Z</time>
      </trkpt>
      <trkpt lat="62.52053" lon="7.58731">
        <ele>1020.799987793</ele>
        <time>2022-07-02T20:41:42.166Z</time>
      </trkpt>
      <trkpt lat="62.52054" lon="7.58729">
        <ele>1020</ele>
        <time>2022-07-02T20:41:47.802Z</time>
      </trkpt>
      <trkpt lat="62.52055" lon="7.58726">
        <ele>1019.200012207</ele>
        <time>2022-07-02T20:41:53.441Z</time>
      </trkpt>
      <trkpt lat="62.52055" lon="7.58724">
        <ele>1019</ele>
        <time>2022-07-02T20:41:59.081Z</time>
      </trkpt>
      <trkpt lat="62.52055" lon="7.58721">
        <ele>1018.799987793</ele>
        <time>2022-07-02T20:42:04.724Z</time>
      </trkpt>
      <trkpt lat="62.52057" lon="7.58719">
        <ele>1018.4000244141</ele>
        <time>2022-07-02T20:42:10.370Z</time>
      </trkpt>
      <trkpt lat="62.52058" lon="7.58716">
        <ele>1017.799987793</ele>
        <time>2022-07-02T20:42:16.020Z</time>
      </trkpt>
      <trkpt lat="62.52059" lon="7.58706">
        <ele>1016.5999755859</ele>
        <time>2022-07-02T20:42:21.677Z</time>
      </trkpt>
      <trkpt lat="62.52061" lon="7.58696">
        <ele>1015.5999755859</ele>
        <time>2022-07-02T20:42:27.343Z</time>
      </trkpt>
      <trkpt lat="62.52062" lon="7.58693">
        <ele>1015.4000244141</ele>
        <time>2022-07-02T20:42:33.012Z</time>
      </trkpt>
      <trkpt lat="62.52063" lon="7.58692">
        <ele>1015.200012207</ele>
        <time>2022-07-02T20:42:38.683Z</time>
      </trkpt>
      <trkpt lat="62.52065" lon="7.58687">
        <ele>1014.799987793</ele>
        <time>2022-07-02T20:42:44.359Z</time>
      </trkpt>
      <trkpt lat="62.52065" lon="7.58684">
        <ele>1014.4000244141</ele>
        <time>2022-07-02T20:42:50.038Z</time>
      </trkpt>
      <trkpt lat="62.52066" lon="7.58679">
        <ele>1014</ele>
        <time>2022-07-02T20:42:55.720Z</time>
      </trkpt>
      <trkpt lat="62.52067" lon="7.58675">
        <ele>1013.5999755859</ele>
        <time>2022-07-02T20:43:01.407Z</time>
      </trkpt>
      <trkpt lat="62.52069" lon="7.58673">
        <ele>1013.4000244141</ele>
        <time>2022-07-02T20:43:07.096Z</time>
      </trkpt>
      <trkpt lat="62.52071" lon="7.58669">
        <ele>1013.200012207</ele>
        <time>2022-07-02T20:43:12.791Z</time>
      </trkpt>
      <trkpt lat="62.52075" lon="7.58658">
        <ele>1012.4000244141</ele>
        <time>2022-07-02T20:43:18.497Z</time>
      </trkpt>
      <trkpt lat="62.52076" lon="7.58656">
        <ele>1012.200012207</ele>
        <time>2022-07-02T20:43:24.205Z</time>
      </trkpt>
      <trkpt lat="62.52083" lon="7.58645">
        <ele>1011.4000244141</ele>
        <time>2022-07-02T20:43:29.927Z</time>
      </trkpt>
      <trkpt lat="62.52083" lon="7.58644">
        <ele>1011.200012207</ele>
        <time>2022-07-02T20:43:35.651Z</time>
      </trkpt>
      <trkpt lat="62.52087" lon="7.58632">
        <ele>1010.4000244141</ele>
        <time>2022-07-02T20:43:41.387Z</time>
      </trkpt>
      <trkpt lat="62.52089" lon="7.58629">
        <ele>1010.200012207</ele>
        <time>2022-07-02T20:43:47.126Z</time>
      </trkpt>
      <trkpt lat="62.52091" lon="7.58624">
        <ele>1009.4000244141</ele>
        <time>2022-07-02T20:43:52.871Z</time>
      </trkpt>
      <trkpt lat="62.52092" lon="7.58622">
        <ele>1009.200012207</ele>
        <time>2022-07-02T20:43:58.618Z</time>
      </trkpt>
      <trkpt lat="62.52094" lon="7.58616">
        <ele>1008.5999755859</ele>
        <time>2022-07-02T20:44:04.371Z</time>
      </trkpt>
      <trkpt lat="62.52096" lon="7.58611">
        <ele>1008</ele>
        <time>2022-07-02T20:44:10.128Z</time>
      </trkpt>
      <trkpt lat="62.52096" lon="7.5861">
        <ele>1007.799987793</ele>
        <time>2022-07-02T20:44:15.887Z</time>
      </trkpt>
      <trkpt lat="62.52097" lon="7.5861">
        <ele>1007.799987793</ele>
        <time>2022-07-02T20:44:21.647Z</time>
      </trkpt>
      <trkpt lat="62.52097" lon="7.58608">
        <ele>1007.4000244141</ele>
        <time>2022-07-02T20:44:27.408Z</time>
      </trkpt>
      <trkpt lat="62.52099" lon="7.58604">
        <ele>1007</ele>
        <time>2022-07-02T20:44:33.173Z</time>
      </trkpt>
      <trkpt lat="62.521" lon="7.58601">
        <ele>1006.5999755859</ele>
        <time>2022-07-02T20:44:38.942Z</time>
      </trkpt>
      <trkpt lat="62.52102" lon="7.58595">
        <ele>1005.799987793</ele>
        <time>2022-07-02T20:44:44.717Z</time>
      </trkpt>
      <trkpt lat="62.52105" lon="7.58592">
        <ele>1005.5999755859</ele>
        <time>2022-07-02T20:44:50.496Z</time>
      </trkpt>
      <trkpt lat="62.52106" lon="7.58588">
        <ele>1006</ele>
        <time>2022-07-02T20:44:56.279Z</time>
      </trkpt>
      <trkpt lat="62.5211" lon="7.58583">
        <ele>1005.200012207</ele>
        <time>2022-07-02T20:45:02.069Z</time>
      </trkpt>
      <trkpt lat="62.52113" lon="7.58578">
        <ele>1005</ele>
        <time>2022-07-02T20:45:07.866Z</time>
      </trkpt>
      <trkpt lat="62.52113" lon="7.58578">
        <ele>1004.799987793</ele>
        <time>2022-07-02T20:45:13.664Z</time>
      </trkpt>
      <trkpt lat="62.52114" lon="7.58574">
        <ele>1003.799987793</ele>
        <time>2022-07-02T20:45:19.465Z</time>
      </trkpt>
      <trkpt lat="62.52114" lon="7.58572">
        <ele>1003.5999755859</ele>
        <time>2022-07-02T20:45:25.268Z</time>
      </trkpt>
      <trkpt lat="62.52118" lon="7.58565">
        <ele>1003</ele>
        <time>2022-07-02T20:45:31.079Z</time>
      </trkpt>
      <trkpt lat="62.5212" lon="7.58562">
        <ele>1002.5999755859</ele>
        <time>2022-07-02T20:45:36.894Z</time>
      </trkpt>
      <trkpt lat="62.52122" lon="7.58555">
        <ele>1002</ele>
        <time>2022-07-02T20:45:42.716Z</time>
      </trkpt>
      <trkpt lat="62.52126" lon="7.58551">
        <ele>1001.5999755859</ele>
        <time>2022-07-02T20:45:48.546Z</time>
      </trkpt>
      <trkpt lat="62.52128" lon="7.58548">
        <ele>1001</ele>
        <time>2022-07-02T20:45:54.379Z</time>
      </trkpt>
      <trkpt lat="62.5213" lon="7.58544">
        <ele>1000.5999755859</ele>
        <time>2022-07-02T20:46:00.217Z</time>
      </trkpt>
      <trkpt lat="62.5213" lon="7.58543">
        <ele>1000.200012207</ele>
        <time>2022-07-02T20:46:06.056Z</time>
      </trkpt>
      <trkpt lat="62.52132" lon="7.58541">
        <ele>999.40002441406</ele>
        <time>2022-07-02T20:46:11.899Z</time>
      </trkpt>
      <trkpt lat="62.52134" lon="7.58537">
        <ele>998.59997558594</ele>
        <time>2022-07-02T20:46:17.746Z</time>
      </trkpt>
      <trkpt lat="62.52135" lon="7.58536">
        <ele>998.40002441406</ele>
        <time>2022-07-02T20:46:23.595Z</time>
      </trkpt>
      <trkpt lat="62.52135" lon="7.58534">
        <ele>997.59997558594</ele>
        <time>2022-07-02T20:46:29.445Z</time>
      </trkpt>
      <trkpt lat="62.52135" lon="7.58534">
        <ele>997.40002441406</ele>
        <time>2022-07-02T20:46:35.295Z</time>
      </trkpt>
      <trkpt lat="62.52137" lon="7.58531">
        <ele>996.59997558594</ele>
        <time>2022-07-02T20:46:41.150Z</time>
      </trkpt>
      <trkpt lat="62.52138" lon="7.58527">
        <ele>996.20001220703</ele>
        <time>2022-07-02T20:46:47.008Z</time>
      </trkpt>
      <trkpt lat="62.5214" lon="7.58525">
        <ele>996</ele>
        <time>2022-07-02T20:46:52.869Z</time>
      </trkpt>
      <trkpt lat="62.5214" lon="7.58523">
        <ele>996</ele>
        <time>2022-07-02T20:46:58.733Z</time>
      </trkpt>
      <trkpt lat="62.52141" lon="7.58521">
        <ele>996</ele>
        <time>2022-07-02T20:47:04.598Z</time>
      </trkpt>
      <trkpt lat="62.52142" lon="7.58519">
        <ele>996</ele>
        <time>2022-07-02T20:47:10.465Z</time>
      </trkpt>
      <trkpt lat="62.52143" lon="7.58515">
        <ele>995</ele>
        <time>2022-07-02T20:47:16.336Z</time>
      </trkpt>
      <trkpt lat="62.52145" lon="7.5851">
        <ele>994.40002441406</ele>
        <time>2022-07-02T20:47:22.212Z</time>
      </trkpt>
      <trkpt lat="62.52147" lon="7.58508">
        <ele>994</ele>
        <time>2022-07-02T20:47:28.091Z</time>
      </trkpt>
      <trkpt lat="62.52148" lon="7.58505">
        <ele>993.40002441406</ele>
        <time>2022-07-02T20:47:33.974Z</time>
      </trkpt>
      <trkpt lat="62.5215" lon="7.58499">
        <ele>993</ele>
        <time>2022-07-02T20:47:39.862Z</time>
      </trkpt>
      <trkpt lat="62.52154" lon="7.5849">
        <ele>992.40002441406</ele>
        <time>2022-07-02T20:47:45.760Z</time>
      </trkpt>
      <trkpt lat="62.52155" lon="7.58484">
        <ele>991.79998779297</ele>
        <time>2022-07-02T20:47:51.663Z</time>
      </trkpt>
      <trkpt lat="62.52158" lon="7.58475">
        <ele>991.20001220703</ele>
        <time>2022-07-02T20:47:57.576Z</time>
      </trkpt>
      <trkpt lat="62.52159" lon="7.58473">
        <ele>991</ele>
        <time>2022-07-02T20:48:03.490Z</time>
      </trkpt>
      <trkpt lat="62.52159" lon="7.58469">
        <ele>990.79998779297</ele>
        <time>2022-07-02T20:48:09.407Z</time>
      </trkpt>
      <trkpt lat="62.52164" lon="7.58461">
        <ele>989.59997558594</ele>
        <time>2022-07-02T20:48:15.334Z</time>
      </trkpt>
      <trkpt lat="62.52165" lon="7.58456">
        <ele>989.40002441406</ele>
        <time>2022-07-02T20:48:21.265Z</time>
      </trkpt>
      <trkpt lat="62.52169" lon="7.58445">
        <ele>988.59997558594</ele>
        <time>2022-07-02T20:48:27.207Z</time>
      </trkpt>
      <trkpt lat="62.5217" lon="7.58439">
        <ele>987.59997558594</ele>
        <time>2022-07-02T20:48:33.155Z</time>
      </trkpt>
      <trkpt lat="62.52171" lon="7.58434">
        <ele>986.79998779297</ele>
        <time>2022-07-02T20:48:39.107Z</time>
      </trkpt>
      <trkpt lat="62.52172" lon="7.58433">
        <ele>986.40002441406</ele>
        <time>2022-07-02T20:48:45.061Z</time>
      </trkpt>
      <trkpt lat="62.52174" lon="7.58426">
        <ele>985.40002441406</ele>
        <time>2022-07-02T20:48:51.021Z</time>
      </trkpt>
      <trkpt lat="62.52176" lon="7.58423">
        <ele>984.20001220703</ele>
        <time>2022-07-02T20:48:56.985Z</time>
      </trkpt>
      <trkpt lat="62.52176" lon="7.58421">
        <ele>984</ele>
        <time>2022-07-02T20:49:02.950Z</time>
      </trkpt>
      <trkpt lat="62.52178" lon="7.58416">
        <ele>983.20001220703</ele>
        <time>2022-07-02T20:49:08.920Z</time>
      </trkpt>
      <trkpt lat="62.52178" lon="7.58415">
        <ele>983.20001220703</ele>
        <time>2022-07-02T20:49:14.892Z</time>
      </trkpt>
      <trkpt lat="62.52181" lon="7.58404">
        <ele>982.20001220703</ele>
        <time>2022-07-02T20:49:20.873Z</time>
      </trkpt>
      <trkpt lat="62.52186" lon="7.58396">
        <ele>982</ele>
        <time>2022-07-02T20:49:26.865Z</time>
      </trkpt>
      <trkpt lat="62.5219" lon="7.58393">
        <ele>981.79998779297</ele>
        <time>2022-07-02T20:49:32.864Z</time>
      </trkpt>
      <trkpt lat="62.52191" lon="7.58388">
        <ele>981.20001220703</ele>
        <time>2022-07-02T20:49:38.867Z</time>
      </trkpt>
      <trkpt lat="62.52192" lon="7.58387">
        <ele>981.20001220703</ele>
        <time>2022-07-02T20:49:44.872Z</time>
      </trkpt>
      <trkpt lat="62.52193" lon="7.58384">
        <ele>980.40002441406</ele>
        <time>2022-07-02T20:49:50.880Z</time>
      </trkpt>
      <trkpt lat="62.52194" lon="7.58381">
        <ele>980</ele>
        <time>2022-07-02T20:49:56.891Z</time>
      </trkpt>
      <trkpt lat="62.52197" lon="7.58376">
        <ele>979.79998779297</ele>
        <time>2022-07-02T20:50:02.909Z</time>
      </trkpt>
      <trkpt lat="62.52201" lon="7.58371">
        <ele>979</ele>
        <time>2022-07-02T20:50:08.933Z</time>
      </trkpt>
      <trkpt lat="62.52202" lon="7.58367">
        <ele>978</ele>
        <time>2022-07-02T20:50:14.961Z</time>
      </trkpt>
      <trkpt lat="62.52202" lon="7.58365">
        <ele>977.59997558594</ele>
        <time>2022-07-02T20:50:20.991Z</time>
      </trkpt>
      <trkpt lat="62.52204" lon="7.58362">
        <ele>977</ele>
        <time>2022-07-02T20:50:27.024Z</time>
      </trkpt>
      <trkpt lat="62.52205" lon="7.58357">
        <ele>975.79998779297</ele>
        <time>2022-07-02T20:50:33.062Z</time>
      </trkpt>
      <trkpt lat="62.52206" lon="7.58348">
        <ele>974.79998779297</ele>
        <time>2022-07-02T20:50:39.107Z</time>
      </trkpt>
      <trkpt lat="62.52205" lon="7.58347">
        <ele>974.79998779297</ele>
        <time>2022-07-02T20:50:45.153Z</time>
      </trkpt>
      <trkpt lat="62.52203" lon="7.58341">
        <ele>973.59997558594</ele>
        <time>2022-07-02T20:50:51.205Z</time>
      </trkpt>
      <trkpt lat="62.52203" lon="7.58337">
        <ele>972.40002441406</ele>
        <time>2022-07-02T20:50:57.260Z</time>
      </trkpt>
      <trkpt lat="62.52201" lon="7.58334">
        <ele>971.79998779297</ele>
        <time>2022-07-02T20:51:03.318Z</time>
      </trkpt>
      <trkpt lat="62.52201" lon="7.58333">
        <ele>971</ele>
        <time>2022-07-02T20:51:09.377Z</time>
      </trkpt>
      <trkpt lat="62.52201" lon="7.58329">
        <ele>969.79998779297</ele>
        <time>2022-07-02T20:51:15.440Z</time>
      </trkpt>
      <trkpt lat="62.52203" lon="7.58327">
        <ele>969.20001220703</ele>
        <time>2022-07-02T20:51:21.506Z</time>
      </trkpt>
      <trkpt lat="62.52205" lon="7.58323">
        <ele>968.59997558594</ele>
        <time>2022-07-02T20:51:27.576Z</time>
      </trkpt>
      <trkpt lat="62.52206" lon="7.58322">
        <ele>968.59997558594</ele>
        <time>2022-07-02T20:51:33.647Z</time>
      </trkpt>
      <trkpt lat="62.52204" lon="7.58318">
        <ele>968</ele>
        <time>2022-07-02T20:51:39.722Z</time>
      </trkpt>
      <trkpt lat="62.52204" lon="7.58316">
        <ele>967.40002441406</ele>
        <time>2022-07-02T20:51:45.799Z</time>
      </trkpt>
      <trkpt lat="62.52205" lon="7.58311">
        <ele>966.40002441406</ele>
        <time>2022-07-02T20:51:51.880Z</time>
      </trkpt>
      <trkpt lat="62.52205" lon="7.58308">
        <ele>966.20001220703</ele>
        <time>2022-07-02T20:51:57.963Z</time>
      </trkpt>
      <trkpt lat="62.52206" lon="7.58299">
        <ele>965.20001220703</ele>
        <time>2022-07-02T20:52:04.054Z</time>
      </trkpt>
      <trkpt lat="62.52207" lon="7.58298">
        <ele>965.20001220703</ele>
        <time>2022-07-02T20:52:10.147Z</time>
      </trkpt>
      <trkpt lat="62.52212" lon="7.58288">
        <ele>963.79998779297</ele>
        <time>2022-07-02T20:52:16.250Z</time>
      </trkpt>
      <trkpt lat="62.52218" lon="7.58272">
        <ele>962.79998779297</ele>
        <time>2022-07-02T20:52:22.370Z</time>
      </trkpt>
      <trkpt lat="62.52219" lon="7.5827">
        <ele>962.79998779297</ele>
        <time>2022-07-02T20:52:28.493Z</time>
      </trkpt>
      <trkpt lat="62.52222" lon="7.58255">
        <ele>963</ele>
        <time>2022-07-02T20:52:34.628Z</time>
      </trkpt>
      <trkpt lat="62.52225" lon="7.5825">
        <ele>963</ele>
        <time>2022-07-02T20:52:40.769Z</time>
      </trkpt>
      <trkpt lat="62.52226" lon="7.58249">
        <ele>963.20001220703</ele>
        <time>2022-07-02T20:52:46.912Z</time>
      </trkpt>
      <trkpt lat="62.5223" lon="7.58243">
        <ele>963.79998779297</ele>
        <time>2022-07-02T20:52:53.064Z</time>
      </trkpt>
      <trkpt lat="62.5223" lon="7.58241">
        <ele>964</ele>
        <time>2022-07-02T20:52:59.217Z</time>
      </trkpt>
      <trkpt lat="62.52235" lon="7.58229">
        <ele>963.79998779297</ele>
        <time>2022-07-02T20:53:05.383Z</time>
      </trkpt>
      <trkpt lat="62.52236" lon="7.58223">
        <ele>963.79998779297</ele>
        <time>2022-07-02T20:53:11.554Z</time>
      </trkpt>
      <trkpt lat="62.52242" lon="7.58204">
        <ele>963</ele>
        <time>2022-07-02T20:53:17.743Z</time>
      </trkpt>
      <trkpt lat="62.52248" lon="7.58193">
        <ele>964.20001220703</ele>
        <time>2022-07-02T20:53:23.946Z</time>
      </trkpt>
      <trkpt lat="62.52249" lon="7.58191">
        <ele>963.79998779297</ele>
        <time>2022-07-02T20:53:30.151Z</time>
      </trkpt>
      <trkpt lat="62.52253" lon="7.58182">
        <ele>963</ele>
        <time>2022-07-02T20:53:36.366Z</time>
      </trkpt>
      <trkpt lat="62.52254" lon="7.5818">
        <ele>962.79998779297</ele>
        <time>2022-07-02T20:53:42.583Z</time>
      </trkpt>
      <trkpt lat="62.52255" lon="7.58171">
        <ele>962.59997558594</ele>
        <time>2022-07-02T20:53:48.808Z</time>
      </trkpt>
      <trkpt lat="62.52257" lon="7.5816">
        <ele>962</ele>
        <time>2022-07-02T20:53:55.041Z</time>
      </trkpt>
      <trkpt lat="62.52257" lon="7.58154">
        <ele>961.79998779297</ele>
        <time>2022-07-02T20:54:01.279Z</time>
      </trkpt>
      <trkpt lat="62.5226" lon="7.58145">
        <ele>961.40002441406</ele>
        <time>2022-07-02T20:54:07.526Z</time>
      </trkpt>
      <trkpt lat="62.52268" lon="7.58126">
        <ele>961.79998779297</ele>
        <time>2022-07-02T20:54:13.792Z</time>
      </trkpt>
      <trkpt lat="62.52269" lon="7.58123">
        <ele>961.79998779297</ele>
        <time>2022-07-02T20:54:20.062Z</time>
      </trkpt>
      <trkpt lat="62.52269" lon="7.58111">
        <ele>961.79998779297</ele>
        <time>2022-07-02T20:54:26.341Z</time>
      </trkpt>
      <trkpt lat="62.52271" lon="7.58103">
        <ele>961.59997558594</ele>
        <time>2022-07-02T20:54:32.628Z</time>
      </trkpt>
      <trkpt lat="62.52276" lon="7.58095">
        <ele>961.59997558594</ele>
        <time>2022-07-02T20:54:38.925Z</time>
      </trkpt>
      <trkpt lat="62.52278" lon="7.58092">
        <ele>961.79998779297</ele>
        <time>2022-07-02T20:54:45.226Z</time>
      </trkpt>
      <trkpt lat="62.52287" lon="7.58086">
        <ele>962.20001220703</ele>
        <time>2022-07-02T20:54:51.544Z</time>
      </trkpt>
      <trkpt lat="62.52289" lon="7.58084">
        <ele>962</ele>
        <time>2022-07-02T20:54:57.865Z</time>
      </trkpt>
      <trkpt lat="62.52295" lon="7.58078">
        <ele>961.40002441406</ele>
        <time>2022-07-02T20:55:04.198Z</time>
      </trkpt>
      <trkpt lat="62.52296" lon="7.58074">
        <ele>960.79998779297</ele>
        <time>2022-07-02T20:55:10.534Z</time>
      </trkpt>
      <trkpt lat="62.52297" lon="7.58073">
        <ele>960.59997558594</ele>
        <time>2022-07-02T20:55:16.871Z</time>
      </trkpt>
      <trkpt lat="62.523" lon="7.58067">
        <ele>959.40002441406</ele>
        <time>2022-07-02T20:55:23.216Z</time>
      </trkpt>
      <trkpt lat="62.52303" lon="7.58063">
        <ele>958.59997558594</ele>
        <time>2022-07-02T20:55:29.566Z</time>
      </trkpt>
      <trkpt lat="62.52303" lon="7.58061">
        <ele>958.40002441406</ele>
        <time>2022-07-02T20:55:35.918Z</time>
      </trkpt>
      <trkpt lat="62.52308" lon="7.58059">
        <ele>958</ele>
        <time>2022-07-02T20:55:42.278Z</time>
      </trkpt>
      <trkpt lat="62.52309" lon="7.58057">
        <ele>957.40002441406</ele>
        <time>2022-07-02T20:55:48.640Z</time>
      </trkpt>
      <trkpt lat="62.5231" lon="7.58056">
        <ele>957.20001220703</ele>
        <time>2022-07-02T20:55:55.004Z</time>
      </trkpt>
      <trkpt lat="62.52311" lon="7.58051">
        <ele>956.20001220703</ele>
        <time>2022-07-02T20:56:01.373Z</time>
      </trkpt>
      <trkpt lat="62.52314" lon="7.58044">
        <ele>955.20001220703</ele>
        <time>2022-07-02T20:56:07.749Z</time>
      </trkpt>
      <trkpt lat="62.52315" lon="7.58042">
        <ele>954.59997558594</ele>
        <time>2022-07-02T20:56:14.128Z</time>
      </trkpt>
      <trkpt lat="62.52317" lon="7.58039">
        <ele>954</ele>
        <time>2022-07-02T20:56:20.510Z</time>
      </trkpt>
      <trkpt lat="62.52318" lon="7.58037">
        <ele>953.59997558594</ele>
        <time>2022-07-02T20:56:26.895Z</time>
      </trkpt>
      <trkpt lat="62.52319" lon="7.58034">
        <ele>953</ele>
        <time>2022-07-02T20:56:33.283Z</time>
      </trkpt>
      <trkpt lat="62.52322" lon="7.5803">
        <ele>952.20001220703</ele>
        <time>2022-07-02T20:56:39.676Z</time>
      </trkpt>
      <trkpt lat="62.52322" lon="7.5803">
        <ele>952.20001220703</ele>
        <time>2022-07-02T20:56:46.070Z</time>
      </trkpt>
      <trkpt lat="62.52323" lon="7.5803">
        <ele>952</ele>
        <time>2022-07-02T20:56:52.465Z</time>
      </trkpt>
      <trkpt lat="62.52325" lon="7.58026">
        <ele>951</ele>
        <time>2022-07-02T20:56:58.865Z</time>
      </trkpt>
      <trkpt lat="62.52326" lon="7.58024">
        <ele>950.79998779297</ele>
        <time>2022-07-02T20:57:05.268Z</time>
      </trkpt>
      <trkpt lat="62.52328" lon="7.58021">
        <ele>949.79998779297</ele>
        <time>2022-07-02T20:57:11.675Z</time>
      </trkpt>
      <trkpt lat="62.52328" lon="7.58019">
        <ele>949.40002441406</ele>
        <time>2022-07-02T20:57:18.084Z</time>
      </trkpt>
      <trkpt lat="62.52328" lon="7.58014">
        <ele>948.59997558594</ele>
        <time>2022-07-02T20:57:24.496Z</time>
      </trkpt>
      <trkpt lat="62.52328" lon="7.58012">
        <ele>948.20001220703</ele>
        <time>2022-07-02T20:57:30.910Z</time>
      </trkpt>
      <trkpt lat="62.52328" lon="7.58011">
        <ele>948</ele>
        <time>2022-07-02T20:57:37.325Z</time>
      </trkpt>
      <trkpt lat="62.52329" lon="7.58008">
        <ele>947.59997558594</ele>
        <time>2022-07-02T20:57:43.742Z</time>
      </trkpt>
      <trkpt lat="62.5233" lon="7.58007">
        <ele>947.20001220703</ele>
        <time>2022-07-02T20:57:50.161Z</time>
      </trkpt>
      <trkpt lat="62.5233" lon="7.58006">
        <ele>946.59997558594</ele>
        <time>2022-07-02T20:57:56.581Z</time>
      </trkpt>
      <trkpt lat="62.52331" lon="7.58003">
        <ele>946</ele>
        <time>2022-07-02T20:58:03.004Z</time>
      </trkpt>
      <trkpt lat="62.52331" lon="7.57996">
        <ele>945.20001220703</ele>
        <time>2022-07-02T20:58:09.433Z</time>
      </trkpt>
      <trkpt lat="62.52333" lon="7.57993">
        <ele>944.59997558594</ele>
        <time>2022-07-02T20:58:15.864Z</time>
      </trkpt>
      <trkpt lat="62.52334" lon="7.57993">
        <ele>944</ele>
        <time>2022-07-02T20:58:22.298Z</time>
      </trkpt>
      <trkpt lat="62.52335" lon="7.57989">
        <ele>943.59997558594</ele>
        <time>2022-07-02T20:58:28.735Z</time>
      </trkpt>
      <trkpt lat="62.52335" lon="7.57987">
        <ele>943</ele>
        <time>2022-07-02T20:58:35.174Z</time>
      </trkpt>
      <trkpt lat="62.52335" lon="7.57988">
        <ele>943</ele>
        <time>2022-07-02T20:58:41.613Z</time>
      </trkpt>
      <trkpt lat="62.52336" lon="7.57987">
        <ele>943</ele>
        <time>2022-07-02T20:58:48.052Z</time>
      </trkpt>
      <trkpt lat="62.52336" lon="7.57987">
        <ele>943</ele>
        <time>2022-07-02T20:58:54.491Z</time>
      </trkpt>
      <trkpt lat="62.52336" lon="7.57986">
        <ele>941.79998779297</ele>
        <time>2022-07-02T20:59:00.932Z</time>
      </trkpt>
      <trkpt lat="62.52337" lon="7.57986">
        <ele>941.40002441406</ele>
        <time>2022-07-02T20:59:07.374Z</time>
      </trkpt>
      <trkpt lat="62.52338" lon="7.57986">
        <ele>941.40002441406</ele>
        <time>2022-07-02T20:59:13.818Z</time>
      </trkpt>
      <trkpt lat="62.52338" lon="7.57985">
        <ele>941.20001220703</ele>
        <time>2022-07-02T20:59:20.262Z</time>
      </trkpt>
      <trkpt lat="62.52338" lon="7.57985">
        <ele>941.40002441406</ele>
        <time>2022-07-02T20:59:26.707Z</time>
      </trkpt>
      <trkpt lat="62.52338" lon="7.57985">
        <ele>941.20001220703</ele>
        <time>2022-07-02T20:59:33.152Z</time>
      </trkpt>
      <trkpt lat="62.52338" lon="7.57985">
        <ele>940.59997558594</ele>
        <time>2022-07-02T20:59:39.597Z</time>
      </trkpt>
      <trkpt lat="62.52339" lon="7.57983">
        <ele>939.59997558594</ele>
        <time>2022-07-02T20:59:46.045Z</time>
      </trkpt>
      <trkpt lat="62.52342" lon="7.57978">
        <ele>938.79998779297</ele>
        <time>2022-07-02T20:59:52.500Z</time>
      </trkpt>
      <trkpt lat="62.52345" lon="7.57975">
        <ele>938.20001220703</ele>
        <time>2022-07-02T20:59:58.960Z</time>
      </trkpt>
      <trkpt lat="62.5235" lon="7.57974">
        <ele>937.59997558594</ele>
        <time>2022-07-02T21:00:05.428Z</time>
      </trkpt>
      <trkpt lat="62.52351" lon="7.57972">
        <ele>937.20001220703</ele>
        <time>2022-07-02T21:00:11.899Z</time>
      </trkpt>
      <trkpt lat="62.52354" lon="7.57971">
        <ele>937</ele>
        <time>2022-07-02T21:00:18.374Z</time>
      </trkpt>
      <trkpt lat="62.52355" lon="7.57969">
        <ele>936.59997558594</ele>
        <time>2022-07-02T21:00:24.852Z</time>
      </trkpt>
      <trkpt lat="62.52355" lon="7.57967">
        <ele>936.20001220703</ele>
        <time>2022-07-02T21:00:31.332Z</time>
      </trkpt>
      <trkpt lat="62.52356" lon="7.57966">
        <ele>935.59997558594</ele>
        <time>2022-07-02T21:00:37.814Z</time>
      </trkpt>
      <trkpt lat="62.52357" lon="7.57965">
        <ele>935</ele>
        <time>2022-07-02T21:00:44.297Z</time>
      </trkpt>
      <trkpt lat="62.52359" lon="7.5796">
        <ele>934</ele>
        <time>2022-07-02T21:00:50.787Z</time>
      </trkpt>
      <trkpt lat="62.5236" lon="7.57958">
        <ele>933.59997558594</ele>
        <time>2022-07-02T21:00:57.278Z</time>
      </trkpt>
      <trkpt lat="62.5236" lon="7.57957">
        <ele>933.20001220703</ele>
        <time>2022-07-02T21:01:03.770Z</time>
      </trkpt>
      <trkpt lat="62.5236" lon="7.57955">
        <ele>932.79998779297</ele>
        <time>2022-07-02T21:01:10.263Z</time>
      </trkpt>
      <trkpt lat="62.5236" lon="7.57951">
        <ele>931.79998779297</ele>
        <time>2022-07-02T21:01:16.759Z</time>
      </trkpt>
      <trkpt lat="62.5236" lon="7.57949">
        <ele>931.59997558594</ele>
        <time>2022-07-02T21:01:23.257Z</time>
      </trkpt>
      <trkpt lat="62.52361" lon="7.57946">
        <ele>931.40002441406</ele>
        <time>2022-07-02T21:01:29.758Z</time>
      </trkpt>
      <trkpt lat="62.52362" lon="7.5794">
        <ele>930.40002441406</ele>
        <time>2022-07-02T21:01:36.264Z</time>
      </trkpt>
      <trkpt lat="62.52362" lon="7.57938">
        <ele>930.40002441406</ele>
        <time>2022-07-02T21:01:42.771Z</time>
      </trkpt>
      <trkpt lat="62.52362" lon="7.57935">
        <ele>930.20001220703</ele>
        <time>2022-07-02T21:01:49.281Z</time>
      </trkpt>
      <trkpt lat="62.52363" lon="7.57935">
        <ele>930.20001220703</ele>
        <time>2022-07-02T21:01:55.791Z</time>
      </trkpt>
      <trkpt lat="62.52364" lon="7.57935">
        <ele>930.20001220703</ele>
        <time>2022-07-02T21:02:02.303Z</time>
      </trkpt>
      <trkpt lat="62.52365" lon="7.57936">
        <ele>930.20001220703</ele>
        <time>2022-07-02T21:02:08.817Z</time>
      </trkpt>
      <trkpt lat="62.52367" lon="7.57934">
        <ele>929.59997558594</ele>
        <time>2022-07-02T21:02:15.334Z</time>
      </trkpt>
      <trkpt lat="62.52367" lon="7.57933">
        <ele>929.40002441406</ele>
        <time>2022-07-02T21:02:21.852Z</time>
      </trkpt>
      <trkpt lat="62.52368" lon="7.57933">
        <ele>929.20001220703</ele>
        <time>2022-07-02T21:02:28.372Z</time>
      </trkpt>
      <trkpt lat="62.5237" lon="7.57929">
        <ele>928.20001220703</ele>
        <time>2022-07-02T21:02:34.897Z</time>
      </trkpt>
      <trkpt lat="62.52371" lon="7.57929">
        <ele>928.20001220703</ele>
        <time>2022-07-02T21:02:41.424Z</time>
      </trkpt>
      <trkpt lat="62.52372" lon="7.57928">
        <ele>928</ele>
        <time>2022-07-02T21:02:47.952Z</time>
      </trkpt>
      <trkpt lat="62.52374" lon="7.57924">
        <ele>927.59997558594</ele>
        <time>2022-07-02T21:02:54.485Z</time>
      </trkpt>
      <trkpt lat="62.52375" lon="7.57924">
        <ele>927.79998779297</ele>
        <time>2022-07-02T21:03:01.019Z</time>
      </trkpt>
      <trkpt lat="62.52377" lon="7.57923">
        <ele>927.20001220703</ele>
        <time>2022-07-02T21:03:07.557Z</time>
      </trkpt>
      <trkpt lat="62.5238" lon="7.57918">
        <ele>926.40002441406</ele>
        <time>2022-07-02T21:03:14.101Z</time>
      </trkpt>
      <trkpt lat="62.5238" lon="7.57918">
        <ele>926</ele>
        <time>2022-07-02T21:03:20.645Z</time>
      </trkpt>
      <trkpt lat="62.52382" lon="7.57916">
        <ele>925</ele>
        <time>2022-07-02T21:03:27.193Z</time>
      </trkpt>
      <trkpt lat="62.52382" lon="7.57915">
        <ele>924.79998779297</ele>
        <time>2022-07-02T21:03:33.742Z</time>
      </trkpt>
      <trkpt lat="62.52381" lon="7.57907">
        <ele>924</ele>
        <time>2022-07-02T21:03:40.297Z</time>
      </trkpt>
      <trkpt lat="62.52382" lon="7.57905">
        <ele>923</ele>
        <time>2022-07-02T21:03:46.854Z</time>
      </trkpt>
      <trkpt lat="62.52383" lon="7.57902">
        <ele>922</ele>
        <time>2022-07-02T21:03:53.413Z</time>
      </trkpt>
      <trkpt lat="62.52383" lon="7.57901">
        <ele>921.59997558594</ele>
        <time>2022-07-02T21:03:59.973Z</time>
      </trkpt>
      <trkpt lat="62.52384" lon="7.57899">
        <ele>920.79998779297</ele>
        <time>2022-07-02T21:04:06.535Z</time>
      </trkpt>
      <trkpt lat="62.52385" lon="7.57898">
        <ele>920.59997558594</ele>
        <time>2022-07-02T21:04:13.100Z</time>
      </trkpt>
      <trkpt lat="62.52387" lon="7.57892">
        <ele>919.79998779297</ele>
        <time>2022-07-02T21:04:19.671Z</time>
      </trkpt>
      <trkpt lat="62.5239" lon="7.57885">
        <ele>918.79998779297</ele>
        <time>2022-07-02T21:04:26.249Z</time>
      </trkpt>
      <trkpt lat="62.5239" lon="7.57883">
        <ele>918.59997558594</ele>
        <time>2022-07-02T21:04:32.828Z</time>
      </trkpt>
      <trkpt lat="62.52391" lon="7.57883">
        <ele>918.40002441406</ele>
        <time>2022-07-02T21:04:39.409Z</time>
      </trkpt>
      <trkpt lat="62.52391" lon="7.57882">
        <ele>918.20001220703</ele>
        <time>2022-07-02T21:04:45.990Z</time>
      </trkpt>
      <trkpt lat="62.52392" lon="7.57881">
        <ele>918</ele>
        <time>2022-07-02T21:04:52.572Z</time>
      </trkpt>
      <trkpt lat="62.52392" lon="7.57881">
        <ele>917.79998779297</ele>
        <time>2022-07-02T21:04:59.155Z</time>
      </trkpt>
      <trkpt lat="62.52392" lon="7.57877">
        <ele>917</ele>
        <time>2022-07-02T21:05:05.741Z</time>
      </trkpt>
      <trkpt lat="62.52393" lon="7.57874">
        <ele>916</ele>
        <time>2022-07-02T21:05:12.330Z</time>
      </trkpt>
      <trkpt lat="62.52394" lon="7.57871">
        <ele>915.59997558594</ele>
        <time>2022-07-02T21:05:18.922Z</time>
      </trkpt>
      <trkpt lat="62.52396" lon="7.57869">
        <ele>914.79998779297</ele>
        <time>2022-07-02T21:05:25.517Z</time>
      </trkpt>
      <trkpt lat="62.52396" lon="7.57868">
        <ele>914.59997558594</ele>
        <time>2022-07-02T21:05:32.113Z</time>
      </trkpt>
      <trkpt lat="62.52398" lon="7.57867">
        <ele>913.79998779297</ele>
        <time>2022-07-02T21:05:38.712Z</time>
      </trkpt>
      <trkpt lat="62.52399" lon="7.57864">
        <ele>913</ele>
        <time>2022-07-02T21:05:45.314Z</time>
      </trkpt>
      <trkpt lat="62.524" lon="7.57863">
        <ele>912.40002441406</ele>
        <time>2022-07-02T21:05:51.918Z</time>
      </trkpt>
      <trkpt lat="62.52404" lon="7.57857">
        <ele>911.79998779297</ele>
        <time>2022-07-02T21:05:58.530Z</time>
      </trkpt>
      <trkpt lat="62.52405" lon="7.57855">
        <ele>912.20001220703</ele>
        <time>2022-07-02T21:06:05.145Z</time>
      </trkpt>
      <trkpt lat="62.52406" lon="7.57853">
        <ele>912</ele>
        <time>2022-07-02T21:06:11.763Z</time>
      </trkpt>
      <trkpt lat="62.52406" lon="7.57852">
        <ele>912</ele>
        <time>2022-07-02T21:06:18.381Z</time>
      </trkpt>
      <trkpt lat="62.52408" lon="7.5785">
        <ele>911.40002441406</ele>
        <time>2022-07-02T21:06:25.002Z</time>
      </trkpt>
      <trkpt lat="62.52407" lon="7.57848">
        <ele>911.20001220703</ele>
        <time>2022-07-02T21:06:31.625Z</time>
      </trkpt>
      <trkpt lat="62.52408" lon="7.57844">
        <ele>910.40002441406</ele>
        <time>2022-07-02T21:06:38.251Z</time>
      </trkpt>
      <trkpt lat="62.52408" lon="7.57842">
        <ele>910</ele>
        <time>2022-07-02T21:06:44.879Z</time>
      </trkpt>
      <trkpt lat="62.52409" lon="7.57837">
        <ele>909.20001220703</ele>
        <time>2022-07-02T21:06:51.511Z</time>
      </trkpt>
      <trkpt lat="62.52411" lon="7.57832">
        <ele>909.20001220703</ele>
        <time>2022-07-02T21:06:58.148Z</time>
      </trkpt>
      <trkpt lat="62.52412" lon="7.57826">
        <ele>908.59997558594</ele>
        <time>2022-07-02T21:07:04.790Z</time>
      </trkpt>
      <trkpt lat="62.52411" lon="7.57819">
        <ele>908</ele>
        <time>2022-07-02T21:07:11.438Z</time>
      </trkpt>
      <trkpt lat="62.52413" lon="7.57813">
        <ele>907.40002441406</ele>
        <time>2022-07-02T21:07:18.091Z</time>
      </trkpt>
      <trkpt lat="62.52414" lon="7.5781">
        <ele>906.79998779297</ele>
        <time>2022-07-02T21:07:24.747Z</time>
      </trkpt>
      <trkpt lat="62.52415" lon="7.57805">
        <ele>905.59997558594</ele>
        <time>2022-07-02T21:07:31.408Z</time>
      </trkpt>
      <trkpt lat="62.52416" lon="7.57804">
        <ele>905.20001220703</ele>
        <time>2022-07-02T21:07:38.071Z</time>
      </trkpt>
      <trkpt lat="62.52418" lon="7.57803">
        <ele>904.79998779297</ele>
        <time>2022-07-02T21:07:44.737Z</time>
      </trkpt>
      <trkpt lat="62.52418" lon="7.57802">
        <ele>904.59997558594</ele>
        <time>2022-07-02T21:07:51.404Z</time>
      </trkpt>
      <trkpt lat="62.52419" lon="7.57802">
        <ele>904.40002441406</ele>
        <time>2022-07-02T21:07:58.073Z</time>
      </trkpt>
      <trkpt lat="62.52424" lon="7.57797">
        <ele>904</ele>
        <time>2022-07-02T21:08:04.751Z</time>
      </trkpt>
      <trkpt lat="62.52426" lon="7.57797">
        <ele>903.79998779297</ele>
        <time>2022-07-02T21:08:11.431Z</time>
      </trkpt>
      <trkpt lat="62.52427" lon="7.57797">
        <ele>903.79998779297</ele>
        <time>2022-07-02T21:08:18.114Z</time>
      </trkpt>
      <trkpt lat="62.52431" lon="7.57795">
        <ele>903.59997558594</ele>
        <time>2022-07-02T21:08:24.803Z</time>
      </trkpt>
      <trkpt lat="62.52431" lon="7.57793">
        <ele>903.20001220703</ele>
        <time>2022-07-02T21:08:31.494Z</time>
      </trkpt>
      <trkpt lat="62.52434" lon="7.57789">
        <ele>902.20001220703</ele>
        <time>2022-07-02T21:08:38.191Z</time>
      </trkpt>
      <trkpt lat="62.52435" lon="7.57789">
        <ele>902</ele>
        <time>2022-07-02T21:08:44.889Z</time>
      </trkpt>
      <trkpt lat="62.52442" lon="7.57782">
        <ele>901.20001220703</ele>
        <time>2022-07-02T21:08:51.600Z</time>
      </trkpt>
      <trkpt lat="62.52443" lon="7.5778">
        <ele>901</ele>
        <time>2022-07-02T21:08:58.313Z</time>
      </trkpt>
      <trkpt lat="62.52445" lon="7.57777">
        <ele>900.79998779297</ele>
        <time>2022-07-02T21:09:05.030Z</time>
      </trkpt>
      <trkpt lat="62.52445" lon="7.57777">
        <ele>900.59997558594</ele>
        <time>2022-07-02T21:09:11.748Z</time>
      </trkpt>
      <trkpt lat="62.52448" lon="7.57774">
        <ele>899.79998779297</ele>
        <time>2022-07-02T21:09:18.472Z</time>
      </trkpt>
      <trkpt lat="62.5245" lon="7.57773">
        <ele>899.40002441406</ele>
        <time>2022-07-02T21:09:25.198Z</time>
      </trkpt>
      <trkpt lat="62.52451" lon="7.57773">
        <ele>899.20001220703</ele>
        <time>2022-07-02T21:09:31.927Z</time>
      </trkpt>
      <trkpt lat="62.52452" lon="7.57772">
        <ele>899</ele>
        <time>2022-07-02T21:09:38.658Z</time>
      </trkpt>
      <trkpt lat="62.52454" lon="7.57768">
        <ele>898.79998779297</ele>
        <time>2022-07-02T21:09:45.393Z</time>
      </trkpt>
      <trkpt lat="62.52458" lon="7.57764">
        <ele>897.59997558594</ele>
        <time>2022-07-02T21:09:52.136Z</time>
      </trkpt>
      <trkpt lat="62.52459" lon="7.57764">
        <ele>897.20001220703</ele>
        <time>2022-07-02T21:09:58.880Z</time>
      </trkpt>
      <trkpt lat="62.52461" lon="7.57761">
        <ele>896.79998779297</ele>
        <time>2022-07-02T21:10:05.628Z</time>
      </trkpt>
      <trkpt lat="62.52462" lon="7.57759">
        <ele>896.59997558594</ele>
        <time>2022-07-02T21:10:12.378Z</time>
      </trkpt>
      <trkpt lat="62.52462" lon="7.57755">
        <ele>895.40002441406</ele>
        <time>2022-07-02T21:10:19.132Z</time>
      </trkpt>
      <trkpt lat="62.52462" lon="7.57754">
        <ele>895.20001220703</ele>
        <time>2022-07-02T21:10:25.886Z</time>
      </trkpt>
      <trkpt lat="62.52463" lon="7.57747">
        <ele>894.40002441406</ele>
        <time>2022-07-02T21:10:32.646Z</time>
      </trkpt>
      <trkpt lat="62.52464" lon="7.5774">
        <ele>893.40002441406</ele>
        <time>2022-07-02T21:10:39.412Z</time>
      </trkpt>
      <trkpt lat="62.52464" lon="7.57738">
        <ele>893</ele>
        <time>2022-07-02T21:10:46.180Z</time>
      </trkpt>
      <trkpt lat="62.52468" lon="7.5773">
        <ele>892.59997558594</ele>
        <time>2022-07-02T21:10:52.957Z</time>
      </trkpt>
      <trkpt lat="62.52472" lon="7.57725">
        <ele>892.20001220703</ele>
        <time>2022-07-02T21:10:59.741Z</time>
      </trkpt>
      <trkpt lat="62.52474" lon="7.57725">
        <ele>892.20001220703</ele>
        <time>2022-07-02T21:11:06.529Z</time>
      </trkpt>
      <trkpt lat="62.5248" lon="7.57721">
        <ele>892</ele>
        <time>2022-07-02T21:11:13.327Z</time>
      </trkpt>
      <trkpt lat="62.52481" lon="7.5772">
        <ele>892</ele>
        <time>2022-07-02T21:11:20.127Z</time>
      </trkpt>
      <trkpt lat="62.52481" lon="7.57715">
        <ele>891.59997558594</ele>
        <time>2022-07-02T21:11:26.931Z</time>
      </trkpt>
      <trkpt lat="62.52485" lon="7.57715">
        <ele>890.79998779297</ele>
        <time>2022-07-02T21:11:33.741Z</time>
      </trkpt>
      <trkpt lat="62.52486" lon="7.57715">
        <ele>890.79998779297</ele>
        <time>2022-07-02T21:11:40.554Z</time>
      </trkpt>
      <trkpt lat="62.52497" lon="7.5771">
        <ele>890.79998779297</ele>
        <time>2022-07-02T21:11:47.387Z</time>
      </trkpt>
      <trkpt lat="62.52506" lon="7.57702">
        <ele>890.40002441406</ele>
        <time>2022-07-02T21:11:54.236Z</time>
      </trkpt>
      <trkpt lat="62.52509" lon="7.57701">
        <ele>890.40002441406</ele>
        <time>2022-07-02T21:12:01.089Z</time>
      </trkpt>
      <trkpt lat="62.52513" lon="7.577">
        <ele>891.20001220703</ele>
        <time>2022-07-02T21:12:07.949Z</time>
      </trkpt>
      <trkpt lat="62.52524" lon="7.57688">
        <ele>889.79998779297</ele>
        <time>2022-07-02T21:12:14.830Z</time>
      </trkpt>
      <trkpt lat="62.52528" lon="7.57681">
        <ele>888.40002441406</ele>
        <time>2022-07-02T21:12:21.720Z</time>
      </trkpt>
      <trkpt lat="62.52532" lon="7.57674">
        <ele>887.20001220703</ele>
        <time>2022-07-02T21:12:28.619Z</time>
      </trkpt>
      <trkpt lat="62.52534" lon="7.57674">
        <ele>886.20001220703</ele>
        <time>2022-07-02T21:12:35.521Z</time>
      </trkpt>
      <trkpt lat="62.52536" lon="7.57676">
        <ele>885.40002441406</ele>
        <time>2022-07-02T21:12:42.427Z</time>
      </trkpt>
      <trkpt lat="62.52537" lon="7.57677">
        <ele>885.20001220703</ele>
        <time>2022-07-02T21:12:49.334Z</time>
      </trkpt>
      <trkpt lat="62.5254" lon="7.57675">
        <ele>884.20001220703</ele>
        <time>2022-07-02T21:12:56.247Z</time>
      </trkpt>
      <trkpt lat="62.5254" lon="7.57674">
        <ele>883.79998779297</ele>
        <time>2022-07-02T21:13:03.161Z</time>
      </trkpt>
      <trkpt lat="62.52543" lon="7.57668">
        <ele>883</ele>
        <time>2022-07-02T21:13:10.081Z</time>
      </trkpt>
      <trkpt lat="62.52546" lon="7.57666">
        <ele>882.20001220703</ele>
        <time>2022-07-02T21:13:17.006Z</time>
      </trkpt>
      <trkpt lat="62.52549" lon="7.57665">
        <ele>881</ele>
        <time>2022-07-02T21:13:23.938Z</time>
      </trkpt>
      <trkpt lat="62.52551" lon="7.57665">
        <ele>880.79998779297</ele>
        <time>2022-07-02T21:13:30.873Z</time>
      </trkpt>
      <trkpt lat="62.52554" lon="7.57663">
        <ele>880.40002441406</ele>
        <time>2022-07-02T21:13:37.812Z</time>
      </trkpt>
      <trkpt lat="62.52556" lon="7.57658">
        <ele>879.79998779297</ele>
        <time>2022-07-02T21:13:44.757Z</time>
      </trkpt>
      <trkpt lat="62.52557" lon="7.57656">
        <ele>879.59997558594</ele>
        <time>2022-07-02T21:13:51.704Z</time>
      </trkpt>
      <trkpt lat="62.52563" lon="7.57642">
        <ele>878.40002441406</ele>
        <time>2022-07-02T21:13:58.666Z</time>
      </trkpt>
      <trkpt lat="62.52564" lon="7.57641">
        <ele>878.20001220703</ele>
        <time>2022-07-02T21:14:05.630Z</time>
      </trkpt>
      <trkpt lat="62.52569" lon="7.57629">
        <ele>877.40002441406</ele>
        <time>2022-07-02T21:14:12.606Z</time>
      </trkpt>
      <trkpt lat="62.52573" lon="7.57619">
        <ele>876.40002441406</ele>
        <time>2022-07-02T21:14:19.594Z</time>
      </trkpt>
      <trkpt lat="62.52575" lon="7.57618">
        <ele>876</ele>
        <time>2022-07-02T21:14:26.584Z</time>
      </trkpt>
      <trkpt lat="62.52576" lon="7.57616">
        <ele>876</ele>
        <time>2022-07-02T21:14:33.577Z</time>
      </trkpt>
      <trkpt lat="62.52579" lon="7.57611">
        <ele>875.40002441406</ele>
        <time>2022-07-02T21:14:40.577Z</time>
      </trkpt>
      <trkpt lat="62.52582" lon="7.57607">
        <ele>875.40002441406</ele>
        <time>2022-07-02T21:14:47.583Z</time>
      </trkpt>
    </trkseg>
  </trk>
</gpx>